[[{"header":{"parameterUnit":"m.s-1","parameterCategory":1,"la1":30.6,"la2":29.2853,"lo1":-89.7004,"lo2":-87.6739,"dy":0.0162,"dx":0.0183,"nx":112,"ny":82,"refTime":"2023-02-28T06:00:00:Z","depth":0,"parameterNumber":2,"parameterNumberName":"U-component_of_WINDS"},"data":[0.0,0.0,0.0,0.0,0.0,0.0,0.0,0.0,0.0,0.0,0.0,0.0,0.0,0.0,0.0,0.0,0.0,0.0,0.0,0.0,0.0,0.0,0.0,0.0,0.0,0.0,0.0,0.0,0.0,0.0,0.0,0.0,0.0,0.0,0.0,0.0,0.0,0.0,0.0,0.0,0.0,0.0,0.0,0.0,0.0,0.0,0.0,0.0,0.0,0.0,0.0,0.0,0.0,0.0,0.0,0.0,0.0,0.0,0.0,0.0,0.0,0.0,0.0,0.0,0.0,0.0,0.0,0.0,0.0,0.0,0.0,0.0,0.0,0.0,0.0,0.0,0.0,0.0,0.0,0.0,0.0,0.0,0.0,0.0,0.0,0.0,0.0,0.0,0.0,0.0,3.6694,3.7436,3.8975,3.9969,3.9918,3.9952,3.9244,3.7564,0.0,0.0,0.0,0.0,0.0,0.0,0.0,0.0,0.0,0.0,0.0,0.0,0.0,0.0,0.0,0.0,0.0,0.0,0.0,0.0,0.0,0.0,0.0,0.0,0.0,0.0,0.0,0.0,0.0,0.0,0.0,0.0,0.0,0.0,0.0,0.0,0.0,0.0,0.0,0.0,0.0,0.0,0.0,0.0,0.0,0.0,0.0,0.0,0.0,0.0,0.0,0.0,0.0,0.0,0.0,0.0,0.0,0.0,0.0,0.0,0.0,0.0,0.0,0.0,0.0,0.0,0.0,0.0,0.0,0.0,0.0,0.0,0.0,0.0,0.0,0.0,0.0,0.0,0.0,0.0,0.0,0.0,0.0,0.0,0.0,0.0,0.0,0.0,0.0,0.0,0.0,0.0,0.0,0.0,0.0,0.0,0.0,0.0,0.0,0.0,0.0,0.0,0.0,0.0,3.7397,3.8725,3.9179,3.9289,3.9158,3.9292,3.8259,3.5789,0.0,0.0,0.0,0.0,0.0,0.0,0.0,0.0,0.0,0.0,0.0,0.0,0.0,0.0,0.0,0.0,0.0,0.0,0.0,0.0,0.0,0.0,0.0,0.0,0.0,0.0,0.0,0.0,0.0,0.0,0.0,0.0,0.0,0.0,0.0,0.0,0.0,0.0,0.0,0.0,0.0,0.0,0.0,0.0,0.0,0.0,0.0,0.0,0.0,0.0,0.0,0.0,0.0,0.0,0.0,0.0,0.0,0.0,0.0,0.0,0.0,0.0,0.0,0.0,0.0,0.0,0.0,0.0,0.0,0.0,0.0,0.0,0.0,0.0,0.0,0.0,0.0,0.0,0.0,0.0,0.0,0.0,0.0,0.0,0.0,0.0,0.0,0.0,0.0,0.0,0.0,0.0,0.0,0.0,0.0,0.0,0.0,0.0,0.0,0.0,0.0,0.0,0.0,3.5386,3.6686,3.8092,3.881,3.9179,3.9124,3.9443,3.8703,3.6352,3.6258,0.0,0.0,0.0,0.0,0.0,0.0,0.0,0.0,0.0,0.0,0.0,0.0,0.0,0.0,0.0,0.0,0.0,0.0,0.0,0.0,0.0,0.0,0.0,0.0,0.0,0.0,0.0,0.0,0.0,0.0,0.0,0.0,0.0,0.0,0.0,0.0,0.0,0.0,0.0,0.0,0.0,0.0,0.0,0.0,0.0,0.0,0.0,0.0,0.0,0.0,0.0,0.0,0.0,0.0,0.0,0.0,0.0,0.0,0.0,0.0,0.0,0.0,0.0,0.0,0.0,0.0,0.0,0.0,0.0,0.0,0.0,0.0,0.0,0.0,0.0,0.0,0.0,0.0,0.0,0.0,0.0,0.0,0.0,0.0,0.0,0.0,0.0,0.0,0.0,0.0,0.0,0.0,0.0,0.0,0.0,0.0,0.0,0.0,0.0,0.0,0.0,0.0,3.5457,3.6232,3.7291,3.8254,3.881,3.8974,3.9295,3.8764,3.7023,3.6393,0.0,0.0,0.0,0.0,0.0,0.0,0.0,0.0,0.0,0.0,0.0,0.0,0.0,0.0,0.0,0.0,0.0,0.0,0.0,0.0,0.0,0.0,0.0,0.0,0.0,0.0,0.0,0.0,0.0,0.0,0.0,0.0,0.0,0.0,0.0,0.0,0.0,0.0,0.0,0.0,0.0,0.0,0.0,0.0,0.0,0.0,0.0,0.0,0.0,0.0,0.0,0.0,0.0,0.0,0.0,0.0,0.0,0.0,0.0,0.0,0.0,0.0,0.0,0.0,0.0,0.0,0.0,0.0,0.0,0.0,0.0,0.0,0.0,0.0,0.0,0.0,0.0,0.0,0.0,0.0,0.0,0.0,0.0,0.0,0.0,0.0,0.0,0.0,0.0,0.0,0.0,0.0,0.0,0.0,0.0,0.0,0.0,0.0,0.0,0.0,0.0,0.0,3.6805,3.7306,3.7401,3.7476,3.7738,3.8351,3.7911,3.7261,3.6515,3.5807,0.0,0.0,0.0,0.0,0.0,0.0,0.0,0.0,0.0,0.0,0.0,0.0,0.0,0.0,0.0,0.0,0.0,0.0,0.0,0.0,0.0,0.0,0.0,0.0,0.0,0.0,0.0,0.0,0.0,0.0,0.0,0.0,0.0,0.0,0.0,0.0,0.0,0.0,0.0,0.0,0.0,0.0,0.0,0.0,0.0,0.0,0.0,0.0,0.0,0.0,0.0,0.0,0.0,0.0,0.0,0.0,0.0,0.0,0.0,0.0,0.0,0.0,0.0,0.0,0.0,0.0,0.0,0.0,0.0,0.0,0.0,0.0,0.0,0.0,0.0,0.0,0.0,0.0,0.0,0.0,0.0,0.0,0.0,0.0,0.0,0.0,0.0,0.0,0.0,0.0,0.0,0.0,0.0,0.0,0.0,0.0,0.0,0.0,0.0,0.0,0.0,0.0,3.6038,3.6364,3.6784,3.7178,3.746,3.7738,3.7911,3.7492,3.6479,0.0,0.0,0.0,0.0,0.0,0.0,0.0,0.0,0.0,0.0,0.0,0.0,0.0,0.0,0.0,0.0,0.0,0.0,0.0,0.0,0.0,0.0,0.0,0.0,0.0,0.0,0.0,0.0,0.0,0.0,0.0,0.0,0.0,0.0,0.0,0.0,0.0,0.0,0.0,0.0,0.0,0.0,0.0,0.0,0.0,0.0,0.0,0.0,0.0,0.0,0.0,0.0,0.0,0.0,0.0,0.0,0.0,0.0,0.0,0.0,0.0,0.0,0.0,0.0,0.0,0.0,0.0,0.0,0.0,0.0,0.0,0.0,0.0,0.0,0.0,0.0,0.0,0.0,0.0,0.0,0.0,0.0,0.0,0.0,0.0,0.0,0.0,0.0,0.0,0.0,0.0,0.0,0.0,0.0,0.0,0.0,0.0,0.0,0.0,0.0,0.0,0.0,3.5953,3.6045,3.6214,3.669,3.6832,3.6937,3.6937,3.7575,3.7519,3.6385,0.0,0.0,0.0,0.0,0.0,0.0,0.0,0.0,0.0,0.0,0.0,0.0,0.0,0.0,0.0,0.0,0.0,0.0,0.0,0.0,0.0,0.0,0.0,0.0,0.0,0.0,0.0,0.0,0.0,0.0,0.0,0.0,0.0,0.0,0.0,0.0,0.0,0.0,0.0,0.0,0.0,0.0,0.0,0.0,0.0,0.0,0.0,0.0,0.0,0.0,0.0,0.0,0.0,0.0,0.0,0.0,0.0,0.0,0.0,0.0,0.0,0.0,0.0,0.0,0.0,0.0,0.0,0.0,0.0,0.0,0.0,0.0,0.0,0.0,0.0,0.0,0.0,0.0,0.0,0.0,0.0,0.0,0.0,0.0,0.0,0.0,0.0,0.0,0.0,0.0,0.0,0.0,0.0,0.0,0.0,0.0,0.0,0.0,0.0,0.0,0.0,0.0,3.7113,3.7189,3.7189,3.7189,3.6481,3.5973,3.5973,3.6758,3.6914,0.0,0.0,0.0,0.0,0.0,0.0,0.0,0.0,0.0,0.0,0.0,0.0,0.0,0.0,0.0,0.0,0.0,0.0,0.0,0.0,0.0,0.0,0.0,0.0,0.0,0.0,0.0,0.0,0.0,0.0,0.0,0.0,0.0,0.0,0.0,0.0,0.0,0.0,0.0,0.0,0.0,0.0,0.0,0.0,0.0,0.0,0.0,0.0,0.0,0.0,0.0,0.0,0.0,0.0,0.0,0.0,0.0,0.0,0.0,0.0,0.0,0.0,0.0,0.0,0.0,0.0,0.0,0.0,0.0,0.0,0.0,0.0,0.0,0.0,0.0,0.0,0.0,0.0,0.0,0.0,0.0,0.0,0.0,0.0,0.0,0.0,0.0,0.0,0.0,0.0,0.0,0.0,0.0,0.0,0.0,0.0,0.0,0.0,0.0,0.0,0.0,0.0,0.0,3.6295,3.6326,3.6326,3.6326,3.6158,3.5973,3.5973,3.6219,3.6298,3.6211,0.0,0.0,0.0,0.0,0.0,0.0,0.0,0.0,0.0,0.0,0.0,0.0,0.0,0.0,0.0,0.0,0.0,0.0,0.0,0.0,0.0,0.0,0.0,0.0,0.0,0.0,0.0,0.0,0.0,0.0,0.0,0.0,0.0,0.0,0.0,0.0,0.0,0.0,0.0,0.0,0.0,0.0,0.0,0.0,0.0,0.0,0.0,0.0,0.0,0.0,0.0,0.0,0.0,0.0,0.0,0.0,0.0,0.0,0.0,0.0,0.0,0.0,0.0,0.0,0.0,0.0,0.0,0.0,0.0,0.0,0.0,0.0,0.0,0.0,0.0,0.0,0.0,0.0,0.0,0.0,0.0,0.0,0.0,0.0,0.0,0.0,0.0,0.0,0.0,0.0,0.0,0.0,0.0,0.0,0.0,0.0,0.0,0.0,0.0,0.0,0.0,0.0,3.6368,3.6546,3.6713,3.6793,3.6485,3.6254,3.6254,3.6432,3.6481,3.6608,0.0,0.0,0.0,0.0,0.0,0.0,0.0,0.0,0.0,0.0,0.0,0.0,0.0,0.0,0.0,0.0,0.0,0.0,0.0,0.0,0.0,0.0,0.0,0.0,0.0,0.0,0.0,0.0,0.0,0.0,0.0,0.0,0.0,0.0,0.0,0.0,0.0,0.0,0.0,0.0,0.0,0.0,0.0,0.0,0.0,0.0,0.0,0.0,0.0,0.0,0.0,0.0,0.0,0.0,0.0,0.0,0.0,0.0,0.0,0.0,0.0,0.0,0.0,0.0,0.0,0.0,0.0,0.0,0.0,0.0,0.0,0.0,0.0,0.0,0.0,0.0,0.0,0.0,0.0,0.0,0.0,0.0,0.0,0.0,0.0,0.0,0.0,0.0,0.0,0.0,0.0,0.0,0.0,0.0,0.0,0.0,0.0,0.0,0.0,0.0,0.0,0.0,3.6985,3.7397,3.7722,3.794,3.7246,3.6737,3.6737,3.7051,3.7231,3.7296,0.0,0.0,0.0,0.0,0.0,0.0,0.0,0.0,0.0,0.0,0.0,0.0,0.0,0.0,0.0,0.0,0.0,0.0,0.0,0.0,0.0,0.0,0.0,0.0,0.0,0.0,0.0,0.0,0.0,0.0,0.0,0.0,0.0,0.0,0.0,0.0,0.0,0.0,0.0,0.0,0.0,0.0,0.0,0.0,0.0,0.0,0.0,0.0,0.0,0.0,0.0,0.0,0.0,0.0,0.0,0.0,0.0,0.0,0.0,0.0,3.9219,3.8594,0.0,0.0,0.0,0.0,0.0,0.0,0.0,0.0,0.0,0.0,0.0,0.0,0.0,0.0,0.0,0.0,0.0,0.0,0.0,0.0,0.0,0.0,0.0,0.0,0.0,0.0,0.0,0.0,0.0,0.0,0.0,0.0,0.0,0.0,0.0,0.0,0.0,0.0,0.0,0.0,3.7346,3.7398,3.7488,3.7488,3.7353,3.7278,3.7278,3.7331,3.7481,3.778,3.8198,0.0,0.0,0.0,0.0,0.0,0.0,0.0,0.0,0.0,0.0,0.0,0.0,0.0,0.0,0.0,0.0,0.0,0.0,0.0,0.0,0.0,0.0,0.0,0.0,0.0,0.0,0.0,0.0,0.0,0.0,0.0,0.0,0.0,0.0,0.0,0.0,0.0,0.0,0.0,0.0,0.0,0.0,0.0,0.0,0.0,0.0,0.0,0.0,0.0,0.0,0.0,0.0,0.0,0.0,0.0,0.0,0.0,0.0,0.0,0.0,3.9709,0.0,0.0,0.0,0.0,0.0,0.0,0.0,0.0,0.0,0.0,0.0,0.0,0.0,0.0,0.0,0.0,0.0,0.0,0.0,0.0,0.0,0.0,0.0,0.0,0.0,0.0,0.0,0.0,0.0,0.0,0.0,0.0,0.0,0.0,0.0,0.0,0.0,0.0,0.0,0.0,3.7556,3.7758,3.7883,3.8022,3.8037,3.8037,3.8037,3.7805,3.7896,3.8463,3.8644,0.0,0.0,0.0,0.0,0.0,0.0,0.0,0.0,0.0,0.0,0.0,0.0,0.0,0.0,0.0,0.0,0.0,0.0,0.0,0.0,0.0,0.0,0.0,0.0,0.0,0.0,0.0,0.0,0.0,0.0,0.0,0.0,0.0,0.0,0.0,0.0,0.0,0.0,0.0,0.0,0.0,0.0,0.0,0.0,0.0,0.0,0.0,0.0,0.0,0.0,0.0,0.0,0.0,4.1593,4.1951,4.2018,4.2535,4.2809,4.2893,4.1673,4.1154,4.1216,4.0957,0.0,0.0,0.0,0.0,0.0,0.0,0.0,0.0,0.0,0.0,0.0,0.0,0.0,0.0,0.0,0.0,0.0,0.0,0.0,0.0,0.0,0.0,0.0,0.0,3.8406,3.8647,3.7883,0.0,0.0,0.0,0.0,0.0,0.0,0.0,0.0,0.0,0.0,0.0,3.7985,3.8417,3.8807,3.8978,3.9083,3.9143,3.9214,3.8666,3.8667,3.9328,3.9258,3.9309,0.0,0.0,0.0,0.0,0.0,0.0,0.0,0.0,0.0,0.0,0.0,0.0,0.0,0.0,0.0,0.0,0.0,0.0,0.0,0.0,0.0,0.0,0.0,0.0,0.0,0.0,0.0,0.0,0.0,0.0,0.0,0.0,3.8355,3.8438,0.0,0.0,0.0,0.0,0.0,0.0,0.0,0.0,0.0,0.0,0.0,0.0,0.0,4.1137,4.1137,4.1989,4.2416,4.2416,4.2518,4.2672,4.2756,4.2859,4.3012,4.3212,4.3054,0.0,4.2854,4.2854,0.0,0.0,0.0,0.0,0.0,0.0,0.0,0.0,0.0,0.0,0.0,0.0,0.0,0.0,0.0,0.0,0.0,0.0,0.0,0.0,0.0,0.0,3.8527,3.9035,3.9215,3.926,0.0,3.8436,3.7827,3.7707,3.8105,0.0,0.0,0.0,0.0,0.0,0.0,0.0,3.9155,3.9738,4.0142,4.0142,4.0725,4.113,4.1279,4.0529,4.0272,4.0724,4.0435,3.9881,3.9176,3.9481,0.0,0.0,0.0,0.0,0.0,0.0,0.0,0.0,0.0,0.0,0.0,0.0,0.0,0.0,0.0,0.0,0.0,0.0,0.0,0.0,0.0,0.0,0.0,0.0,0.0,0.0,0.0,0.0,0.0,3.7785,3.7986,3.8589,3.8254,3.812,0.0,0.0,0.0,0.0,0.0,0.0,0.0,0.0,0.0,4.0453,4.081,4.1235,4.1646,4.151,4.1714,4.2192,4.2091,4.2091,4.2209,4.262,4.2911,4.308,4.3629,4.3886,4.3902,4.3519,4.3395,4.3328,0.0,0.0,0.0,0.0,4.2233,4.2072,4.176,4.186,4.2069,4.1872,0.0,0.0,0.0,0.0,0.0,0.0,0.0,0.0,0.0,0.0,3.9571,3.9727,4.0139,4.0427,4.0184,4.0016,3.964,0.0,3.8607,3.8462,3.8392,0.0,0.0,0.0,0.0,3.9963,3.9963,4.0546,4.095,4.095,4.1205,4.1445,4.1656,4.1325,4.1249,4.1559,4.161,4.149,4.114,4.0798,4.0394,0.0,0.0,0.0,0.0,0.0,0.0,0.0,0.0,0.0,0.0,0.0,0.0,0.0,0.0,0.0,0.0,0.0,0.0,0.0,0.0,0.0,0.0,0.0,0.0,0.0,0.0,0.0,0.0,3.8214,3.8301,3.904,3.8888,3.8941,0.0,0.0,0.0,0.0,0.0,0.0,4.0661,4.1167,4.1148,4.0551,4.0722,4.1233,4.202,4.1527,4.1783,4.2671,4.2518,4.2535,4.2586,4.31,4.3391,4.358,4.4268,4.4681,4.4732,4.4292,4.4115,4.4049,4.39,4.3783,4.3732,4.327,4.3141,4.3203,4.2947,4.321,4.3539,4.3153,4.2574,4.1957,4.1422,0.0,0.0,0.0,0.0,3.9343,3.9722,4.0073,4.0257,4.0046,4.0601,4.1145,4.0781,4.092,4.0891,0.0,3.9514,3.9155,3.9155,0.0,0.0,3.923,3.9858,4.0397,4.0397,4.0831,4.113,4.113,4.1429,4.1791,4.2002,4.2002,4.2077,4.2317,4.2485,4.2515,4.2515,4.1881,4.146,4.128,0.0,0.0,0.0,0.0,0.0,0.0,0.0,0.0,0.0,0.0,0.0,0.0,0.0,0.0,0.0,0.0,0.0,0.0,0.0,0.0,0.0,0.0,0.0,0.0,0.0,0.0,0.0,0.0,0.0,4.0682,4.0062,0.0,0.0,0.0,0.0,4.2501,4.1938,4.1596,4.1511,4.0912,4.0568,4.0485,4.1069,4.1801,4.2655,4.3267,4.4036,4.5005,4.4915,4.4969,4.5216,4.511,4.5127,4.5267,4.5354,4.5407,4.5563,4.5631,4.5648,4.5648,4.5665,4.5648,4.5648,4.5321,4.5537,4.5879,4.5546,4.5707,4.6106,4.6089,4.468,4.3023,4.2957,4.1158,0.0,0.0,3.9525,3.9161,3.9829,4.0026,4.0041,4.0011,4.0383,4.0721,4.0691,4.0559,4.0606,0.0,4.125,4.1235,4.1235,0.0,4.1265,4.1235,4.0756,4.0397,4.0397,4.0427,4.0442,4.0442,4.1564,4.2543,4.294,4.2803,4.2788,4.3227,4.2453,4.2045,4.2045,4.2014,4.1696,4.1058,4.0982,0.0,0.0,0.0,0.0,0.0,0.0,0.0,0.0,0.0,0.0,0.0,0.0,0.0,0.0,0.0,0.0,0.0,0.0,0.0,0.0,0.0,0.0,0.0,0.0,0.0,0.0,0.0,0.0,4.0875,4.0707,0.0,4.1222,4.1256,4.1205,4.1036,4.1325,4.124,4.078,4.1494,4.1648,4.112,4.1954,4.2809,4.3614,4.3131,4.3403,4.4367,4.4331,4.4314,4.4437,4.5041,4.5371,4.5441,4.6011,4.6342,4.6429,4.7021,4.6673,4.577,4.577,4.577,4.577,4.5494,4.5508,4.5589,4.506,4.5284,4.5577,4.4789,4.3679,4.2591,4.2125,4.1313,4.0588,4.0843,4.0738,4.0603,4.1006,4.1309,4.1505,4.1273,4.1791,4.2316,4.1957,4.2136,4.2357,4.2596,4.1609,4.0756,4.0756,4.11,4.1235,4.0816,4.1265,4.1669,4.1669,4.2402,4.291,4.291,4.3718,4.4404,4.4644,4.4644,4.4644,4.4978,4.4592,4.418,4.3927,4.3348,4.2818,4.2288,4.2288,4.1741,0.0,0.0,0.0,0.0,0.0,0.0,0.0,0.0,0.0,0.0,0.0,0.0,0.0,0.0,0.0,0.0,0.0,0.0,0.0,0.0,0.0,0.0,0.0,0.0,0.0,4.0157,4.0651,4.1191,4.1146,4.1131,4.1401,4.1339,4.1256,4.1324,4.1579,4.1716,4.1495,4.2296,4.2467,4.1904,4.2792,4.3666,4.4439,4.404,4.4297,4.5245,4.5138,4.5192,4.5245,4.5868,4.6146,4.6234,4.6859,4.7138,4.7226,4.7765,4.749,4.6552,4.6552,4.6552,4.6552,4.6377,4.6427,4.6525,4.6153,4.6034,4.5939,4.5075,4.3992,4.2906,4.2421,4.1971,4.1596,4.1596,4.1596,4.1641,4.2032,4.2349,4.2543,4.2607,4.3178,4.3633,4.3341,4.3603,4.3988,4.3988,4.2761,4.1728,4.1728,4.2267,4.2476,4.1818,4.2462,4.294,4.2716,4.3449,4.3988,4.3988,4.4653,4.5221,4.5369,4.545,4.5703,4.6108,4.5814,4.5505,4.5483,4.4671,4.3925,4.332,4.2545,4.164,4.0367,0.0,0.0,0.0,0.0,0.0,0.0,0.0,0.0,0.0,0.0,0.0,0.0,0.0,0.0,0.0,0.0,0.0,0.0,0.0,0.0,0.0,0.0,0.0,4.07,4.1364,4.1871,4.1722,4.1412,4.142,4.1892,4.1591,4.2056,4.3552,4.2923,4.2926,4.3816,4.3218,4.286,4.286,4.3594,4.4436,4.5245,4.6072,4.6921,4.7865,4.7657,4.7675,4.7934,4.7726,4.7687,4.7799,4.7799,4.791,4.802,4.802,4.8112,4.8186,4.8116,4.8082,4.8082,4.8082,4.8387,4.8776,4.888,4.8192,4.7257,4.7223,4.5811,4.4128,4.4112,4.3079,4.1999,4.194,4.1955,4.2107,4.2773,4.297,4.3152,4.3804,4.4297,4.4619,4.4619,4.4937,4.5289,4.5289,4.4796,4.4377,4.4347,4.487,4.508,4.4436,4.4347,0.0,4.3479,4.3404,4.3419,4.3404,4.4243,4.481,4.505,4.5273,4.5706,4.6619,4.6049,4.5894,4.6284,4.5703,4.4922,4.3895,4.1751,4.0124,3.9249,0.0,0.0,0.0,0.0,0.0,0.0,0.0,0.0,0.0,0.0,0.0,0.0,0.0,0.0,0.0,0.0,0.0,0.0,0.0,0.0,0.0,4.2003,4.2216,4.1282,4.1555,4.1799,4.1849,4.1937,4.21,4.2323,4.2258,4.2431,4.3012,4.2842,4.2808,4.3082,4.4007,4.4523,4.4523,4.5917,4.6763,4.7024,4.6992,4.7141,4.7403,4.8285,4.8737,4.889,5.0,5.0556,5.0617,5.0617,5.0617,5.0678,5.0678,5.0352,4.9759,4.856,4.8082,4.8082,4.8082,4.8058,4.8002,4.7945,4.7201,4.6269,4.5975,4.5191,4.4219,4.4067,4.3701,4.3517,4.3754,4.3874,4.3946,4.4464,4.4644,4.4689,4.4869,4.4982,4.5117,4.5117,4.517,4.5289,4.5289,4.5544,4.5618,4.511,4.517,4.5229,4.505,4.5035,0.0,4.5041,4.5417,4.5604,4.5314,4.5889,4.6379,4.6462,4.6544,4.6817,4.7539,4.7402,4.7256,4.7033,4.6834,4.5824,4.3958,4.1514,4.0216,0.0,0.0,0.0,0.0,0.0,0.0,0.0,0.0,0.0,0.0,0.0,0.0,0.0,0.0,0.0,0.0,0.0,0.0,0.0,0.0,0.0,0.0,4.2625,4.2789,4.2582,4.2468,4.2433,4.2522,4.2453,4.2528,4.2923,4.2754,4.2944,4.3768,4.3819,4.4093,4.4797,4.5746,4.6264,4.6264,4.7434,4.8225,4.8535,4.8614,4.8804,4.9112,4.9818,5.0243,5.0383,5.1315,5.1788,5.1912,5.1912,5.1912,5.1912,5.1912,5.1655,0.0,0.0,0.0,0.0,0.0,4.9447,4.8877,4.8855,4.7664,4.6144,4.5936,4.511,4.4127,4.4065,4.3988,4.4109,4.4523,4.4609,4.4755,4.5552,4.5723,4.5798,4.6067,4.6142,4.6142,4.6142,4.6142,4.6142,4.6142,4.6456,0.0,4.6576,4.6322,4.6037,4.5768,4.5963,4.6226,4.6326,4.6881,4.7327,4.7407,4.784,4.8082,4.8082,4.791,0.0,0.0,0.0,4.7106,4.6162,4.5794,0.0,0.0,0.0,3.99,3.9559,3.8628,0.0,0.0,3.6439,3.5744,0.0,0.0,0.0,0.0,0.0,0.0,0.0,0.0,0.0,0.0,0.0,0.0,0.0,0.0,0.0,0.0,4.3231,4.321,4.3879,4.3608,4.33,4.342,4.2986,4.2991,4.3724,4.3422,4.3784,4.5348,4.5488,4.6161,4.7648,4.7786,0.0,0.0,0.0,4.921,4.9889,5.0471,5.1014,5.1663,5.1622,5.1736,5.2049,5.193,5.2107,5.2354,5.2416,5.2416,5.2416,5.2416,5.2416,5.2398,5.2104,5.164,5.1142,5.1916,5.1527,5.056,5.0481,0.0,0.0,4.65,4.5462,4.42,4.42,4.42,4.4258,4.475,4.4851,4.5056,4.6097,4.6486,4.6696,4.7279,4.7474,4.7534,4.7534,4.7534,4.7534,4.7534,4.7534,4.7713,4.8297,4.7863,4.7249,4.6741,4.7145,4.7605,4.7605,4.8115,4.8773,4.9284,0.0,0.0,4.9581,4.9213,4.9413,5.0258,4.8365,4.6432,4.4876,4.3916,4.2683,4.1204,4.0418,3.9673,3.8802,3.8802,3.8802,3.8762,3.7576,3.6933,0.0,0.0,0.0,0.0,0.0,0.0,0.0,0.0,0.0,0.0,0.0,0.0,0.0,0.0,0.0,4.3495,4.3115,4.2896,4.3306,4.3709,4.3833,4.3579,4.3902,4.4296,4.4829,4.522,4.5925,4.7145,4.7214,4.7351,4.77,4.8286,4.8833,4.932,5.0,5.0695,5.1343,5.131,5.1401,5.1554,0.0,0.0,5.2244,5.2986,5.3341,5.3406,5.3601,5.3682,5.3682,5.3682,5.3746,5.3673,5.2578,5.2071,5.1968,5.2166,5.1475,5.0341,4.9824,4.8615,4.7233,4.6517,4.603,4.5727,4.5581,4.5501,0.0,4.6056,4.6252,4.6349,4.6905,4.7519,4.7938,4.8072,4.8506,4.888,4.888,4.888,4.888,4.888,4.888,4.8925,4.906,4.8536,4.8237,4.8641,4.8969,4.9236,4.9428,4.9695,4.9865,4.9656,4.9625,4.9696,4.9696,4.9573,4.9873,5.0565,4.9957,4.889,4.7259,4.5689,4.4138,4.2683,4.1107,4.0281,4.0094,4.0094,4.0094,4.0067,3.8802,3.8129,0.0,0.0,0.0,0.0,0.0,0.0,0.0,0.0,0.0,0.0,0.0,4.3906,4.3339,0.0,4.3473,4.3798,4.3347,4.3283,4.4192,4.412,4.3914,4.3795,4.4678,4.5397,4.5726,4.643,4.7275,4.8161,4.85,4.8879,4.924,4.9862,5.0386,5.0703,5.1018,5.1458,5.2162,5.197,5.2092,5.2499,5.2789,5.2958,5.3024,5.3464,5.3766,5.3849,5.398,5.4045,5.411,5.3832,5.3516,5.3129,5.2453,5.2445,5.2738,5.238,5.1547,5.0724,5.0397,4.932,4.8036,4.7523,4.6951,4.6349,4.6284,4.6123,4.6031,4.6448,4.6885,4.7207,4.771,4.8282,4.8775,4.8775,4.903,4.9269,4.9269,4.9269,4.9269,4.9269,4.9269,4.9374,4.9703,4.9569,4.9434,4.9434,4.9524,4.9823,5.0454,5.0573,5.075,5.0854,5.0854,5.0854,5.0854,5.0927,5.0808,5.0349,4.9539,4.8324,4.6688,4.4541,4.3072,4.2395,4.0992,4.0334,4.0334,4.0334,4.0334,4.0334,3.9748,3.9283,0.0,0.0,0.0,0.0,0.0,0.0,0.0,4.3776,4.4155,4.4056,4.4212,4.4367,4.4196,4.4095,4.4028,4.4179,4.3765,4.3945,4.5318,4.5026,4.465,4.4622,4.5631,4.6473,4.6777,4.7571,4.8402,4.9143,4.9646,5.024,5.0935,5.1446,5.1731,5.1867,5.1758,5.2068,5.2768,5.2619,5.2858,5.3501,5.3501,5.3551,5.3651,5.3717,5.3783,5.3915,5.398,5.411,5.4222,5.3798,5.3146,5.242,5.2262,5.2507,5.2889,5.242,5.1685,5.0961,5.0961,4.9953,4.8616,4.8541,4.7715,4.6827,4.6747,4.6422,4.623,4.6605,4.7237,4.7869,4.8235,4.8865,4.9449,4.9449,4.9553,4.9643,4.9643,4.9643,4.9643,4.9643,4.9643,4.9808,5.0331,5.0697,5.0608,5.0065,5.0079,5.0366,5.1197,5.1273,5.1576,5.2124,5.2185,5.2018,5.1698,5.1835,5.1151,4.9542,4.8346,4.7016,4.5268,4.3273,4.2167,4.1854,4.1206,4.0775,4.0775,4.0775,4.0775,4.0775,4.0775,4.056,4.2381,4.2908,4.3444,4.413,4.4255,4.4192,0.0,4.4429,4.4446,4.4463,4.4592,4.4703,4.4519,4.4033,4.3851,4.4345,4.4378,4.4727,4.584,4.6867,4.7376,4.7146,4.7067,4.7466,4.8437,4.9079,4.9759,5.0498,5.0635,5.0969,5.1555,5.1674,5.197,5.2459,5.2493,5.2785,5.3365,5.3382,5.3416,5.3501,5.3501,5.3501,5.3501,5.3668,5.37,5.3766,5.4045,5.4303,5.4431,5.4367,5.3946,5.3163,5.2491,5.1865,5.1401,5.1993,5.1475,5.0514,5.0514,4.9647,4.8538,4.8208,4.7973,4.7737,4.7327,4.7171,4.7186,4.7174,4.7668,4.8192,4.8267,4.9209,5.0137,5.0137,5.0571,5.1005,5.1005,5.1005,5.1005,5.1005,5.1005,5.1113,5.1374,5.1482,5.1452,5.1376,5.1713,5.2017,5.2184,5.2395,5.2531,5.2608,5.2624,5.1986,5.05,5.044,4.9682,4.7811,4.7507,4.6747,4.5147,4.4801,4.3987,4.2792,4.2627,4.2587,4.2587,4.2587,4.2587,4.2587,4.2587,4.1731,4.3045,4.3705,4.4275,4.4558,4.4626,4.4609,4.4682,4.4776,4.4742,4.4703,4.4869,4.4978,4.4797,4.4596,4.4575,4.5247,4.5292,4.5773,4.7003,4.7342,4.7783,4.8655,4.8665,4.8614,4.8667,4.9656,5.048,5.0789,5.1463,5.1987,5.2183,5.2561,5.2887,5.3143,5.3094,5.3246,5.3501,5.3501,5.3501,5.3501,5.3501,5.3501,5.3501,5.3668,5.35,5.3196,5.3466,5.3094,5.2366,5.2454,5.2082,5.1369,5.0995,5.0631,5.0432,5.0783,5.0538,5.0104,4.9852,4.939,4.8949,4.8453,4.8218,4.7964,4.781,4.7553,4.7309,4.7309,4.8057,4.885,4.885,4.9823,5.081,5.081,5.102,5.1214,5.1214,5.1214,5.1214,5.1214,5.1308,5.1494,5.1587,5.1849,5.2033,5.2033,5.22,5.2397,5.2503,5.2608,5.2713,5.2713,5.2713,5.2411,5.1713,5.0743,4.9834,4.9075,4.7239,4.5888,4.5186,4.4098,4.3242,4.2706,4.2484,4.2387,4.2387,4.2387,4.2387,4.2387,4.2387,4.2021,4.3736,4.4258,4.4626,4.4626,4.4737,4.4831,4.4831,4.4978,4.5032,4.494,4.5086,4.5247,4.514,4.5257,4.5473,4.5925,4.6312,4.6958,4.7971,4.7995,4.8442,4.9845,4.9898,4.9761,4.9495,5.0438,5.1097,5.1302,5.2111,5.2649,5.2853,5.3263,5.3501,5.3501,5.3501,5.3501,5.3501,5.3501,5.3501,5.3501,5.3501,5.3433,5.3264,5.3162,5.2922,5.2557,5.275,5.217,5.122,5.1369,5.0951,5.0214,5.0214,5.0073,4.9916,4.9916,4.9916,4.9852,4.9597,4.9437,4.9356,4.8949,4.8537,4.8133,4.8049,4.7639,4.7309,4.7309,4.8252,4.9269,4.9269,5.0242,5.1214,5.1308,5.1308,5.1308,5.1416,5.1416,5.1416,5.1416,5.1602,5.168,5.1757,5.2033,5.2306,5.2397,5.2397,5.2503,5.2713,5.2713,5.2713,5.2713,5.2713,5.2531,5.2046,5.0455,4.9319,4.885,4.6215,4.462,4.462,4.3382,4.2595,4.2595,4.2387,4.2275,4.2275,4.2275,4.2275,4.2275,4.2275,4.2275,4.4592,4.4553,4.4626,4.4776,4.4793,4.4831,4.4978,4.5086,4.5177,4.5177,4.53,4.5371,4.5371,4.5866,4.6254,4.6272,4.741,4.8384,4.8535,4.9193,4.9931,5.0686,5.0772,5.1003,5.1538,5.1657,5.1936,5.2493,5.2595,5.2887,5.3433,5.3501,5.3501,5.3501,5.3501,5.3501,5.3501,5.3501,5.3501,5.3501,5.3501,5.3195,5.259,5.2004,5.1858,5.2059,5.2059,5.2098,5.2191,5.2191,5.172,5.1043,5.1043,5.0602,4.9916,4.9916,4.9916,4.9916,4.9931,4.9916,4.9836,4.9437,4.8934,4.8537,4.8133,4.7639,4.7309,4.7309,4.8252,4.9269,4.9269,5.0242,5.1308,5.1494,5.1587,5.168,5.1895,5.2002,5.2002,5.2002,5.1987,5.2078,5.2215,5.2291,5.2397,5.2624,5.2713,5.2713,5.2713,5.2713,5.2713,5.2713,5.2713,5.2046,5.041,4.882,4.7153,4.5514,4.3877,4.3011,4.3011,4.29,4.2887,4.2887,4.2887,4.2887,4.2887,4.2887,4.2887,4.2887,4.2887,4.2887,4.4587,4.4682,4.472,4.4776,4.4923,4.5086,4.514,4.5247,4.53,4.53,4.5713,4.6003,4.6003,4.6512,4.7067,4.7598,4.8111,4.8607,4.9262,4.9881,5.0429,5.0772,5.1531,5.2077,5.2269,5.2303,5.2405,5.2595,5.2957,5.3297,5.3501,5.3501,5.3501,5.3501,5.3501,5.3501,5.3501,5.3618,5.3668,5.3601,5.3213,5.2974,5.2905,5.2203,5.1696,5.1401,5.1401,5.1102,5.0691,5.0691,5.0493,5.0292,5.0292,5.0152,4.9916,4.9916,4.9916,4.9836,4.9597,4.9597,4.9597,4.9015,4.8702,4.8537,4.8286,4.7964,4.7794,4.7794,4.8588,4.9524,4.9524,5.0318,5.1214,5.1308,5.1494,5.1587,5.1695,5.1895,5.2002,5.2002,5.2063,5.2215,5.2306,5.2412,5.2608,5.2713,5.2713,5.2713,5.2713,5.2713,5.2713,5.2713,5.2713,5.2516,5.1895,4.9719,4.8122,4.7606,4.5038,4.3484,4.3484,4.309,4.2887,4.2887,4.2887,4.2887,4.2887,4.2887,4.2887,4.2887,4.2887,4.2887,4.4682,4.472,4.4831,4.494,4.5032,4.514,4.5247,4.53,4.5371,4.5371,4.5446,4.5533,4.5533,4.6197,4.6946,4.7496,4.8294,4.9,4.9639,5.024,5.0762,5.1079,5.2196,5.3056,5.3328,5.3279,5.3177,5.2923,5.3297,5.3501,5.3501,5.3501,5.3501,5.3551,5.3551,5.3618,5.3685,5.3783,5.3634,5.3399,5.2524,5.2153,5.2241,5.1533,5.1027,5.0663,5.0663,5.037,4.9916,4.9916,4.9916,4.9916,4.9916,4.9916,4.9916,4.9916,4.9916,4.9836,4.9597,4.9597,4.9597,4.9097,4.8867,4.8718,4.8469,4.8218,4.7964,4.7964,4.8747,4.9613,4.9613,5.0501,5.1401,5.1509,5.168,5.1849,5.1956,5.2155,5.2261,5.2261,5.2337,5.2412,5.2412,5.2608,5.2713,5.2713,5.2713,5.2713,5.2713,5.2713,5.2713,5.2713,5.2322,5.2109,5.2109,4.9654,4.8143,4.8143,4.5579,4.4108,4.4108,4.3742,4.3538,4.3538,4.3321,4.3199,4.3199,4.2995,4.2887,4.2887,4.2887,4.2887,4.4793,4.4865,4.4937,4.514,4.5121,4.5138,4.5318,4.53,4.5247,4.5422,4.4797,4.4259,4.4293,4.5269,4.6074,4.624,4.8107,4.9547,4.9759,5.0395,5.1106,5.1743,5.2932,5.399,5.4584,5.46,5.4296,5.3484,5.3433,5.3433,5.3501,5.3501,5.3551,5.37,5.3634,5.3783,5.3915,5.3915,5.3533,5.2786,5.1443,5.08,5.0783,5.0214,4.9916,4.9916,4.9916,4.9916,4.9916,4.9916,4.9916,4.9916,4.9916,4.9916,4.9916,4.9916,4.9916,4.9916,4.9916,4.9916,4.9836,4.9677,4.9291,4.8996,4.8718,4.837,4.8049,4.8049,4.8849,4.9613,4.9613,5.0593,5.168,5.1895,5.2155,5.2306,5.2608,5.2713,5.2713,5.2713,5.2713,5.2713,5.2713,5.2713,5.2713,5.2713,5.2713,5.2713,5.2713,5.2713,5.2713,5.2713,5.1804,5.1109,5.1109,4.8697,4.7207,4.7108,4.5623,4.4759,4.4759,4.4732,4.4705,4.4705,4.4122,4.3823,4.381,4.3253,4.2982,4.2982,4.2982,4.2982,4.4776,4.5333,4.5771,4.5223,4.5497,4.5863,4.5367,4.523,4.5348,4.5969,4.5411,4.5043,4.546,4.6146,4.6779,4.7027,4.8463,4.9736,5.0446,5.1062,5.1976,5.3246,5.3989,5.4517,5.4771,5.4669,5.4056,5.2727,5.2607,5.2834,5.3433,5.3025,5.306,5.37,5.3264,5.3043,5.3094,5.268,5.247,5.2333,5.1443,5.1027,5.1043,5.0214,4.9916,4.9916,4.9916,4.9916,4.9916,4.9916,4.9916,4.9916,4.9916,4.9916,4.9916,4.9916,4.9852,4.9677,4.9677,4.9757,4.9836,4.9677,4.9437,4.921,4.898,4.8718,4.8453,4.8453,4.9078,4.9864,4.9864,5.0593,5.1308,5.1416,5.1787,5.2078,5.217,5.2443,5.2713,5.2713,5.2713,5.2713,5.2713,5.2713,5.2713,5.2713,5.2713,5.2713,5.2713,5.2713,5.2713,5.2713,5.2427,5.2018,5.1218,4.9794,4.8651,4.7769,4.6256,4.537,4.537,4.4936,4.4705,4.4705,4.4542,4.4474,4.4461,4.4312,4.4244,4.4244,4.4244,4.4244,4.5278,4.5525,4.5668,4.5583,4.5579,4.5545,4.528,4.4961,4.4827,4.529,4.4524,4.3797,4.4098,4.5159,4.6172,4.6852,4.8118,4.9569,5.1106,5.1646,5.2109,5.274,5.404,5.4831,5.4744,5.4071,5.3551,5.3324,5.2957,5.2903,5.3025,5.2697,5.2836,5.3416,5.2767,5.247,5.2561,5.1882,5.1606,5.172,5.0951,5.0586,5.0586,5.0152,4.9916,4.9916,0.0,4.9916,4.9916,4.9916,4.9916,4.9916,4.9916,4.9916,4.9916,4.9836,4.9677,4.9597,4.9517,4.9437,4.9468,4.9372,4.9291,4.9144,4.8883,4.8718,4.8681,4.8989,4.958,5.019,5.0479,5.1061,5.1665,5.1665,5.1972,5.2261,5.2261,5.2533,5.2713,5.2713,5.2713,5.2713,5.2713,5.2713,5.2806,5.3114,5.316,5.3268,5.356,5.3083,5.2821,5.3129,5.2093,5.1244,5.0943,4.925,4.8021,4.7349,4.6441,4.5967,4.5967,4.5655,4.5478,4.5478,4.5221,4.5085,4.5085,4.4827,4.4705,4.4705,4.4705,4.4705,4.5764,4.5597,4.5306,4.5946,4.5525,4.5005,4.5157,4.4541,4.4047,4.427,4.3113,4.2044,4.2123,4.3538,4.5113,4.6241,4.7502,4.908,5.1481,5.1792,5.1765,5.1622,5.344,5.4605,5.4278,5.3262,5.3013,5.4006,5.377,5.3157,5.2383,5.257,5.2727,5.2836,5.2186,5.1898,5.1905,5.1236,5.0968,5.0968,5.031,5.0058,5.0058,5.0058,5.0058,5.0058,4.9963,4.9916,4.9916,4.9916,4.9916,4.9916,4.9916,4.9916,4.9836,4.9677,4.9597,4.9517,4.9356,4.9128,4.8914,4.8996,4.8996,4.8898,4.8702,4.862,4.8758,4.9481,4.9972,5.0441,5.1129,5.1802,5.2215,5.2215,5.2412,5.2624,5.2624,5.2713,5.2713,5.2713,5.2713,5.2713,5.2713,5.2713,5.2944,5.3622,5.3729,5.396,5.4637,5.353,5.2886,5.3469,5.1134,4.9799,5.0252,4.8038,4.6665,4.6469,4.6469,4.6469,4.6469,4.6469,4.6469,4.6469,4.5967,4.5709,4.5709,4.5193,4.4936,4.4936,4.4936,4.4936,4.5294,4.5726,4.5929,4.534,4.5486,4.558,4.5115,4.4502,4.4198,4.4842,4.3537,4.2572,4.3425,4.4034,4.4849,4.6366,4.7257,4.8448,5.0496,5.0466,5.0777,5.2359,5.2786,5.3016,5.3058,5.3258,5.288,5.1866,5.2965,5.3123,5.1672,5.2425,5.2474,5.1492,5.1327,5.0951,5.0276,5.0136,5.0152,5.0152,5.058,5.08,5.08,5.08,5.08,5.0769,5.0168,0.0,4.9916,4.9916,4.9916,4.9916,4.9916,4.9916,4.9836,4.9677,4.9517,4.9356,4.9144,4.8898,4.8718,4.8914,4.8816,4.862,4.862,4.862,4.8758,4.9481,4.9972,5.0441,5.1129,5.1637,5.2078,5.2078,5.2231,5.2397,5.2397,5.2518,5.2713,5.2713,5.2713,5.2713,5.2713,5.2713,5.2944,5.3622,5.3729,5.396,5.4637,5.3247,5.2322,5.2442,5.0751,4.9332,4.8566,4.7976,4.7349,4.6574,4.6469,4.6469,4.6469,4.6469,4.6469,4.6469,4.6374,4.6319,4.6319,4.6225,4.617,4.617,4.617,4.617,4.5549,4.5689,4.5726,4.5597,4.5431,4.5218,4.4716,4.4047,4.3465,4.3379,4.2584,4.2131,4.2629,4.3434,4.4454,4.6039,4.6571,4.748,4.9589,4.9899,5.0163,5.0801,5.1761,5.2231,5.1891,5.1995,5.1997,5.1821,5.3132,5.3221,5.1701,5.189,5.1502,5.0525,5.0448,5.0292,4.9916,4.9916,5.0105,5.0484,5.0816,5.1164,5.1512,5.1512,5.1306,5.0958,5.0611,5.0263,4.9916,4.9916,4.9916,4.9836,4.9677,4.9677,4.9677,4.9259,4.9128,4.9144,4.8883,4.8718,4.862,4.8718,4.8718,4.862,4.862,4.862,4.8835,4.9912,5.035,5.0723,5.1751,5.2198,5.2352,5.2352,5.2427,5.2503,5.2503,5.2608,5.2713,5.2713,5.2713,5.2713,5.2713,5.2713,5.2944,5.3622,5.4022,5.4483,5.5145,5.3233,5.2136,5.265,5.0359,4.8738,4.8573,4.7721,4.7053,4.6574,4.6469,4.6469,4.6469,4.6469,4.6469,4.6469,4.6469,4.6469,4.6469,4.6469,4.6469,4.6469,4.6469,4.6469,4.5754,4.5569,4.5314,4.5805,4.5367,4.472,4.4367,4.3621,4.2756,4.1869,4.1579,4.1541,4.1699,4.2817,4.4177,4.5672,4.5776,4.6405,4.849,4.9199,4.9459,4.9215,5.0621,5.1515,5.1213,5.1033,5.1316,5.2277,5.3099,5.3166,5.2181,5.1343,5.0509,4.9916,4.9916,4.9916,4.9916,4.9916,5.0279,5.0974,5.1132,5.1559,5.2238,5.208,5.1717,5.118,5.0879,5.0437,4.9916,4.9916,4.9836,4.9757,4.9437,4.9437,4.9452,4.8867,4.8816,4.8996,4.8702,4.862,4.862,4.862,4.862,4.862,4.862,4.862,4.8897,5.0297,5.0697,5.1005,5.2359,5.2713,5.2713,5.2713,5.2713,5.2713,5.2713,5.2713,5.2713,5.2713,5.2713,5.2713,5.2713,5.2713,5.2944,5.3622,5.4176,5.4745,5.5407,5.3083,5.1681,5.2501,4.9681,4.7926,4.8415,4.7238,4.6469,4.6469,4.6469,4.6469,4.6469,4.6469,4.6469,4.6469,4.6469,4.6469,4.6469,4.6469,4.6469,4.6469,4.6469,4.6469,4.5214,4.5352,4.5194,4.5262,4.5029,4.472,4.4367,4.341,4.2395,4.1788,4.1674,4.1714,4.2187,4.2955,4.4048,4.5434,4.5125,4.5263,4.6936,4.7356,4.8044,4.9426,4.9677,5.034,5.1533,5.1575,5.1858,5.2634,5.2329,5.2507,5.3142,5.1166,4.9995,4.9916,4.9916,4.9916,4.9916,4.9916,5.0279,5.099,5.1606,5.2302,5.2981,5.2317,5.197,5.1843,5.0579,4.9979,0.0,4.9916,4.9677,4.9356,4.9517,4.9372,4.9078,4.8996,4.8996,4.8996,4.8702,4.862,4.862,4.862,4.862,4.862,4.862,4.862,4.8897,5.0297,5.0697,5.1005,5.2359,5.2713,5.2713,5.2713,5.2713,5.2713,5.2713,5.2713,5.2713,5.2713,5.2713,5.2713,5.2713,5.2713,5.2944,5.3622,5.3775,5.4052,5.473,5.2412,5.0711,5.081,4.8327,4.6692,4.6746,4.6601,4.6469,4.6469,4.6469,4.6469,4.6469,4.6469,4.6469,4.6469,4.6469,4.6469,4.6469,4.6469,4.6469,4.6469,4.6469,4.6469,4.4917,4.53,4.5194,4.4742,4.4502,4.4071,4.3136,4.2395,4.1641,4.0873,4.0822,4.1262,4.1952,4.2409,4.3097,4.4417,4.4372,4.4465,4.5078,4.6423,4.7622,4.8542,4.9346,5.0243,5.1393,5.1769,5.2309,5.3427,5.255,5.2166,5.246,5.0834,4.9916,4.9916,4.9916,4.9916,4.9916,4.9916,5.0279,5.099,5.167,5.2159,5.2444,5.2602,5.2207,5.1353,5.08,5.0311,0.0,4.9757,4.9597,4.9437,4.9097,4.8965,4.8996,4.865,4.8635,4.8718,4.862,4.862,4.862,4.862,4.862,4.862,4.862,4.862,4.8897,5.0297,5.0697,5.1005,5.2359,5.2713,5.2713,5.2713,5.2713,5.2713,5.2713,5.2713,5.2713,5.2713,5.2713,5.2713,5.2713,5.2713,5.2806,5.3083,5.3452,5.3822,5.4083,5.2085,5.0624,5.0624,4.8094,4.6469,4.6469,4.6469,4.6469,4.6469,4.6469,4.6469,4.6469,4.6469,4.6469,4.6469,4.6469,4.6469,4.6469,4.6469,4.6469,4.6469,4.6469,4.6469,4.416,4.5069,4.5486,4.4327,4.4013,4.3597,4.23,4.1625,4.0992,4.0191,4.0296,4.0738,4.1501,4.1911,4.2414,4.3438,4.368,4.3817,4.3988,4.5757,4.734,4.8009,4.9173,5.0403,5.179,5.2356,5.3028,5.4024,5.2807,5.2017,5.2017,5.0674,4.9916,4.9916,4.9916,4.9916,4.9916,4.9916,5.0279,5.0974,5.1464,5.1812,5.2017,5.2167,5.1757,5.0796,5.0592,5.0149,0.0,4.9613,4.9517,4.9275,4.8867,4.8718,4.8733,4.8469,4.8453,4.862,4.862,4.862,4.862,4.862,4.862,4.862,4.862,4.8758,4.9174,5.0359,5.099,5.1513,5.2467,5.2713,5.2713,5.2713,5.2713,5.2713,5.2713,5.2713,5.2713,5.2713,5.2713,5.2713,5.2713,5.2713,5.2713,5.2713,5.281,5.3025,5.333,5.1335,4.9938,5.0235,4.7996,4.6469,4.6469,4.6469,4.6469,4.6469,4.6469,4.6469,4.6469,4.6469,4.6469,4.6469,4.6469,4.6469,4.6469,4.6469,4.6469,4.6469,4.6469,4.6469,4.2779,4.4597,4.61,4.3989,4.3614,4.3403,4.2236,4.1346,4.0569,4.0121,4.0239,4.0471,4.0691,4.1625,4.2434,4.2573,4.2974,4.3503,4.3895,4.5491,4.7057,4.8168,4.9268,5.0769,5.2902,5.3692,5.4087,5.4103,5.2807,5.2017,5.2017,5.0674,4.9916,4.9916,4.9916,4.9916,4.9916,4.9916,5.0279,5.0974,5.099,5.1353,5.1986,5.0881,5.0305,5.0258,4.9587,4.9225,0.0,4.9452,4.9194,4.862,4.8898,4.8733,4.8286,4.8537,4.862,4.862,4.862,4.862,4.862,4.862,4.862,4.862,4.862,4.9112,4.982,5.0497,5.1667,5.2698,5.2713,5.2713,5.2713,5.2713,5.2713,5.2713,5.2713,5.2713,5.2713,5.2713,5.2713,5.2713,5.2713,5.2713,5.2713,5.2713,5.1819,5.1512,5.2518,4.9984,4.841,4.9484,4.7731,4.6469,4.6469,4.6469,4.6469,4.6469,4.6469,4.6469,4.6469,4.6469,4.6469,4.6469,4.6469,4.6469,4.6469,4.6469,4.6469,4.6469,4.6469,4.6469,4.1563,4.26,4.3072,4.2298,4.2029,4.1772,4.0805,4.027,3.995,3.9625,3.9661,3.9873,4.0381,4.0875,4.1535,4.2361,4.2677,4.2962,4.3427,4.5425,4.713,4.7831,5.0379,5.2175,5.2333,5.3408,5.4103,5.4103,5.2807,5.2017,5.2017,5.0432,4.9597,4.9916,4.9916,4.9916,4.9916,4.9916,4.9867,4.9846,5.0316,5.0247,4.9683,4.9848,4.9724,4.9372,4.9171,4.9144,4.921,4.9225,4.9062,4.8898,4.88,4.8635,4.8537,4.862,4.862,4.862,4.862,4.862,4.862,4.862,4.862,4.862,4.862,4.9112,4.9928,5.1067,5.2021,5.2713,5.2713,5.2713,5.2713,5.2713,5.2713,5.2713,5.2713,5.2713,5.2713,5.2713,5.2713,5.2713,5.2713,5.2109,5.1619,5.1619,5.1311,5.1016,5.0653,4.9679,4.8894,4.851,4.7349,4.6469,4.6469,4.6469,4.6469,4.6469,4.6469,4.6469,4.6469,4.6469,4.6469,4.6469,4.6469,4.6469,4.6469,4.6469,4.6469,4.6469,4.6469,4.6469,3.9838,4.1209,4.1902,4.1067,4.0959,4.0878,4.0191,3.9783,3.9553,3.9424,3.9424,3.9544,4.0021,4.0437,4.1038,4.1971,4.2423,4.2889,4.3569,4.5611,4.7417,4.8666,5.0994,5.2379,5.1925,5.2895,5.3552,5.3552,5.2285,5.1487,5.1487,4.9941,4.9194,4.9437,4.9437,4.9437,4.9437,4.9437,4.9275,4.9031,4.9466,4.9269,4.862,4.8982,4.9035,4.8733,4.8816,4.8883,0.0,4.898,4.8914,4.8816,4.8702,4.862,4.862,4.862,4.862,4.862,4.862,4.862,4.862,4.862,4.862,4.8712,4.9235,4.9712,5.0359,5.1698,5.239,5.2713,5.2713,5.2713,5.2713,5.2713,5.2713,5.2713,5.2713,5.2713,5.2713,5.2713,5.2713,5.2608,5.2215,5.1512,5.1016,5.0624,5.0147,4.9858,4.9664,4.8894,4.831,4.8021,4.7053,4.6469,4.6469,4.6469,4.6469,4.6469,4.6469,4.6469,4.6469,4.6469,4.6469,4.6469,4.6469,4.6469,4.6469,4.6469,4.6469,4.6469,4.6469,4.6485,0.0,4.0224,4.204,4.015,4.0277,4.0659,4.0106,3.964,0.0,3.9424,3.9424,3.9481,3.961,4.0194,4.0827,4.152,4.2168,4.2965,4.4062,4.5882,4.7935,5.0319,5.1236,5.1621,5.1575,5.2236,5.2742,5.259,5.1374,5.0605,5.0559,4.9243,4.8537,4.8537,4.8537,4.8537,4.862,4.862,4.862,4.8537,4.862,4.862,4.8537,4.837,4.8301,0.0,4.8537,4.8453,4.837,4.8816,4.8816,4.862,4.862,4.862,4.862,4.862,4.862,4.862,4.862,4.862,4.862,4.862,4.862,4.8866,5.0266,5.0697,5.0974,5.2329,5.2713,5.2713,5.2713,5.2713,5.2713,5.2713,5.2713,5.2713,5.2713,5.2713,5.2713,5.2713,5.2624,5.2306,5.1311,5.1016,5.0529,4.9664,4.8596,4.831,4.9274,4.7731,4.6963,4.7833,4.7053,4.6469,4.6469,4.6469,4.6469,4.6469,4.6469,4.6469,4.6469,4.6469,4.6469,4.6469,4.6469,4.6496,4.6537,4.6537,4.6445,4.6485,4.6485,4.6437,3.652,0.0,3.9051,3.8994,3.9379,3.9737,0.0,3.9496,3.9424,3.9424,3.9424,3.9409,3.9481,3.9745,4.0133,4.0812,4.149,4.2379,4.3596,4.607,4.8453,5.0365,5.141,5.1785,5.1445,5.2312,5.263,5.2017,5.1113,5.0405,4.9897,4.8829,4.8133,4.8133,4.7794,4.7964,4.862,4.88,4.865,4.8133,4.8453,4.837,4.788,4.7964,4.8118,4.8286,4.837,4.8453,4.8537,4.862,4.862,4.862,4.862,4.862,4.862,4.862,4.862,4.862,4.862,4.862,4.862,4.862,4.862,4.8866,5.0266,5.0697,5.0974,5.2329,5.2713,5.2713,5.2713,5.2713,5.2713,5.2713,5.2713,5.2713,5.2713,5.2713,5.2713,5.2713,5.2018,5.1419,5.1109,4.9761,4.8596,4.841,4.8122,4.7833,4.7246,4.7438,4.7438,4.686,4.6665,4.6469,4.6469,4.6469,4.6469,4.6469,4.6469,4.6469,4.6469,4.6469,4.6469,4.6469,4.6469,4.6474,4.6383,4.6383,4.6392,4.6376,4.6376,4.6204,3.6022,3.6846,3.7725,3.8205,3.8747,3.9122,3.9349,3.9424,3.9424,3.9424,3.9424,3.9424,3.9424,3.9808,4.0359,4.0949,4.1881,4.319,4.5034,4.6719,4.8486,5.0211,5.0979,5.1356,5.131,5.1953,5.2016,5.109,5.0421,4.9752,4.9083,4.8157,4.7724,4.7724,4.7467,4.7553,4.7964,4.8218,4.8149,4.7794,4.8118,4.8118,4.7794,4.8049,4.8218,4.8286,4.837,4.8537,4.862,4.862,4.862,4.862,4.862,4.862,4.862,4.862,4.862,4.862,4.862,4.862,4.862,4.862,4.862,4.8866,5.0266,5.0697,5.0974,5.2329,5.2713,5.2713,5.2713,5.2713,5.2713,5.2713,5.2713,5.2713,5.2713,5.2713,5.2713,5.2713,5.1804,5.0922,5.0529,4.9077,4.7833,4.7349,4.7349,4.7157,4.6574,4.6963,4.7053,4.6574,4.6469,4.6469,4.6469,4.6469,4.6469,4.6469,4.6469,4.6469,4.6469,4.6469,4.6469,4.6469,4.6469,4.6436,4.6366,4.6366,4.6438,4.6421,4.6173,4.5792,3.5623,3.6444,3.7212,3.7658,3.8251,3.8782,3.9212,3.9349,3.9424,3.9424,3.9424,3.9454,3.9544,4.0079,4.0708,4.134,4.2797,4.4755,4.71,4.7797,4.8533,5.0124,5.0592,5.0894,5.1071,5.1284,5.112,4.9987,4.9419,4.882,4.8177,4.7608,4.7309,4.7309,4.7309,4.7309,4.7309,4.7467,4.7624,4.7624,4.788,4.8049,4.8049,4.8286,4.837,4.837,0.0,0.0,4.862,4.862,4.862,4.862,4.862,4.862,4.862,4.862,4.862,4.862,4.862,4.862,4.862,4.862,4.8696,4.902,5.0313,5.0774,5.1113,5.2359,5.2713,5.2713,5.2713,5.2713,5.2713,5.2713,5.2713,5.2624,5.2503,5.2427,5.2412,5.2231,5.1326,5.0338,4.947,4.851,4.7438,4.6665,4.6469,4.6469,4.6469,4.6469,4.6469,4.6469,4.6469,4.6469,4.6469,4.6469,4.6469,4.6469,4.6469,4.6469,4.6469,4.6469,4.6523,4.6499,4.6499,4.6504,4.6398,4.6398,4.6317,4.6225,4.5823,4.5533,3.4876,3.5762,3.6682,3.7197,3.797,3.8732,3.8767,3.9077,3.9424,3.9424,3.9424,3.9589,4.0142,3.9873,4.0036,4.143,4.3672,4.6003,4.7848,4.909,5.008,5.0729,5.138,5.1425,5.0571,5.0803,5.0441,4.8937,4.858,4.8147,4.7489,4.7354,4.7309,4.7309,4.7309,4.7309,4.7309,4.7467,4.7624,4.7639,4.8034,4.8286,4.8286,4.8453,4.8537,4.8537,0.0,4.862,4.862,4.862,4.862,4.862,4.862,4.862,4.862,4.862,4.862,4.862,4.862,4.862,4.862,4.862,4.902,4.9666,5.0451,5.1097,5.1713,5.2498,5.2713,5.2713,5.2713,5.2713,5.2713,5.2713,5.2713,5.2412,5.1512,5.1311,5.1109,5.0258,4.919,4.841,4.831,4.7452,4.6665,4.6469,4.6469,4.6469,4.6469,4.6469,4.6469,4.6469,4.6469,4.6469,4.6469,4.6469,4.6469,4.6469,4.6469,4.6469,4.6469,4.6469,4.6488,4.6436,4.6449,4.642,4.6334,4.6334,4.6052,4.5595,4.5986,4.5443,3.4037,3.4665,3.5377,3.6496,3.8084,3.9446,3.9681,4.0139,4.0382,4.0023,3.9948,4.0038,4.0337,4.0726,4.1683,4.3813,4.5326,4.668,4.8057,4.8895,4.9614,5.0411,5.0759,5.0818,5.044,5.0484,4.9955,4.8694,4.8531,4.807,4.7339,4.7381,4.7381,4.7309,4.7309,4.7309,4.7309,4.7467,4.7624,4.7794,4.8286,4.8453,4.8453,4.8537,4.862,4.862,0.0,4.862,4.862,4.862,4.862,4.862,4.862,4.862,4.862,4.862,4.862,4.862,4.862,4.862,4.862,4.862,4.9097,4.982,5.0497,5.1159,5.1836,5.2529,5.2713,5.2713,5.2713,5.2713,5.2516,5.1561,5.138,5.0985,4.9567,4.9307,4.9316,4.9178,4.8295,4.7642,4.7965,4.7157,4.636,4.6048,4.6265,4.636,4.6048,4.6279,4.6469,4.6469,4.6469,4.6469,4.6469,4.6469,4.6469,4.6469,4.6469,4.6499,4.6504,4.6397,4.6449,4.6376,4.6376,4.6347,4.6256,4.6065,4.5743,4.5485,4.5121,4.4543,3.3212,3.3758,3.4373,3.5971,3.788,3.951,4.0353,4.0783,4.095,4.0681,4.0621,4.0636,4.071,4.1775,4.3334,4.5289,4.6226,4.7061,4.7908,4.8488,4.9059,4.9883,4.9929,4.9942,5.02,4.997,4.938,4.8524,4.8392,4.8079,4.7339,4.7467,4.7467,4.7294,4.7309,4.7309,4.7309,4.7467,4.7709,4.7964,4.837,4.8537,4.862,4.862,4.862,4.862,4.862,4.862,4.862,4.862,4.862,4.862,4.862,4.862,4.862,4.862,4.862,4.862,4.862,4.862,4.8635,4.8804,4.9343,5.0051,5.0728,5.1405,5.2052,5.2575,5.2713,5.2577,5.2213,5.1864,5.1228,4.994,4.9637,4.9212,4.7782,4.7398,4.7542,4.7745,4.7081,4.6654,4.7127,4.6765,4.6116,4.5655,4.6089,4.6306,4.5858,4.6184,4.6469,4.6469,4.6469,4.6469,4.6469,4.6499,4.6461,4.6461,4.6461,4.645,4.6448,4.6376,4.6389,4.6404,4.6404,4.6346,4.6343,4.5782,4.5449,4.5259,4.4392,4.3853,3.2467,3.3392,3.4399,3.6022,3.6905,3.7857,3.9586,3.9888,4.0136,4.1145,4.1309,4.14,4.1566,4.2619,4.3551,4.3509,4.5618,4.7264,4.7354,4.8431,4.9314,4.9329,4.9554,4.9476,4.9122,4.9088,4.8754,4.8086,4.7785,4.7598,4.7309,4.7294,4.7294,4.7309,4.7309,4.7309,4.7309,4.7467,4.7709,4.7964,4.8218,4.8453,4.862,4.862,4.862,4.862,4.862,4.862,4.862,4.862,4.862,4.862,4.862,4.862,4.862,4.862,4.862,4.862,4.862,4.862,4.8727,4.9389,5.0066,5.0743,5.1421,5.2113,5.2652,5.2698,5.2713,5.2365,5.0758,4.929,4.8092,4.8033,4.794,4.763,4.654,4.6333,4.6084,4.5121,4.4961,4.4874,4.4915,4.5391,4.5641,4.56,4.6089,4.6455,4.6414,4.6442,4.6469,4.6469,4.6469,4.6469,4.6469,4.6424,4.6408,4.6408,4.6408,4.6434,4.6366,4.6428,4.6417,4.6296,4.6308,4.6239,4.625,4.5817,4.5171,4.4681,4.4606,4.4016,3.2097,3.3438,3.4738,3.6089,3.6864,3.7927,4.0011,4.0689,4.0994,4.1355,4.179,4.2363,4.2861,4.4193,4.5267,4.532,4.6796,4.7995,4.8083,4.8775,4.9269,4.9269,4.9074,4.889,4.8751,4.8328,4.7981,4.7739,4.7639,4.7553,4.7309,4.7381,4.7467,4.7294,4.7309,4.7309,4.7309,4.7467,4.7709,4.7964,4.8202,4.837,4.862,4.862,4.862,4.862,4.862,4.862,4.862,4.862,4.862,4.862,4.862,4.862,4.862,4.862,4.862,4.862,4.862,4.862,4.8727,4.9451,5.0143,5.082,5.1498,5.2175,5.2713,5.2713,5.191,5.1228,5.1698,5.0562,4.9016,4.8062,4.6987,4.586,4.4456,4.4097,4.4123,4.414,4.4434,4.4827,4.5193,4.575,4.6007,4.5655,4.6089,4.6333,4.5967,4.6252,4.6469,4.6469,4.6469,4.6513,4.6437,4.6449,4.6402,4.6428,4.6454,4.6376,4.629,4.6396,4.6155,4.5813,4.5813,4.5632,4.5259,4.4706,4.433,4.4104,4.3765,4.3376,3.1958,3.3466,3.4992,3.607,3.667,3.7709,4.033,4.0822,4.1023,4.1941,4.2604,4.3331,4.4063,4.5079,4.5777,4.5981,4.6941,4.7665,4.7613,4.8263,4.8641,4.8641,4.8428,4.8215,4.8317,4.7895,4.7624,4.7624,4.7624,4.7553,4.7309,4.7467,4.7467,4.7294,4.7309,4.7309,4.7309,4.7467,4.7639,4.788,4.8133,4.837,4.862,4.862,4.862,4.862,4.862,4.862,4.862,4.862,4.862,4.862,4.862,4.862,4.862,4.862,4.862,4.862,4.862,4.862,4.8773,4.9697,5.0313,5.0851,5.1759,5.2344,5.2713,5.2713,5.1531,5.044,5.1577,5.0274,4.8229,4.667,4.5363,4.4289,4.3162,4.3036,4.3294,4.3687,4.4284,4.4827,4.5234,4.5804,4.6062,4.5655,4.6089,4.6333,4.5926,4.6225,4.6445,4.6515,4.6422,4.6437,4.6359,4.6362,4.6402,4.6342,4.6254,4.6128,4.6103,4.605,4.5842,4.5221,4.5208,4.502,4.4618,4.4066,4.3802,4.379,4.3237,4.2974,3.2167,3.3406,3.5009,3.5969,3.6153,3.6939,4.0187,3.9849,3.9849,4.3089,4.3817,4.4195,4.5132,4.4944,4.4589,4.464,4.5522,4.6167,4.571,4.6626,4.7309,4.7309,4.7309,4.7396,4.7553,4.7624,4.7624,4.7624,4.7624,4.7553,4.7309,4.7309,4.7309,4.7309,4.7309,4.7309,4.7309,4.7309,4.7381,4.7639,4.788,4.8202,4.862,4.862,4.862,4.862,4.862,4.862,4.862,4.862,4.862,4.862,4.862,4.862,4.862,4.862,4.862,4.862,4.862,4.862,4.885,5.0236,5.0697,5.0944,5.2298,5.2713,5.2713,5.2713,5.1531,5.0244,5.0229,4.7759,4.4909,4.3313,4.2887,4.2887,4.2887,4.3348,4.3769,4.3769,4.4284,4.4719,4.4719,4.5207,4.56,4.56,4.6102,4.6469,4.6469,4.6482,4.6488,4.6408,4.6366,4.6385,4.6382,4.6385,4.6243,4.6243,4.5813,4.5456,4.5451,4.5522,4.5208,4.4618,4.4618,4.4618,4.4606,4.4053,4.379,4.3777,4.3237,4.2974,3.1839,3.3619,3.5454,3.6021,3.7485,3.9094,4.0375,4.0519,4.121,4.4016,4.4512,4.4579,4.5372,4.5695,4.574,4.5586,4.6003,4.6346,4.6554,4.7026,4.7309,4.7309,4.7309,4.7309,4.7381,4.7381,4.7381,4.7381,4.7381,4.7381,4.7309,4.7309,4.7381,4.7553,4.7381,4.7396,4.7553,4.7396,4.7467,4.788,4.7964,4.8133,4.837,4.8537,4.862,4.862,4.862,4.862,4.862,4.862,4.862,4.862,4.862,4.862,4.862,4.862,4.862,4.862,4.862,4.862,4.885,5.0236,5.0697,5.0944,5.2298,5.2713,5.2713,5.2713,5.2365,5.141,4.9138,4.7774,4.667,4.5018,4.374,4.2887,4.2887,4.3348,4.3769,4.3769,4.461,4.5329,4.5329,4.5817,4.6211,4.6211,4.636,4.6469,4.6469,4.6503,4.6383,4.6448,4.6394,4.6251,4.5856,4.5795,4.5553,4.509,4.4986,4.5099,4.5443,4.5124,4.4618,4.4053,4.4053,4.3853,4.3463,4.33,4.3225,4.3212,4.3049,4.2974,3.2777,3.4727,3.6681,3.7178,3.8607,4.0182,4.1262,4.2032,4.2864,4.4467,4.5142,4.5462,4.5785,4.5897,4.5777,4.5511,4.5718,4.6002,4.6418,4.6981,4.7309,4.7309,4.7309,4.7309,4.7309,4.7309,4.7309,4.7309,4.7309,4.7309,4.7309,4.7309,4.7396,4.7467,4.7467,4.7467,4.7467,4.7553,4.7639,4.7794,4.8049,4.8355,4.8684,4.8659,4.862,4.862,4.862,4.862,4.862,4.862,4.862,4.862,4.862,4.862,4.862,4.862,4.862,4.862,4.862,4.8804,4.922,5.0328,5.0867,5.1298,5.2375,5.2713,5.2713,5.2713,5.1743,5.0274,4.8351,4.6835,4.5624,4.4606,4.3602,4.2887,4.2887,4.3552,4.4149,4.4149,4.5112,4.594,4.594,4.6238,4.6469,4.6469,4.6461,4.6503,4.6503,4.6461,4.6349,4.635,4.6143,4.5845,4.5514,4.5323,4.4965,4.4618,4.4418,4.4455,4.4807,4.448,4.4041,4.3489,4.3476,4.3313,4.2974,4.2974,4.2974,4.2974,4.2413,4.219,3.4239,3.6247,3.8311,3.8847,3.9568,4.0576,4.2637,4.3938,4.4715,4.47,4.5679,4.65,4.6381,4.5753,4.5117,4.4725,4.5064,4.5372,4.5604,4.6611,4.7309,4.7309,4.7309,4.7309,4.7309,4.7309,4.7309,4.7309,4.7309,4.7309,4.7309,4.7309,4.7309,4.7381,4.7553,4.7553,4.7381,4.781,4.788,4.7624,4.8133,4.8607,4.9173,4.8875,4.8743,4.8804,4.8804,4.8804,4.8804,4.8743,4.8712,4.8696,4.8635,4.862,4.862,4.862,4.862,4.862,4.8696,4.9143,4.9805,5.0543,5.1205,5.1836,5.2513,5.2713,5.2713,5.2713,5.0577,4.8214,4.7896,4.5624,4.33,4.3011,4.2887,4.2887,4.2887,4.385,4.4705,4.4705,4.5655,4.6469,4.6469,4.6469,4.6496,4.6445,4.6464,4.6366,4.6366,4.6304,4.6277,4.6167,4.5694,4.5387,4.5296,4.4844,4.4531,4.448,4.4003,4.3727,4.3727,4.3727,4.3489,4.2986,4.2974,4.2974,4.2974,4.2974,4.2974,4.2961,4.1607,4.0903,3.325,3.5565,3.8002,3.8299,3.9871,4.173,4.3441,4.4474,4.5244,4.5586,4.5716,4.6079,4.689,4.5693,4.4728,4.5251,4.5365,4.5372,4.5604,4.6611,4.7309,4.7309,4.7309,4.7309,4.7309,4.7309,4.7309,4.7309,4.7309,4.7309,4.7309,4.7309,4.7467,4.781,4.7709,4.7794,4.8034,4.8049,4.8049,4.8118,4.8286,4.8446,4.8767,4.9266,4.9743,5.0251,5.0251,5.0251,5.0205,4.9666,4.9451,4.9404,4.8835,4.862,4.862,4.862,4.862,4.8696,4.9251,4.9558,4.9882,5.1097,5.159,5.1836,5.2513,5.2713,5.2713,5.2713,5.2213,5.1061,4.8502,4.729,4.6092,4.3478,4.2887,4.2887,4.2887,4.385,4.4705,4.4705,4.5655,4.6469,4.6469,4.6469,4.6513,4.6437,4.6394,4.6243,4.5805,4.5745,4.5525,4.5091,4.489,4.4608,4.4192,4.4053,4.379,4.3363,4.3225,4.3162,4.3162,4.3162,4.3099,4.2974,4.2974,4.2974,4.2974,4.2974,4.2974,4.2961,4.1607,4.0903,3.3864,3.5918,3.8042,3.9772,4.0917,4.2138,4.3746,4.475,4.5372,4.5798,4.6147,4.6431,4.6322,4.5484,4.4691,4.4554,4.4698,4.493,4.541,4.6256,4.695,4.7264,4.7309,4.7309,4.7309,4.7309,4.7309,4.7309,4.7381,4.7381,4.7309,4.7467,4.7724,4.7794,4.788,4.8049,4.8118,4.8202,4.8286,4.8286,4.837,4.8706,4.9127,4.9158,4.9358,4.9697,4.9697,4.9697,4.9666,4.9312,4.9174,4.9143,4.8758,4.862,4.862,4.862,4.862,4.8727,4.9435,4.9897,5.0343,5.1374,5.1929,5.2252,5.2606,5.2713,5.2713,5.2713,5.2077,5.091,4.8395,4.7167,4.5955,4.3464,4.2887,4.2887,4.2887,4.385,4.4705,4.4705,4.5655,4.6469,4.6469,4.6258,4.6035,4.6008,4.5731,4.5474,4.5141,4.5067,4.4967,4.4675,4.4446,4.4116,4.3827,4.3564,4.3288,4.2999,4.2974,4.2974,4.2974,4.2974,4.2974,4.2974,4.2974,4.2974,4.2974,4.2974,4.2613,4.1991,4.0546,3.9491,3.4636,3.632,3.8361,4.1549,4.1984,4.2198,4.3899,4.4739,4.532,4.5783,4.653,4.68,4.5678,4.5274,4.4766,4.3673,4.3958,4.4496,4.505,4.5813,4.6531,4.707,4.7234,4.7309,4.7309,4.7309,4.7294,4.7381,4.7467,4.7553,4.7396,4.7794,4.788,4.7709,4.8133,4.8202,4.8133,4.8453,4.8537,4.837,4.8537,4.8927,4.9481,4.8881,4.8743,4.8974,4.8974,4.8974,4.8958,4.885,4.8804,4.8789,4.8666,4.862,4.862,4.862,4.862,4.8727,4.9574,5.0236,5.082,5.1621,5.2252,5.2713,5.2713,5.2713,5.2713,5.2713,5.1713,5.0229,4.8243,4.6807,4.5212,4.3327,4.2887,4.2887,4.2887,4.3769,4.4583,4.4691,4.5551,4.6364,4.6258,4.5822,4.5408,4.5406,4.5051,4.4681,4.4582,4.4535,4.4443,4.4355,4.3928,4.3664,4.3664,4.315,4.2836,4.2836,4.2748,4.2735,4.2836,4.2836,4.2886,4.2974,4.2974,4.2974,4.2974,4.265,4.2016,4.0891,3.9149,3.7727,3.377,3.6,3.8933,4.1584,4.2101,4.2303,4.396,4.4534,4.4911,4.5758,4.6169,4.6396,4.6217,4.5229,4.4392,4.4212,4.4257,4.4347,4.4436,4.5529,4.6352,4.6441,4.6965,4.7309,4.7309,4.7309,4.7381,4.7553,4.7538,4.7709,4.788,4.7964,4.8049,4.8202,4.8286,4.837,4.8537,4.8537,4.862,4.8537,4.862,4.8666,4.8743,4.865,4.9281,5.042,5.042,5.042,5.0374,4.9774,4.9543,4.9481,4.885,4.862,4.862,4.862,4.862,4.8804,5.0112,5.062,5.0913,5.2175,5.2637,5.2713,5.2713,5.2713,5.2713,5.2713,5.2547,5.1698,4.8561,4.7608,4.6684,4.3602,4.2887,4.2887,4.2887,4.3416,4.4054,4.4596,4.5227,4.5595,4.5059,4.4843,4.4783,4.4836,4.4755,4.4469,4.4017,4.3865,4.3727,4.325,4.3137,4.3087,4.3087,4.2585,4.2258,4.2258,4.1819,4.1769,4.2246,4.2258,4.2497,4.2974,4.2974,4.2974,4.2974,4.1445,4.084,4.0879,3.7866,3.6623,3.4694,3.6766,3.8948,4.1301,4.2004,4.2434,4.3487,4.42,4.4805,4.5565,4.601,4.6217,4.5813,4.5259,4.4616,4.3883,4.3763,4.3898,4.4272,4.514,4.5873,4.6416,4.7061,4.7553,4.7724,4.7724,4.7724,4.7794,4.7964,4.7964,4.7964,4.8202,4.8301,4.8286,4.837,4.8537,4.862,4.862,4.862,4.862,4.862,4.862,4.862,4.862,4.8958,4.9528,4.9528,4.9528,4.9512,4.9204,4.9081,4.905,4.8743,4.862,4.862,4.862,4.862,4.8804,5.0205,5.0436,5.0359,5.1698,5.2144,5.2144,5.2144,5.2406,5.2713,5.2713,5.2713,5.191,4.8669,4.7774,4.6987,4.3712,4.2887,4.2887,4.2887,4.3348,4.4049,4.4998,4.5395,4.5424,4.5205,4.4876,4.4642,4.4258,4.401,4.3662,4.3338,4.3338,4.325,4.2999,4.2974,4.2848,4.2547,4.2296,4.2032,4.1718,4.148,4.1442,4.1681,4.1706,4.1806,4.2057,4.2359,4.2164,4.1569,4.0461,3.926,3.7959,3.6511,3.55,3.5096,3.6572,3.7916,4.0416,4.1458,4.2086,4.3164,4.3944,4.4724,4.5405,4.5921,4.607,4.556,4.5522,4.5185,4.4178,4.3768,4.3828,4.4419,4.4899,4.5537,4.6365,4.7045,4.7613,4.7949,4.7964,4.8049,4.8049,4.8218,4.8301,4.8133,4.8453,4.8537,4.837,4.8537,4.862,4.862,4.862,4.862,4.862,4.862,4.862,4.862,4.862,4.862,4.862,4.862,4.862,4.862,4.862,4.862,4.862,4.862,4.862,4.862,4.862,4.8727,4.9035,5.0082,5.022,5.0112,5.1113,5.1559,5.1698,5.1698,5.2175,5.2713,5.2713,5.2713,5.2046,4.8982,4.8302,4.7543,4.4235,4.3516,4.3462,4.3034,4.3368,4.3977,4.4534,4.4735,4.4811,4.4701,4.4369,4.3959,4.3704,4.3321,4.2974,4.2974,4.2848,4.2773,4.2773,4.2647,4.2396,4.1982,4.1819,4.1568,4.1153,4.1003,4.0978,4.1128,4.1128,4.0964,4.0885,4.1146,4.0991,4.0214,3.9006,3.7546,3.5746,3.5285,3.4501,3.3984,3.4469,3.5354,3.8788,3.9976,4.0875,4.31,4.3975,4.4526,4.5151,4.5647,4.5925,4.5976,4.6094,4.6122,4.591,4.5082,4.4659,4.4879,4.5005,4.5278,4.5946,4.6644,4.7312,4.7904,4.7964,4.8049,4.8286,4.8286,4.837,4.8537,4.862,4.862,4.8604,4.862,4.862,4.862,4.862,4.862,4.862,4.862,4.862,4.862,4.862,4.862,4.862,4.862,4.862,4.862,4.862,4.862,4.862,4.862,4.862,4.862,4.862,4.9035,4.9635,4.9712,5.0143,5.0651,5.0728,5.1174,5.1698,5.1698,5.2175,5.2713,5.2713,5.2713,5.2169,4.9931,4.9738,4.9238,4.5761,4.5313,4.5106,4.3312,4.3357,4.3489,4.2525,4.2695,4.2997,4.2452,4.2355,4.2519,4.301,4.2974,4.2974,4.2974,4.2522,4.2195,4.2195,4.1731,4.1417,4.1379,4.0902,4.0588,4.0563,4.0074,4.0011,4.0538,4.0563,4.0244,3.9721,3.9262,3.9165,3.9659,3.6917,3.5541,3.5622,3.4086,3.343,3.3956,3.4326,3.4868,3.7093,3.8999,4.0619,4.1397,4.3,4.448,4.5011,4.5251,4.5597,4.661,4.663,4.6403,4.6082,4.5683,4.5516,4.5627,4.5612,4.5783,4.6188,4.6814,4.7317,4.7711,4.811,4.837,4.8453,4.8537,4.8537,4.862,4.862,4.862,4.862,4.862,4.862,4.862,4.862,4.862,4.862,4.862,4.862,4.862,4.862,4.862,4.862,4.862,4.862,4.862,4.862,4.862,4.862,4.862,4.862,4.8666,4.9127,4.9174,4.9127,5.002,4.9912,4.9435,4.9897,5.0205,5.0405,5.0405,5.0882,5.141,5.1557,5.1574,5.1152,4.939,4.8319,4.6747,4.3476,4.2764,4.2705,4.1993,4.2268,4.2553,4.2131,4.2296,4.2486,4.2267,4.2158,4.2095,4.1944,4.1932,4.1932,4.1932,4.1756,4.163,4.163,4.1455,4.1204,4.084,4.0626,4.0362,4.0011,3.9798,3.9785,3.9986,3.9216,3.8749,3.8503,3.6893,3.6283,3.6782,3.5411,3.4404,3.3735,3.3142,3.2955,3.3359,3.3601,3.4014,3.5538,3.7708,3.9593,3.9978,4.185,4.3594,4.3959,4.4337,4.4993,4.6116,4.6574,4.6872,4.6839,4.661,4.6473,4.6539,4.6341,4.636,4.667,4.7099,4.7533,4.7927,4.8358,4.862,4.862,4.862,0.0,4.862,4.862,4.862,4.862,4.862,4.862,4.862,4.862,4.862,4.862,4.862,4.862,4.862,4.862,4.862,4.862,4.862,4.862,4.862,4.862,4.862,4.862,4.862,4.862,4.8696,4.942,4.9374,4.9097,5.0035,4.9743,4.902,4.9251,4.9551,4.9748,4.9748,5.0289,5.0921,5.0986,5.1,5.0725,4.9574,4.7709,4.5481,4.2925,4.1834,4.1402,4.1195,4.1514,4.1757,4.1559,4.1556,4.1605,4.1605,4.1605,4.1543,4.1367,4.1342,4.1342,4.1342,4.1178,4.1065,4.1065,4.0902,4.0639,4.0275,4.0237,4.0086,3.9722,3.9697,3.9478,3.9141,3.8384,3.7512,3.675,3.5234,3.4532,3.4404,3.4081,3.3491,3.2727,3.2727,3.2727,0.0,0.0,0.0,3.4143,3.5957,3.7754,3.9143,4.0794,4.1999,4.1999,4.3031,4.4004,4.4281,4.5886,4.7512,4.8383,4.7886,4.7405,4.7635,4.705,4.6865,4.7527,4.7604,4.7865,4.8527,4.8604,4.862,4.862,4.862,4.862,4.862,4.862,4.862,4.862,4.862,4.862,4.862,4.862,4.862,4.862,4.862,4.862,4.862,4.862,4.862,4.862,4.862,4.862,4.862,4.862,4.862,4.862,4.862,4.862,4.8696,4.942,4.9682,4.9682,4.9712,4.9712,4.9605,4.8813,4.9219,4.9864,4.9864,5.0502,5.1169,5.1184,5.1184,5.0996,5.0383,4.8112,4.5594,4.4422,4.2905,4.1567,4.1009,4.1103,4.1116,4.0593,4.0488,4.0488,4.0488,4.0488,4.0676,4.1204,4.1291,4.1291,4.1291,4.0827,4.0488,4.0488,4.0011,3.9697,3.9697,3.9697,3.9697,3.9697,3.9697,3.9141,3.795,3.7844,3.675,3.4591,3.448,3.3818,3.2727,3.2727,3.2727,3.2727,3.2727,3.2727,3.23,0.0,0.0,0.0,0.0,0.0,3.8941,4.0721,4.1999,4.1999,4.2288,4.291,4.4098,4.474,4.5721,4.7619,4.806,4.826,4.8343,4.7758,4.7388,4.7588,4.7604,4.7681,4.7865,4.8162,4.8453,0.0,4.8453,4.8453,4.862,4.862,4.862,4.862,4.862,4.862,4.862,4.862,4.862,4.862,4.862,4.862,4.862,4.862,4.862,4.862,4.862,4.862,4.862,4.862,4.862,4.862,4.862,4.862,4.8696,4.942,4.9411,4.92,4.9687,4.9607,4.9312,4.9116,4.9223,4.9419,4.9419,4.9599,4.9806,4.9897,4.9937,4.9318,4.6869,4.5627,4.4354,4.1645,4.0643,4.0216,4.0052,4.0118,4.013,3.9923,3.9923,3.9923,3.9923,3.9923,3.9973,4.0124,4.0149,4.0149,4.0149,4.0011,3.9923,3.9923,3.9785,3.9697,3.9697,3.9697,3.9697,3.9697,3.8921,3.8279,3.7938,3.6317,3.5124,3.448,3.3604,3.3058,3.2727,3.2727,3.2727,3.2727,3.2727,3.2727,3.3481,3.3637,3.4155,3.4881,0.0,0.0,3.8455,3.9798,4.0945,4.0945,4.123,4.1728,4.2651,4.332,4.4327,4.5953,4.6751,4.7569,4.8496,4.8266,4.8019,4.8019,4.8019,4.8019,4.8019,4.8223,4.8453,4.8453,4.837,4.8492,4.8852,4.8607,4.8675,4.905,4.8773,4.862,4.862,4.862,4.862,4.862,4.862,4.862,4.862,4.862,4.862,4.862,4.862,4.862,4.862,4.862,4.862,4.862,4.862,4.8804,4.9143,4.958,4.955,4.938,4.9868,4.9659,4.9164,4.9164,4.9252,4.9293,4.9293,4.9393,4.9395,4.9494,4.901,4.7946,4.5307,4.4178,4.2969,4.0286,3.9697,3.9697,3.9697,3.9697,3.9697,3.9697,3.9697,3.9697,3.9697,3.9697,3.9697,3.9697,3.9697,3.9697,3.9697,3.9697,3.9697,3.9697,3.9697,3.9697,3.9697,3.9697,3.9697,3.9697,3.8607,3.7725,3.718,3.5454,3.4256,3.3717,3.3058,3.2727,3.2727,3.2727,3.2727,3.2727,3.2727,3.2727,3.5131,3.5725,3.6387,3.6302,3.7111,0.0,3.8071,3.8761,3.9424,3.9424,4.0019,4.0586,4.0661,4.1849,4.3046,4.396,4.474,4.5951,4.8219,4.8496,4.8527,4.8604,4.862,4.862,4.862,4.862,4.8537,4.837,4.8286,4.8546,4.9142,4.8684,4.8768,4.9666,4.9143,4.8804,4.8727,4.8727,4.8696,4.862,4.862,4.862,4.862,4.862,4.862,4.862,4.8537,4.8537,4.8537,4.8453,4.8537,4.862,4.8537,4.8967,4.9573,4.9706,4.9746,4.9868,5.0032,4.9714,4.9297,4.9297,4.9316,4.9398,4.9398,4.9604,4.9654,4.9484,4.8197,4.6558,4.4825,4.3291,4.1774,4.012,3.9697,3.9697,3.9697,3.9697,3.9697,3.9697,3.9697,3.9697,3.9697,3.9697,3.9697,3.9697,3.9697,3.9697,3.9697,3.9697,3.9697,3.9697,3.9697,3.9697,3.9697,3.9697,3.9685,3.9478,3.8384,3.718,3.6088,3.4902,3.3829,3.2727,3.2727,3.2727,3.2727,3.2727,3.2727,3.2727,3.2727,3.2727,3.643,3.6272,3.6616,3.7556,3.7863,0.0,3.9152,3.9391,3.9424,3.9424,3.9514,3.9841,4.0586,4.096,4.1593,4.3016,4.3945,4.5262,4.7511,4.7804,4.8004,4.8558,4.862,4.862,4.862,4.8453,4.837,4.8537,4.837,4.8263,4.8231,4.8782,4.9157,4.938,4.9981,5.002,4.9481,4.9481,4.9189,4.862,4.862,4.862,4.862,4.862,4.862,4.8604,4.8301,4.8133,4.8133,4.7724,4.7964,4.8537,4.8202,4.8529,4.8966,4.8651,4.8924,4.9478,4.9533,4.9545,4.9595,4.9595,4.9586,4.9688,4.9688,4.9664,4.947,4.8041,4.6516,4.4797,4.3123,4.2505,4.1774,4.012,3.9697,3.9697,3.9697,3.9697,3.9697,3.9697,3.9697,3.9697,3.9697,3.9697,3.9697,3.9697,3.9697,3.9697,3.9697,3.9697,3.9697,3.9697,3.9697,3.9697,3.9697,3.9697,3.9258,3.8267,3.7168,3.5979,3.4902,3.3717,3.2955,3.2727,3.2727,3.2727,3.2727,3.2727,3.2727,3.2727,3.2727,3.2727,3.7883,3.7809,3.8184,3.8668,3.8758,0.0,0.0,3.9481,3.9424,3.9424,3.9424,3.9514,3.9989,4.0049,4.0437,4.1654,4.2242,4.3122,4.503,4.6662,4.7727,4.8065,4.8419,4.862,4.862,4.8537,4.8453,4.8453,4.8286,4.827,4.845,4.8636,4.8773,4.9123,4.9717,4.9834,4.9496,4.9597,4.9497,4.9143,4.8789,4.862,4.862,4.862,4.8453,4.8286,4.8133,4.788,4.7639,4.7396,4.7553,4.7964,4.7709,4.8226,4.8997,4.8552,4.9034,4.989,4.9685,4.9601,4.9669,4.9669,4.9669,4.9669,4.9669,4.9144,4.8324,4.7405,4.5431,4.3264,4.2391,4.1606,4.0734,3.9851,3.9697,3.9697,3.9697,3.9697,3.9697,3.9697,3.9697,3.9697,3.9697,3.9697,3.9697,3.9697,3.9697,3.9697,3.9697,3.9697,3.9697,3.9697,3.9697,3.9697,3.9697,3.9154,3.8489,3.795,3.6317,3.5124,3.448,3.3388,3.2727,3.2727,3.2727,3.2727,3.2727,3.2383,3.2383,3.2727,3.2727,3.2498,3.9294,3.9394,3.9696,3.9568,3.9496,3.9481,0.0,0.0,0.0,3.9424,3.9424,3.9424,3.9424,3.9424,3.9586,4.0058,4.0435,4.1021,4.1896,4.4537,4.6609,4.6923,4.7727,4.8173,4.8035,4.8142,4.826,4.8271,4.8012,4.814,4.8738,4.8389,4.8405,4.8951,4.9245,4.9433,4.9295,4.9496,4.952,4.9466,4.8813,4.8537,4.8453,4.8453,4.8286,4.788,4.7794,4.7553,4.7135,4.7048,4.7033,4.7033,4.7121,4.7911,4.9029,4.8511,4.9178,5.0294,4.9878,4.9669,4.9669,4.9669,4.9484,4.9158,4.8833,4.7546,4.6248,4.6248,4.4051,4.1761,4.1761,4.0722,3.9697,3.9697,3.9697,3.9697,3.9697,3.9697,3.9697,3.9697,3.9697,3.9697,3.9697,3.9697,3.9697,3.9697,3.9697,3.9697,3.9697,3.9697,3.9697,3.9697,3.9697,3.9594,3.9362,3.8489,3.7725,3.7287,3.5564,3.4368,3.4145,3.3172,3.2727,3.2727,3.2612,3.2498,3.2498,3.1903,3.1903,3.2498,3.2373,3.2143,4.0456,4.0066,3.9925,3.9925,3.9768,3.9696,3.9696,0.0,3.9424,3.9424,0.0,3.9424,3.9424,0.0,0.0,3.8166,3.9531,4.0154,3.85,4.0662,4.3019,4.4464,4.5971,4.6588,4.5988,4.648,4.7246,4.821,4.7736,4.7524,4.7714,4.8486,4.8789,4.8618,4.944,4.9733,4.9295,4.9139,4.9005,4.8727,4.8499,4.8202,4.8049,4.8049,4.7794,4.7381,4.6946,4.6771,4.6683,4.6239,4.606,4.606,4.6506,4.7465,4.8511,4.8062,4.8675,4.9781,4.9683,4.9669,4.9669,4.9669,4.8677,4.7207,4.5727,4.4051,4.2814,4.2814,4.1452,3.9979,3.9979,3.9838,3.9697,3.9697,3.9697,3.9697,3.9697,3.9697,3.9697,3.9697,3.9697,3.9697,3.9697,3.9697,3.9697,3.9697,3.9697,3.9697,3.9697,3.9697,3.9697,3.9697,3.9697,3.9258,3.8173,3.795,3.7073,3.5013,3.4692,3.4043,3.2944,3.2727,3.2727,3.2727,3.2143,3.1903,3.1903,3.1189,3.1305,3.1903,3.1305,3.1189,4.0167,4.0055,4.0121,3.973,3.9854,4.0019,3.9643,3.9481,3.9424,3.9424,0.0,0.0,0.0,0.0,0.0,0.0,3.9418,3.9619,3.8835,3.9697,4.0905,4.2144,4.3588,0.0,4.5494,4.6557,4.7419,4.7824,4.7963,4.8079,4.8034,4.8238,4.8384,4.8413,4.9148,4.9539,4.9554,4.9268,4.9025,4.8899,4.8071,4.7724,4.7553,4.7553,4.7381,4.6858,4.6683,4.6417,4.615,4.597,4.588,4.588,4.615,4.6938,4.8062,4.7876,4.858,4.9669,4.9669,4.9669,4.9513,4.8536,4.773,4.6897,4.5248,4.356,4.2223,4.2223,4.1016,3.9772,4.0086,3.9936,3.986,4.0501,4.04,4.0262,4.0576,4.0651,4.0651,4.0651,4.0651,4.0551,4.0224,3.991,3.9697,3.9697,3.9697,3.9697,3.9697,3.9697,3.9697,3.9697,3.9037,3.8489,3.795,3.6642,3.5564,3.4591,3.3818,3.3275,3.2727,3.2602,3.2487,3.2487,3.2028,3.1787,3.1787,3.1199,3.0956,3.1315,3.0946,3.083,4.0121,4.0169,4.0247,3.9589,0.0,0.0,0.0,0.0,0.0,3.9424,3.9424,0.0,0.0,0.0,3.9305,3.9002,0.0,3.9218,3.8686,3.8722,3.9175,4.0153,4.1327,4.2634,0.0,4.5501,4.6391,4.6778,4.7446,4.7972,4.8103,4.788,4.7824,4.8207,4.8522,4.8997,4.956,4.9191,4.8939,4.8925,4.7909,4.7299,4.7135,4.7135,4.6858,4.6417,4.6417,4.6239,4.588,4.588,4.5685,4.5489,4.5489,4.6067,4.6967,4.7579,4.8182,4.8838,4.9164,4.8936,4.824,4.6445,4.5796,4.5472,4.3856,4.2492,4.1478,4.1478,4.0593,3.9823,4.0375,4.0111,3.9973,4.1078,4.0915,4.0664,4.1216,4.1216,4.1116,4.1116,4.099,4.0764,4.0362,4.0086,3.9873,3.9722,3.9697,3.9697,3.9697,3.9362,3.9258,3.9258,3.8161,3.7299,3.6965,3.5454,3.4368,3.392,3.3048,3.2498,3.2498,3.2258,3.2133,3.2133,3.1787,3.1556,3.1556,3.0966,3.0616,3.0499,3.049,3.0372,0.0,0.0,0.0,3.9589,0.0,0.0,0.0,0.0,3.9424,0.0,0.0,3.9424,3.9424,3.9424,3.9077,3.791,3.8642,0.0,0.0,3.6753,3.7477,3.8708,3.913,3.9853,4.1186,4.2075,4.3225,4.4709,4.5552,4.6486,4.7563,4.7193,4.7301,4.8207,4.7732,4.7982,4.8786,4.8617,4.8459,4.8267,4.7956,4.7451,4.6594,4.6594,4.6328,4.588,4.588,4.588,4.588,4.588,4.5293,4.4312,4.4312,4.4484,4.4957,4.7062,4.7249,4.6542,4.7703,4.6994,4.5275,4.3026,4.2377,4.2069,4.0414,3.9838,3.9825,3.9825,3.971,3.9823,4.0375,4.0111,3.9973,4.1078,4.0915,4.0664,4.1216,4.0915,4.0538,4.0538,4.0111,3.9747,3.9722,4.0149,4.0312,3.9772,3.9697,3.9697,3.9697,3.8712,3.795,3.795,3.6954,3.5761,3.4692,3.4591,3.392,3.2477,3.2363,3.2133,3.1787,3.1787,3.1787,3.1787,3.1199,3.0966,3.0966,3.0274,2.9804,2.9558,2.9558,2.9686,0.0,0.0,4.1429,4.0337,0.0,0.0,0.0,0.0,0.0,0.0,0.0,3.9424,3.9424,3.9424,3.9275,3.8897,3.9125,3.8956,0.0,3.6519,3.5701,3.5558,3.7074,3.8467,3.9341,4.1748,4.3368,4.3573,4.556,4.6986,4.7366,4.6447,4.6649,4.8324,4.739,4.7724,4.9399,4.8895,4.8354,4.7896,4.7395,4.6854,4.615,4.615,4.5671,4.4805,4.4805,4.442,4.3857,4.3857,4.3654,4.3259,4.3259,4.3426,4.3668,4.517,4.5912,4.6333,4.675,4.625,4.5199,4.3306,4.2511,4.1915,4.0261,3.9697,3.9697,3.9697,3.9961,4.0275,4.0463,4.0651,4.0965,4.1706,4.1731,4.1756,4.2308,4.1995,4.1706,4.207,4.1706,4.1317,4.1317,4.148,4.1291,4.0375,4.0237,4.0015,3.9226,3.8788,3.8108,3.6881,3.5772,3.4902,3.458,3.3593,3.2696,3.2018,3.2018,3.1903,3.1787,3.1556,3.1441,3.1441,3.0859,3.0616,3.0616,3.0157,2.9804,2.9804,2.9568,2.9568,4.2222,4.2402,0.0,4.107,4.107,0.0,4.0023,0.0,3.9768,0.0,0.0,0.0,4.0023,3.9738,3.9499,3.9723,3.9574,3.8957,0.0,3.6262,3.5018,3.3754,3.5087,3.6405,3.7191,3.9567,4.141,4.2352,4.4339,4.6001,4.7004,4.5793,4.5801,4.7546,4.6905,4.7244,4.8819,4.8953,4.874,4.8101,4.7462,4.6639,4.5637,4.5407,4.4805,4.3735,4.3735,4.3355,4.2792,4.2792,4.2598,4.2195,4.2195,4.211,4.2281,4.3983,4.511,4.5688,4.505,4.4494,4.3808,4.2515,4.1763,4.1158,3.9991,3.9697,3.9735,3.9936,4.0111,4.0312,4.0714,4.0777,4.094,4.1693,4.1718,4.1781,4.2522,4.2258,4.2032,4.2585,4.2233,4.1869,4.1869,4.1869,4.1618,4.0915,4.0814,4.0289,3.8971,3.8382,3.7528,3.5817,3.4611,3.3827,3.361,3.2703,3.1958,3.1334,3.1315,3.1208,3.1092,3.0976,3.0928,3.1201,3.0576,3.0341,3.0603,3.0106,2.9804,2.9804,2.9568,2.945]},{"header":{"parameterUnit":"m.s-1","parameterCategory":1,"la1":30.6,"la2":29.2853,"lo1":-89.7004,"lo2":-87.6739,"dy":0.0162,"dx":0.0183,"nx":112,"ny":82,"refTime":"2023-02-28T06:00:00:Z","depth":0,"parameterNumber":3,"parameterNumberName":"V-component_of_WINDS"},"data":[0.0,0.0,0.0,0.0,0.0,0.0,0.0,0.0,0.0,0.0,0.0,0.0,0.0,0.0,0.0,0.0,0.0,0.0,0.0,0.0,0.0,0.0,0.0,0.0,0.0,0.0,0.0,0.0,0.0,0.0,0.0,0.0,0.0,0.0,0.0,0.0,0.0,0.0,0.0,0.0,0.0,0.0,0.0,0.0,0.0,0.0,0.0,0.0,0.0,0.0,0.0,0.0,0.0,0.0,0.0,0.0,0.0,0.0,0.0,0.0,0.0,0.0,0.0,0.0,0.0,0.0,0.0,0.0,0.0,0.0,0.0,0.0,0.0,0.0,0.0,0.0,0.0,0.0,0.0,0.0,0.0,0.0,0.0,0.0,0.0,0.0,0.0,0.0,0.0,0.0,-2.3716,-2.3053,-2.3188,-2.3193,-2.3047,-2.3183,-2.3001,-2.2237,0.0,0.0,0.0,0.0,0.0,0.0,0.0,0.0,0.0,0.0,0.0,0.0,0.0,0.0,0.0,0.0,0.0,0.0,0.0,0.0,0.0,0.0,0.0,0.0,0.0,0.0,0.0,0.0,0.0,0.0,0.0,0.0,0.0,0.0,0.0,0.0,0.0,0.0,0.0,0.0,0.0,0.0,0.0,0.0,0.0,0.0,0.0,0.0,0.0,0.0,0.0,0.0,0.0,0.0,0.0,0.0,0.0,0.0,0.0,0.0,0.0,0.0,0.0,0.0,0.0,0.0,0.0,0.0,0.0,0.0,0.0,0.0,0.0,0.0,0.0,0.0,0.0,0.0,0.0,0.0,0.0,0.0,0.0,0.0,0.0,0.0,0.0,0.0,0.0,0.0,0.0,0.0,0.0,0.0,0.0,0.0,0.0,0.0,0.0,0.0,0.0,0.0,0.0,0.0,-2.3596,-2.4198,-2.4245,-2.3841,-2.2722,-2.3609,-2.4023,-2.3353,0.0,0.0,0.0,0.0,0.0,0.0,0.0,0.0,0.0,0.0,0.0,0.0,0.0,0.0,0.0,0.0,0.0,0.0,0.0,0.0,0.0,0.0,0.0,0.0,0.0,0.0,0.0,0.0,0.0,0.0,0.0,0.0,0.0,0.0,0.0,0.0,0.0,0.0,0.0,0.0,0.0,0.0,0.0,0.0,0.0,0.0,0.0,0.0,0.0,0.0,0.0,0.0,0.0,0.0,0.0,0.0,0.0,0.0,0.0,0.0,0.0,0.0,0.0,0.0,0.0,0.0,0.0,0.0,0.0,0.0,0.0,0.0,0.0,0.0,0.0,0.0,0.0,0.0,0.0,0.0,0.0,0.0,0.0,0.0,0.0,0.0,0.0,0.0,0.0,0.0,0.0,0.0,0.0,0.0,0.0,0.0,0.0,0.0,0.0,0.0,0.0,0.0,0.0,-2.5124,-2.4861,-2.5815,-2.5084,-2.4245,-2.3624,-2.37,-2.3601,-2.3382,-2.3885,0.0,0.0,0.0,0.0,0.0,0.0,0.0,0.0,0.0,0.0,0.0,0.0,0.0,0.0,0.0,0.0,0.0,0.0,0.0,0.0,0.0,0.0,0.0,0.0,0.0,0.0,0.0,0.0,0.0,0.0,0.0,0.0,0.0,0.0,0.0,0.0,0.0,0.0,0.0,0.0,0.0,0.0,0.0,0.0,0.0,0.0,0.0,0.0,0.0,0.0,0.0,0.0,0.0,0.0,0.0,0.0,0.0,0.0,0.0,0.0,0.0,0.0,0.0,0.0,0.0,0.0,0.0,0.0,0.0,0.0,0.0,0.0,0.0,0.0,0.0,0.0,0.0,0.0,0.0,0.0,0.0,0.0,0.0,0.0,0.0,0.0,0.0,0.0,0.0,0.0,0.0,0.0,0.0,0.0,0.0,0.0,0.0,0.0,0.0,0.0,0.0,0.0,-2.6356,-2.6324,-2.7093,-2.5924,-2.5084,-2.4829,-2.4317,-2.3988,-2.3928,-2.4317,0.0,0.0,0.0,0.0,0.0,0.0,0.0,0.0,0.0,0.0,0.0,0.0,0.0,0.0,0.0,0.0,0.0,0.0,0.0,0.0,0.0,0.0,0.0,0.0,0.0,0.0,0.0,0.0,0.0,0.0,0.0,0.0,0.0,0.0,0.0,0.0,0.0,0.0,0.0,0.0,0.0,0.0,0.0,0.0,0.0,0.0,0.0,0.0,0.0,0.0,0.0,0.0,0.0,0.0,0.0,0.0,0.0,0.0,0.0,0.0,0.0,0.0,0.0,0.0,0.0,0.0,0.0,0.0,0.0,0.0,0.0,0.0,0.0,0.0,0.0,0.0,0.0,0.0,0.0,0.0,0.0,0.0,0.0,0.0,0.0,0.0,0.0,0.0,0.0,0.0,0.0,0.0,0.0,0.0,0.0,0.0,0.0,0.0,0.0,0.0,0.0,0.0,-2.6864,-2.7105,-2.7174,-2.7103,-2.667,-2.5746,-2.6423,-2.6701,-2.6166,-2.5778,0.0,0.0,0.0,0.0,0.0,0.0,0.0,0.0,0.0,0.0,0.0,0.0,0.0,0.0,0.0,0.0,0.0,0.0,0.0,0.0,0.0,0.0,0.0,0.0,0.0,0.0,0.0,0.0,0.0,0.0,0.0,0.0,0.0,0.0,0.0,0.0,0.0,0.0,0.0,0.0,0.0,0.0,0.0,0.0,0.0,0.0,0.0,0.0,0.0,0.0,0.0,0.0,0.0,0.0,0.0,0.0,0.0,0.0,0.0,0.0,0.0,0.0,0.0,0.0,0.0,0.0,0.0,0.0,0.0,0.0,0.0,0.0,0.0,0.0,0.0,0.0,0.0,0.0,0.0,0.0,0.0,0.0,0.0,0.0,0.0,0.0,0.0,0.0,0.0,0.0,0.0,0.0,0.0,0.0,0.0,0.0,0.0,0.0,0.0,0.0,0.0,0.0,-2.7404,-2.7652,-2.7971,-2.751,-2.7092,-2.667,-2.6423,-2.6374,-2.6382,0.0,0.0,0.0,0.0,0.0,0.0,0.0,0.0,0.0,0.0,0.0,0.0,0.0,0.0,0.0,0.0,0.0,0.0,0.0,0.0,0.0,0.0,0.0,0.0,0.0,0.0,0.0,0.0,0.0,0.0,0.0,0.0,0.0,0.0,0.0,0.0,0.0,0.0,0.0,0.0,0.0,0.0,0.0,0.0,0.0,0.0,0.0,0.0,0.0,0.0,0.0,0.0,0.0,0.0,0.0,0.0,0.0,0.0,0.0,0.0,0.0,0.0,0.0,0.0,0.0,0.0,0.0,0.0,0.0,0.0,0.0,0.0,0.0,0.0,0.0,0.0,0.0,0.0,0.0,0.0,0.0,0.0,0.0,0.0,0.0,0.0,0.0,0.0,0.0,0.0,0.0,0.0,0.0,0.0,0.0,0.0,0.0,0.0,0.0,0.0,0.0,0.0,-2.8216,-2.8288,-2.8421,-2.8795,-2.8262,-2.7834,-2.7834,-2.73,-2.701,-2.717,0.0,0.0,0.0,0.0,0.0,0.0,0.0,0.0,0.0,0.0,0.0,0.0,0.0,0.0,0.0,0.0,0.0,0.0,0.0,0.0,0.0,0.0,0.0,0.0,0.0,0.0,0.0,0.0,0.0,0.0,0.0,0.0,0.0,0.0,0.0,0.0,0.0,0.0,0.0,0.0,0.0,0.0,0.0,0.0,0.0,0.0,0.0,0.0,0.0,0.0,0.0,0.0,0.0,0.0,0.0,0.0,0.0,0.0,0.0,0.0,0.0,0.0,0.0,0.0,0.0,0.0,0.0,0.0,0.0,0.0,0.0,0.0,0.0,0.0,0.0,0.0,0.0,0.0,0.0,0.0,0.0,0.0,0.0,0.0,0.0,0.0,0.0,0.0,0.0,0.0,0.0,0.0,0.0,0.0,0.0,0.0,0.0,0.0,0.0,0.0,0.0,0.0,-2.9521,-2.9582,-2.9582,-2.9582,-2.9279,-2.9131,-2.9131,-2.937,-2.9363,0.0,0.0,0.0,0.0,0.0,0.0,0.0,0.0,0.0,0.0,0.0,0.0,0.0,0.0,0.0,0.0,0.0,0.0,0.0,0.0,0.0,0.0,0.0,0.0,0.0,0.0,0.0,0.0,0.0,0.0,0.0,0.0,0.0,0.0,0.0,0.0,0.0,0.0,0.0,0.0,0.0,0.0,0.0,0.0,0.0,0.0,0.0,0.0,0.0,0.0,0.0,0.0,0.0,0.0,0.0,0.0,0.0,0.0,0.0,0.0,0.0,0.0,0.0,0.0,0.0,0.0,0.0,0.0,0.0,0.0,0.0,0.0,0.0,0.0,0.0,0.0,0.0,0.0,0.0,0.0,0.0,0.0,0.0,0.0,0.0,0.0,0.0,0.0,0.0,0.0,0.0,0.0,0.0,0.0,0.0,0.0,0.0,0.0,0.0,0.0,0.0,0.0,0.0,-2.926,-2.9285,-2.9285,-2.9285,-2.915,-2.9131,-2.9131,-2.9199,-2.9132,-2.8803,0.0,0.0,0.0,0.0,0.0,0.0,0.0,0.0,0.0,0.0,0.0,0.0,0.0,0.0,0.0,0.0,0.0,0.0,0.0,0.0,0.0,0.0,0.0,0.0,0.0,0.0,0.0,0.0,0.0,0.0,0.0,0.0,0.0,0.0,0.0,0.0,0.0,0.0,0.0,0.0,0.0,0.0,0.0,0.0,0.0,0.0,0.0,0.0,0.0,0.0,0.0,0.0,0.0,0.0,0.0,0.0,0.0,0.0,0.0,0.0,0.0,0.0,0.0,0.0,0.0,0.0,0.0,0.0,0.0,0.0,0.0,0.0,0.0,0.0,0.0,0.0,0.0,0.0,0.0,0.0,0.0,0.0,0.0,0.0,0.0,0.0,0.0,0.0,0.0,0.0,0.0,0.0,0.0,0.0,0.0,0.0,0.0,0.0,0.0,0.0,0.0,0.0,-2.945,-2.9727,-2.9862,-2.9794,-2.9677,-2.9621,-2.9621,-2.9371,-2.9279,-2.912,0.0,0.0,0.0,0.0,0.0,0.0,0.0,0.0,0.0,0.0,0.0,0.0,0.0,0.0,0.0,0.0,0.0,0.0,0.0,0.0,0.0,0.0,0.0,0.0,0.0,0.0,0.0,0.0,0.0,0.0,0.0,0.0,0.0,0.0,0.0,0.0,0.0,0.0,0.0,0.0,0.0,0.0,0.0,0.0,0.0,0.0,0.0,0.0,0.0,0.0,0.0,0.0,0.0,0.0,0.0,0.0,0.0,0.0,0.0,0.0,0.0,0.0,0.0,0.0,0.0,0.0,0.0,0.0,0.0,0.0,0.0,0.0,0.0,0.0,0.0,0.0,0.0,0.0,0.0,0.0,0.0,0.0,0.0,0.0,0.0,0.0,0.0,0.0,0.0,0.0,0.0,0.0,0.0,0.0,0.0,0.0,0.0,0.0,0.0,0.0,0.0,0.0,-3.0084,-3.0691,-3.1096,-3.086,-3.0567,-3.0418,-3.0418,-3.0003,-2.9748,-2.9667,0.0,0.0,0.0,0.0,0.0,0.0,0.0,0.0,0.0,0.0,0.0,0.0,0.0,0.0,0.0,0.0,0.0,0.0,0.0,0.0,0.0,0.0,0.0,0.0,0.0,0.0,0.0,0.0,0.0,0.0,0.0,0.0,0.0,0.0,0.0,0.0,0.0,0.0,0.0,0.0,0.0,0.0,0.0,0.0,0.0,0.0,0.0,0.0,0.0,0.0,0.0,0.0,0.0,0.0,0.0,0.0,0.0,0.0,0.0,0.0,-2.0634,-2.0521,0.0,0.0,0.0,0.0,0.0,0.0,0.0,0.0,0.0,0.0,0.0,0.0,0.0,0.0,0.0,0.0,0.0,0.0,0.0,0.0,0.0,0.0,0.0,0.0,0.0,0.0,0.0,0.0,0.0,0.0,0.0,0.0,0.0,0.0,0.0,0.0,0.0,0.0,0.0,0.0,-3.106,-3.1242,-3.1317,-3.1317,-3.1204,-3.1142,-3.1142,-3.1048,-3.0897,-3.0593,-3.107,0.0,0.0,0.0,0.0,0.0,0.0,0.0,0.0,0.0,0.0,0.0,0.0,0.0,0.0,0.0,0.0,0.0,0.0,0.0,0.0,0.0,0.0,0.0,0.0,0.0,0.0,0.0,0.0,0.0,0.0,0.0,0.0,0.0,0.0,0.0,0.0,0.0,0.0,0.0,0.0,0.0,0.0,0.0,0.0,0.0,0.0,0.0,0.0,0.0,0.0,0.0,0.0,0.0,0.0,0.0,0.0,0.0,0.0,0.0,0.0,-2.1003,0.0,0.0,0.0,0.0,0.0,0.0,0.0,0.0,0.0,0.0,0.0,0.0,0.0,0.0,0.0,0.0,0.0,0.0,0.0,0.0,0.0,0.0,0.0,0.0,0.0,0.0,0.0,0.0,0.0,0.0,0.0,0.0,0.0,0.0,0.0,0.0,0.0,0.0,0.0,0.0,-3.1235,-3.1542,-3.1788,-3.1622,-3.1635,-3.1635,-3.1635,-3.1302,-3.11,-3.1146,-3.1573,0.0,0.0,0.0,0.0,0.0,0.0,0.0,0.0,0.0,0.0,0.0,0.0,0.0,0.0,0.0,0.0,0.0,0.0,0.0,0.0,0.0,0.0,0.0,0.0,0.0,0.0,0.0,0.0,0.0,0.0,0.0,0.0,0.0,0.0,0.0,0.0,0.0,0.0,0.0,0.0,0.0,0.0,0.0,0.0,0.0,0.0,0.0,0.0,0.0,0.0,0.0,0.0,0.0,-2.2819,-2.2896,-2.2814,-2.3335,-2.3486,-2.3168,-2.2509,-2.2113,-2.1915,-2.2354,0.0,0.0,0.0,0.0,0.0,0.0,0.0,0.0,0.0,0.0,0.0,0.0,0.0,0.0,0.0,0.0,0.0,0.0,0.0,0.0,0.0,0.0,0.0,0.0,-3.1801,-3.2,-3.1788,0.0,0.0,0.0,0.0,0.0,0.0,0.0,0.0,0.0,0.0,0.0,-3.1452,-3.2093,-3.2419,-3.2274,-3.2361,-3.2411,-3.2326,-3.1732,-3.1452,-3.1847,-3.1933,-3.2117,0.0,0.0,0.0,0.0,0.0,0.0,0.0,0.0,0.0,0.0,0.0,0.0,0.0,0.0,0.0,0.0,0.0,0.0,0.0,0.0,0.0,0.0,0.0,0.0,0.0,0.0,0.0,0.0,0.0,0.0,0.0,0.0,-2.2932,-2.2755,0.0,0.0,0.0,0.0,0.0,0.0,0.0,0.0,0.0,0.0,0.0,0.0,0.0,-2.3156,-2.3156,-2.3395,-2.3511,-2.3511,-2.3568,-2.3411,-2.3215,-2.3271,-2.3111,-2.2735,-2.2532,0.0,-2.2786,-2.2786,0.0,0.0,0.0,0.0,0.0,0.0,0.0,0.0,0.0,0.0,0.0,0.0,0.0,0.0,0.0,0.0,0.0,0.0,0.0,0.0,0.0,0.0,-3.2328,-3.2754,-3.2905,-3.2943,0.0,-3.1826,-3.0906,-3.1083,-3.1552,0.0,0.0,0.0,0.0,0.0,0.0,0.0,-3.2855,-3.3345,-3.3684,-3.3684,-3.4022,-3.4207,-3.4028,-3.3708,-3.3345,-3.2978,-3.3332,-3.3021,-3.1724,-3.2401,0.0,0.0,0.0,0.0,0.0,0.0,0.0,0.0,0.0,0.0,0.0,0.0,0.0,0.0,0.0,0.0,0.0,0.0,0.0,0.0,0.0,0.0,0.0,0.0,0.0,0.0,0.0,0.0,0.0,-2.3268,-2.3164,-2.3072,-2.3099,-2.2905,0.0,0.0,0.0,0.0,0.0,0.0,0.0,0.0,0.0,-2.2539,-2.2621,-2.274,-2.2966,-2.3009,-2.3004,-2.3148,-2.3331,-2.3331,-2.3157,-2.3382,-2.3299,-2.3027,-2.3076,-2.309,-2.2976,-2.2654,-2.247,-2.2555,0.0,0.0,0.0,0.0,-2.4506,-2.4782,-2.5341,-2.5777,-2.6033,-2.5534,0.0,0.0,0.0,0.0,0.0,0.0,0.0,0.0,0.0,0.0,-3.3057,-3.2748,-3.3383,-3.3922,-3.3421,-3.3134,-3.2822,0.0,-3.2109,-3.2131,-3.2215,0.0,0.0,0.0,0.0,-3.3533,-3.3533,-3.4022,-3.4361,-3.4361,-3.4575,-3.4623,-3.4338,-3.4217,-3.4003,-3.3654,-3.4301,-3.4354,-3.3612,-3.3781,-3.3595,0.0,0.0,0.0,0.0,0.0,0.0,0.0,0.0,0.0,0.0,0.0,0.0,0.0,0.0,0.0,0.0,0.0,0.0,0.0,0.0,0.0,0.0,0.0,0.0,0.0,0.0,0.0,0.0,-2.3763,-2.3586,-2.3574,-2.3598,-2.3398,0.0,0.0,0.0,0.0,0.0,0.0,-2.2888,-2.2702,-2.2574,-2.2362,-2.2457,-2.2621,-2.2934,-2.3019,-2.3041,-2.3168,-2.3447,-2.3456,-2.3364,-2.3768,-2.3805,-2.3539,-2.3662,-2.3508,-2.3286,-2.269,-2.2478,-2.2565,-2.2853,-2.3035,-2.3131,-2.3985,-2.4533,-2.4818,-2.5298,-2.5963,-2.655,-2.6057,-2.6992,-2.8433,-2.9139,0.0,0.0,0.0,0.0,-3.2721,-3.2599,-3.3034,-3.3333,-3.2574,-3.3469,-3.422,-3.3618,-3.4033,-3.4311,0.0,-3.3156,-3.2855,-3.2855,0.0,0.0,-3.2918,-3.3445,-3.3897,-3.3897,-3.4261,-3.4512,-3.4512,-3.4763,-3.4757,-3.447,-3.447,-3.4379,-3.4115,-3.4558,-3.4892,-3.4892,-3.4678,-3.4482,-3.4332,0.0,0.0,0.0,0.0,0.0,0.0,0.0,0.0,0.0,0.0,0.0,0.0,0.0,0.0,0.0,0.0,0.0,0.0,0.0,0.0,0.0,0.0,0.0,0.0,0.0,0.0,0.0,0.0,0.0,-2.4444,-2.4072,0.0,0.0,0.0,0.0,-2.368,-2.3366,-2.3057,-2.3128,-2.2678,-2.2372,-2.2441,-2.2999,-2.341,-2.3644,-2.4231,-2.4535,-2.4436,-2.4641,-2.4543,-2.4042,-2.4365,-2.4375,-2.4196,-2.4115,-2.4016,-2.3719,-2.3502,-2.3384,-2.3384,-2.3393,-2.3384,-2.3384,-2.3971,-2.4725,-2.5562,-2.6032,-2.6923,-2.7703,-2.7693,-2.8739,-2.9985,-3.0079,-3.0734,0.0,0.0,-3.2007,-3.1712,-3.2253,-3.2412,-3.2425,-3.24,-3.2995,-3.3568,-3.3543,-3.3733,-3.4073,0.0,-3.4613,-3.46,-3.46,0.0,-3.4625,-3.46,-3.4198,-3.3897,-3.3897,-3.3922,-3.3935,-3.3935,-3.4876,-3.5226,-3.4772,-3.4972,-3.4959,-3.4384,-3.4225,-3.4047,-3.4047,-3.4023,-3.3764,-3.3248,-3.3187,0.0,0.0,0.0,0.0,0.0,0.0,0.0,0.0,0.0,0.0,0.0,0.0,0.0,0.0,0.0,0.0,0.0,0.0,0.0,0.0,0.0,0.0,0.0,0.0,0.0,0.0,0.0,0.0,-2.4197,-2.4098,0.0,-2.368,-2.3699,-2.3551,-2.3335,-2.3261,-2.3214,-2.2955,-2.3119,-2.3205,-2.3028,-2.3256,-2.3486,-2.3804,-2.4154,-2.4307,-2.4341,-2.4447,-2.4437,-2.4253,-2.4328,-2.4251,-2.4161,-2.4336,-2.4253,-2.417,-2.4217,-2.391,-2.3447,-2.3447,-2.3447,-2.3447,-2.3935,-2.4325,-2.4753,-2.5624,-2.6409,-2.7521,-2.9645,-3.1156,-3.2241,-3.2911,-3.3306,-3.3607,-3.3819,-3.3731,-3.3619,-3.3653,-3.4052,-3.4214,-3.3572,-3.445,-3.5194,-3.474,-3.5044,-3.5542,-3.5742,-3.4914,-3.4198,-3.4198,-3.4487,-3.46,-3.4248,-3.4625,-3.4964,-3.4964,-3.5579,-3.6006,-3.6006,-3.6684,-3.693,-3.6639,-3.6639,-3.6639,-3.626,-3.6271,-3.6096,-3.5571,-3.5417,-3.4984,-3.4244,-3.4244,-3.3801,0.0,0.0,0.0,0.0,0.0,0.0,0.0,0.0,0.0,0.0,0.0,0.0,0.0,0.0,0.0,0.0,0.0,0.0,0.0,0.0,0.0,0.0,0.0,0.0,0.0,-2.4368,-2.4305,-2.4506,-2.4237,-2.4108,-2.4266,-2.3867,-2.3699,-2.3619,-2.3644,-2.3482,-2.3357,-2.3566,-2.3661,-2.3467,-2.3598,-2.3832,-2.4128,-2.4286,-2.4428,-2.4566,-2.4763,-2.4665,-2.4566,-2.4646,-2.4665,-2.4583,-2.4654,-2.4669,-2.4584,-2.4733,-2.4328,-2.3847,-2.3847,-2.3847,-2.3847,-2.4143,-2.4427,-2.4868,-2.6112,-2.7252,-2.8428,-3.069,-3.2256,-3.3371,-3.4047,-3.4292,-3.4441,-3.4441,-3.4441,-3.4479,-3.4495,-3.491,-3.5226,-3.4656,-3.5593,-3.6451,-3.5886,-3.6426,-3.691,-3.691,-3.5881,-3.5014,-3.5014,-3.5466,-3.5642,-3.509,-3.5629,-3.6031,-3.5843,-3.6458,-3.691,-3.691,-3.7302,-3.7443,-3.7233,-3.7134,-3.7009,-3.7005,-3.6934,-3.685,-3.6504,-3.6174,-3.5729,-3.508,-3.5071,-3.4785,-3.4476,0.0,0.0,0.0,0.0,0.0,0.0,0.0,0.0,0.0,0.0,0.0,0.0,0.0,0.0,0.0,0.0,0.0,0.0,0.0,0.0,0.0,0.0,0.0,-2.4941,-2.4977,-2.5158,-2.5442,-2.4516,-2.4156,-2.5047,-2.4134,-2.3794,-2.464,-2.4285,-2.404,-2.4288,-2.3956,-2.3758,-2.3758,-2.4165,-2.4378,-2.4566,-2.4885,-2.508,-2.505,-2.5607,-2.5617,-2.5086,-2.5644,-2.5758,-2.5549,-2.5549,-2.534,-2.5131,-2.5131,-2.4912,-2.4684,-2.4649,-2.4631,-2.4631,-2.4631,-2.5189,-2.6208,-2.7796,-2.9387,-3.0689,-3.0813,-3.1928,-3.3253,-3.3241,-3.3657,-3.401,-3.4114,-3.4126,-3.425,-3.4792,-3.4952,-3.51,-3.563,-3.6354,-3.6945,-3.6945,-3.754,-3.8002,-3.8002,-3.7588,-3.7236,-3.7211,-3.7651,-3.7826,-3.7287,-3.7211,0.0,-3.6483,-3.642,-3.6433,-3.642,-3.6634,-3.6775,-3.6481,-3.6173,-3.6193,-3.6423,-3.5978,-3.6018,-3.6816,-3.6354,-3.5893,-3.5704,-3.5502,-3.597,-3.6922,0.0,0.0,0.0,0.0,0.0,0.0,0.0,0.0,0.0,0.0,0.0,0.0,0.0,0.0,0.0,0.0,0.0,0.0,0.0,0.0,0.0,-2.5992,-2.587,-2.5671,-2.534,-2.524,-2.527,-2.4703,-2.4307,-2.4312,-2.4031,-2.3884,-2.3965,-2.387,-2.3851,-2.3881,-2.4143,-2.43,-2.43,-2.4802,-2.5127,-2.5135,-2.5647,-2.5862,-2.5872,-2.6902,-2.7294,-2.71,-2.7716,-2.788,-2.777,-2.777,-2.777,-2.7659,-2.7659,-2.7481,-2.7017,-2.5279,-2.4631,-2.4631,-2.4631,-2.5017,-2.5792,-2.7542,-2.9209,-3.077,-3.2342,-3.3592,-3.4703,-3.4896,-3.5074,-3.5239,-3.5908,-3.6007,-3.6227,-3.698,-3.713,-3.7167,-3.7317,-3.7578,-3.769,-3.769,-3.7902,-3.8002,-3.8002,-3.8216,-3.8278,-3.7852,-3.7902,-3.7952,-3.7801,-3.7789,0.0,-3.7294,-3.7605,-3.7593,-3.7023,-3.7493,-3.7725,-3.7624,-3.7522,-3.7743,-3.8154,-3.8044,-3.7758,-3.7412,-3.7254,-3.7108,-3.6885,-3.7053,-3.7175,0.0,0.0,0.0,0.0,0.0,0.0,0.0,0.0,0.0,0.0,0.0,0.0,0.0,0.0,0.0,0.0,0.0,0.0,0.0,0.0,0.0,0.0,-2.6249,-2.6093,-2.6094,-2.5643,-2.5245,-2.5172,-2.4634,-2.4307,-2.4285,-2.4066,-2.3927,-2.4012,-2.404,-2.419,-2.445,-2.4709,-2.4858,-2.4858,-2.5487,-2.5912,-2.6079,-2.667,-2.7053,-2.7223,-2.8042,-2.8282,-2.8072,-2.8445,-2.8559,-2.8333,-2.8333,-2.8333,-2.8333,-2.8333,-2.8192,0.0,0.0,0.0,0.0,0.0,-2.6153,-2.6677,-2.7641,-2.9352,-3.1271,-3.2464,-3.3993,-3.5416,-3.5524,-3.562,-3.5719,-3.6539,-3.6773,-3.7057,-3.8054,-3.8366,-3.8429,-3.8655,-3.8718,-3.8718,-3.8718,-3.8718,-3.8718,-3.8718,-3.8981,0.0,-3.9082,-3.8868,-3.863,-3.8404,-3.8567,-3.8617,-3.8529,-3.8991,-3.9187,-3.8906,-3.9087,-3.9284,-3.9284,-3.897,0.0,0.0,0.0,-3.9178,-3.8907,-3.8767,0.0,0.0,0.0,-3.8869,-3.9216,-3.948,0.0,0.0,-3.9247,-3.9697,0.0,0.0,0.0,0.0,0.0,0.0,0.0,0.0,0.0,0.0,0.0,0.0,0.0,0.0,0.0,0.0,-2.6492,-2.5963,-2.6365,-2.5944,-2.5506,-2.5068,-2.4568,-2.4323,-2.4612,-2.4193,-2.4145,-2.4622,-2.4569,-2.4803,-2.5335,-2.5408,0.0,0.0,0.0,-2.6719,-2.7229,-2.7833,-2.8423,-2.8785,-2.9058,-2.8974,-2.8408,-2.8786,-2.8587,-2.8131,-2.8017,-2.8017,-2.8017,-2.8017,-2.8017,-2.8008,-2.8143,-2.7892,-2.7623,-2.775,-2.7977,-2.8315,-2.8416,0.0,0.0,-3.2409,-3.3948,-3.5793,-3.5793,-3.5793,-3.6,-3.6725,-3.6972,-3.7306,-3.868,-3.9007,-3.9182,-3.9672,-3.9835,-3.9885,-3.9885,-3.9885,-3.9885,-3.9885,-3.9885,-4.0036,-4.0526,-4.0162,-3.9647,-3.922,-3.9559,-3.9769,-3.9769,-4.0195,-4.0564,-4.0989,0.0,0.0,-4.069,-4.003,-3.9658,-3.9977,-4.0047,-4.0363,-4.0762,-4.0595,-4.0682,-4.1025,-4.0595,-4.0726,-4.161,-4.161,-4.161,-4.1567,-4.0296,-4.0305,0.0,0.0,0.0,0.0,0.0,0.0,0.0,0.0,0.0,0.0,0.0,0.0,0.0,0.0,0.0,-2.7179,-2.6681,-2.603,-2.5764,-2.6004,-2.5948,-2.4908,-2.5092,-2.5189,-2.4594,-2.4937,-2.5195,-2.5199,-2.5236,-2.531,-2.5362,-2.5674,-2.6102,-2.6639,-2.7148,-2.7668,-2.8314,-2.8735,-2.8933,-2.9019,0.0,0.0,-2.986,-2.9978,-3.0025,-2.9909,-2.9559,-2.9451,-2.9451,-2.9451,-2.9334,-2.9142,-2.8251,-2.7833,-2.7777,-2.7737,-2.868,-3.0098,-3.0983,-3.2637,-3.4475,-3.5532,-3.6287,-3.67,-3.6911,-3.701,0.0,-3.7966,-3.8127,-3.8378,-3.9358,-3.9873,-4.0224,-4.0337,-4.0701,-4.1015,-4.1015,-4.1015,-4.1015,-4.1015,-4.1015,-4.1053,-4.1166,-4.0727,-4.0475,-4.0814,-4.0727,-4.0587,-4.0384,-4.0242,-3.9843,-3.9322,-3.9297,-3.9177,-3.9177,-3.908,-3.9141,-3.9683,-3.9916,-4.0301,-4.0901,-4.1319,-4.1702,-4.1945,-4.2382,-4.2633,-4.2808,-4.2808,-4.2808,-4.278,-4.161,-4.1248,0.0,0.0,0.0,0.0,0.0,0.0,0.0,0.0,0.0,0.0,0.0,-2.6774,-2.761,0.0,-2.651,-2.6839,-2.6303,-2.5879,-2.6031,-2.573,-2.5226,-2.4526,-2.5149,-2.5424,-2.4827,-2.5209,-2.5535,-2.5743,-2.606,-2.6264,-2.6458,-2.7073,-2.75,-2.7816,-2.8135,-2.8671,-2.9212,-2.9553,-2.9773,-3.0006,-3.0324,-3.0422,-3.0306,-3.0403,-3.0265,-3.0157,-2.9922,-2.9804,-2.9686,-3.0147,-3.0587,-3.0984,-3.0437,-2.9823,-2.9384,-2.9938,-3.0668,-3.1236,-3.1798,-3.2954,-3.4264,-3.5005,-3.5864,-3.6703,-3.6816,-3.7017,-3.7442,-3.8289,-3.8649,-3.9088,-3.9857,-4.0513,-4.0927,-4.0927,-4.1141,-4.1342,-4.1342,-4.1342,-4.1342,-4.1342,-4.1342,-4.143,-4.1706,-4.1409,-4.1114,-4.1114,-4.1006,-4.0889,-4.0857,-4.0771,-4.055,-4.0451,-4.0451,-4.0451,-4.0451,-4.0328,-4.0415,-4.0954,-4.1201,-4.1639,-4.2223,-4.2639,-4.2885,-4.2953,-4.3197,-4.3253,-4.3253,-4.3253,-4.3253,-4.3253,-4.2624,-4.2496,0.0,0.0,0.0,0.0,0.0,0.0,0.0,-2.6044,-2.64,-2.6602,-2.6304,-2.6004,-2.6294,-2.6234,-2.6194,-2.6284,-2.5909,-2.5757,-2.6428,-2.5604,-2.4878,-2.4607,-2.5164,-2.5496,-2.5266,-2.5561,-2.5872,-2.6267,-2.6816,-2.7278,-2.7799,-2.837,-2.8823,-2.8899,-2.9134,-2.9459,-3.0007,-3.0227,-3.0518,-3.0889,-3.0889,-3.0762,-3.0509,-3.0392,-3.0274,-3.0039,-2.9922,-2.9686,-2.944,-3.0128,-3.1149,-3.2281,-3.2499,-3.2176,-3.1622,-3.2281,-3.2611,-3.2622,-3.2622,-3.3378,-3.4358,-3.4464,-3.5631,-3.6916,-3.7018,-3.7424,-3.794,-3.8589,-3.9113,-3.9636,-4.0295,-4.1003,-4.1492,-4.1492,-4.158,-4.1656,-4.1656,-4.1656,-4.1656,-4.1656,-4.1656,-4.1794,-4.2233,-4.1977,-4.1718,-4.127,-4.1099,-4.115,-4.1273,-4.1335,-4.1394,-4.1834,-4.1883,-4.1935,-4.2051,-4.1788,-4.1979,-4.25,-4.2773,-4.3082,-4.3715,-4.3843,-4.3857,-4.3913,-4.3612,-4.3535,-4.3535,-4.3535,-4.3535,-4.3535,-4.3535,-4.3495,-2.3492,-2.4152,-2.483,-2.5478,-2.5809,-2.6031,0.0,-2.5781,-2.579,-2.58,-2.5616,-2.5421,-2.5703,-2.5295,-2.5063,-2.5732,-2.5751,-2.5693,-2.5672,-2.6516,-2.6804,-2.5732,-2.5956,-2.6041,-2.589,-2.6509,-2.7017,-2.7418,-2.7492,-2.7818,-2.8577,-2.8643,-2.8956,-2.968,-2.9699,-3.0016,-3.081,-3.082,-3.084,-3.0889,-3.0889,-3.0889,-3.0889,-3.0518,-3.0382,-3.0265,-2.9804,-2.9331,-2.9094,-2.9213,-2.9903,-3.1159,-3.2166,-3.3201,-3.4022,-3.2964,-3.3588,-3.488,-3.488,-3.6071,-3.7582,-3.8004,-3.8331,-3.8656,-3.9187,-3.9406,-3.9418,-3.9584,-3.9998,-4.0438,-4.0501,-4.1291,-4.207,-4.207,-4.2434,-4.2798,-4.2798,-4.2798,-4.2798,-4.2798,-4.2798,-4.2699,-4.2538,-4.2438,-4.2413,-4.2351,-4.1877,-4.1562,-4.1509,-4.1305,-4.1227,-4.1287,-4.1299,-4.1537,-4.2001,-4.1951,-4.2245,-4.3049,-4.3152,-4.3402,-4.398,-4.4026,-4.418,-4.4312,-4.4335,-4.4293,-4.4293,-4.4293,-4.4293,-4.4293,-4.4293,-4.3976,-2.4107,-2.4727,-2.5305,-2.5596,-2.5635,-2.5625,-2.5538,-2.5333,-2.5314,-2.5421,-2.5128,-2.4932,-2.5216,-2.4975,-2.5091,-2.573,-2.5887,-2.6029,-2.6593,-2.6785,-2.676,-2.6555,-2.6699,-2.667,-2.6287,-2.6961,-2.7409,-2.7576,-2.838,-2.8965,-2.9374,-2.9738,-3.0074,-3.0374,-3.0499,-3.0587,-3.0889,-3.0889,-3.0889,-3.0889,-3.0889,-3.0889,-3.0889,-3.0518,-3.0733,-3.1179,-3.0713,-3.1275,-3.2405,-3.2301,-3.2861,-3.4,-3.4558,-3.5124,-3.5477,-3.4902,-3.5223,-3.5904,-3.622,-3.6881,-3.756,-3.8198,-3.8526,-3.8841,-3.9062,-3.9374,-3.9697,-3.9697,-4.0325,-4.099,-4.099,-4.1806,-4.2635,-4.2635,-4.2811,-4.2974,-4.2974,-4.2974,-4.2974,-4.2974,-4.2862,-4.2638,-4.2525,-4.2174,-4.1948,-4.1948,-4.1708,-4.1492,-4.139,-4.1287,-4.1184,-4.1184,-4.1184,-4.1317,-4.1504,-4.1829,-4.2187,-4.2473,-4.3098,-4.3546,-4.3827,-4.429,-4.4583,-4.4612,-4.4769,-4.4862,-4.4862,-4.4862,-4.4862,-4.4862,-4.4862,-4.467,-2.487,-2.5295,-2.5635,-2.5635,-2.544,-2.5235,-2.5235,-2.4932,-2.4833,-2.5039,-2.4735,-2.444,-2.4637,-2.4829,-2.5206,-2.5719,-2.6069,-2.6433,-2.7141,-2.6741,-2.6576,-2.7064,-2.7375,-2.73,-2.7013,-2.7528,-2.8033,-2.8145,-2.9184,-2.9939,-3.0055,-3.0597,-3.0889,-3.0889,-3.0889,-3.0889,-3.0889,-3.0889,-3.0889,-3.0889,-3.0889,-3.1005,-3.1218,-3.1315,-3.1642,-3.2207,-3.1852,-3.2758,-3.4224,-3.4,-3.4692,-3.5817,-3.5817,-3.6048,-3.6266,-3.6266,-3.6266,-3.6386,-3.67,-3.6916,-3.7024,-3.756,-3.8092,-3.8631,-3.8736,-3.927,-3.9697,-3.9697,-4.0488,-4.1342,-4.1342,-4.2158,-4.2974,-4.2862,-4.2862,-4.2862,-4.2762,-4.2762,-4.2762,-4.2762,-4.2538,-4.2413,-4.2287,-4.1948,-4.1606,-4.1492,-4.1492,-4.139,-4.1184,-4.1184,-4.1184,-4.1184,-4.1184,-4.1227,-4.14,-4.1963,-4.2309,-4.2464,-4.3285,-4.3848,-4.3848,-4.4338,-4.469,-4.469,-4.4862,-4.494,-4.494,-4.494,-4.494,-4.494,-4.494,-4.494,-2.5616,-2.5723,-2.5635,-2.5333,-2.5342,-2.5235,-2.4932,-2.4735,-2.4529,-2.4529,-2.4341,-2.4251,-2.4251,-2.4774,-2.5245,-2.5254,-2.6144,-2.6682,-2.6489,-2.671,-2.711,-2.752,-2.7567,-2.7837,-2.8568,-2.8634,-2.8937,-2.9699,-2.9757,-3.0074,-3.085,-3.0889,-3.0889,-3.0889,-3.0889,-3.0889,-3.0889,-3.0889,-3.0889,-3.0889,-3.0889,-3.1334,-3.2227,-3.313,-3.3356,-3.3006,-3.3006,-3.2871,-3.2613,-3.2613,-3.3427,-3.4591,-3.4591,-3.5268,-3.6266,-3.6266,-3.6266,-3.6266,-3.6277,-3.6266,-3.6375,-3.6916,-3.7548,-3.8092,-3.8631,-3.927,-3.9697,-3.9697,-4.0488,-4.1342,-4.1342,-4.2158,-4.2862,-4.2638,-4.2525,-4.2413,-4.2211,-4.211,-4.211,-4.211,-4.2098,-4.1984,-4.172,-4.1594,-4.1492,-4.1299,-4.1184,-4.1184,-4.1184,-4.1184,-4.1184,-4.1184,-4.1184,-4.14,-4.1926,-4.2439,-4.3019,-4.3571,-4.4069,-4.4345,-4.4345,-4.4425,-4.4411,-4.4411,-4.4411,-4.4411,-4.4411,-4.4411,-4.4411,-4.4411,-4.4411,-4.4411,-2.5742,-2.5538,-2.543,-2.5333,-2.503,-2.4735,-2.4637,-2.444,-2.4341,-2.4341,-2.4563,-2.4848,-2.4848,-2.5385,-2.5956,-2.6248,-2.6531,-2.6805,-2.6747,-2.7366,-2.7666,-2.7567,-2.8417,-2.9165,-2.9422,-2.9441,-2.9498,-2.9757,-3.0267,-3.0616,-3.0889,-3.0889,-3.0889,-3.0889,-3.0889,-3.0889,-3.0889,-3.0645,-3.0518,-3.0635,-3.1189,-3.1516,-3.1632,-3.2778,-3.3572,-3.4022,-3.4022,-3.4469,-3.5002,-3.5002,-3.5356,-3.5708,-3.5708,-3.5938,-3.6266,-3.6266,-3.6266,-3.6375,-3.67,-3.67,-3.67,-3.7441,-3.788,-3.8092,-3.8409,-3.8841,-3.905,-3.905,-4.0053,-4.1006,-4.1006,-4.2035,-4.2974,-4.2862,-4.2638,-4.2525,-4.2425,-4.2211,-4.211,-4.211,-4.1972,-4.172,-4.1606,-4.1504,-4.1287,-4.1184,-4.1184,-4.1184,-4.1184,-4.1184,-4.1184,-4.1184,-4.1184,-4.1215,-4.1464,-4.2652,-4.352,-4.3623,-4.4453,-4.5029,-4.5029,-4.4621,-4.4411,-4.4411,-4.4411,-4.4411,-4.4411,-4.4411,-4.4411,-4.4411,-4.4411,-4.4411,-2.5538,-2.543,-2.5235,-2.5039,-2.4833,-2.4637,-2.444,-2.4341,-2.4251,-2.4251,-2.4932,-2.55,-2.55,-2.627,-2.6968,-2.7146,-2.7046,-2.7022,-2.6952,-2.7563,-2.7993,-2.8023,-2.9231,-3.0171,-3.0325,-3.0451,-3.0393,-3.0248,-3.0616,-3.0889,-3.0889,-3.0889,-3.0889,-3.0762,-3.0762,-3.0645,-3.0528,-3.0274,-3.0499,-3.083,-3.2187,-3.2747,-3.2644,-3.3786,-3.458,-3.5146,-3.5146,-3.5598,-3.6266,-3.6266,-3.6266,-3.6266,-3.6266,-3.6266,-3.6266,-3.6266,-3.6266,-3.6375,-3.67,-3.67,-3.67,-3.7334,-3.7667,-3.7892,-3.821,-3.8526,-3.8841,-3.8841,-3.9828,-4.0898,-4.0898,-4.1816,-4.275,-4.265,-4.2413,-4.2174,-4.2073,-4.1859,-4.1757,-4.1757,-4.1631,-4.1504,-4.1504,-4.1287,-4.1184,-4.1184,-4.1184,-4.1184,-4.1184,-4.1184,-4.1184,-4.1184,-4.1618,-4.1822,-4.1822,-4.3354,-4.4309,-4.4309,-4.5183,-4.5675,-4.5675,-4.5296,-4.5085,-4.5085,-4.486,-4.4734,-4.4734,-4.4523,-4.4411,-4.4411,-4.4411,-4.4411,-2.5342,-2.5254,-2.5166,-2.4637,-2.4754,-2.4763,-2.435,-2.4341,-2.444,-2.4279,-2.5216,-2.6071,-2.6091,-2.72,-2.8096,-2.7784,-2.7495,-2.7323,-2.7017,-2.7362,-2.7893,-2.8681,-2.9795,-3.0702,-3.1356,-3.1523,-3.1348,-3.1035,-3.1005,-3.1005,-3.0889,-3.0889,-3.0762,-3.0382,-3.0499,-3.0274,-3.0039,-3.0039,-3.0597,-3.1717,-3.3888,-3.4914,-3.4902,-3.5817,-3.6266,-3.6266,-3.6266,-3.6266,-3.6266,-3.6266,-3.6266,-3.6266,-3.6266,-3.6266,-3.6266,-3.6266,-3.6266,-3.6266,-3.6266,-3.6266,-3.6375,-3.6592,-3.7143,-3.7596,-3.7892,-3.8303,-3.8736,-3.8736,-3.9734,-4.0898,-4.0898,-4.1705,-4.2413,-4.2211,-4.1859,-4.1606,-4.1287,-4.1184,-4.1184,-4.1184,-4.1184,-4.1184,-4.1184,-4.1184,-4.1184,-4.1184,-4.1184,-4.1184,-4.1184,-4.1184,-4.1184,-4.1184,-4.2137,-4.2886,-4.2886,-4.4427,-4.5389,-4.5492,-4.6023,-4.635,-4.635,-4.6321,-4.6293,-4.6293,-4.5689,-4.538,-4.5366,-4.479,-4.4509,-4.4509,-4.4509,-4.4509,-2.5333,-2.5258,-2.5111,-2.481,-2.4961,-2.4902,-2.4505,-2.443,-2.4622,-2.4829,-2.5954,-2.6931,-2.7451,-2.8278,-2.8666,-2.8257,-2.7699,-2.7427,-2.739,-2.8014,-2.8663,-2.9515,-3.0546,-3.1159,-3.1146,-3.1404,-3.1683,-3.2153,-3.2238,-3.1903,-3.1005,-3.1546,-3.1411,-3.0382,-3.1063,-3.1401,-3.1275,-3.1967,-3.2311,-3.2385,-3.3888,-3.458,-3.4591,-3.5817,-3.6266,-3.6266,-3.6266,-3.6266,-3.6266,-3.6266,-3.6266,-3.6266,-3.6266,-3.6266,-3.6266,-3.6266,-3.6386,-3.6592,-3.6592,-3.6483,-3.6375,-3.6592,-3.6916,-3.7251,-3.7584,-3.7892,-3.8198,-3.8198,-3.9389,-4.056,-4.056,-4.1705,-4.2862,-4.2762,-4.2312,-4.1984,-4.1871,-4.1528,-4.1184,-4.1184,-4.1184,-4.1184,-4.1184,-4.1184,-4.1184,-4.1184,-4.1184,-4.1184,-4.1184,-4.1184,-4.1184,-4.1184,-4.1516,-4.1935,-4.2787,-4.4054,-4.5169,-4.613,-4.6661,-4.6982,-4.6982,-4.6532,-4.6293,-4.6293,-4.6125,-4.6055,-4.604,-4.5886,-4.5816,-4.5816,-4.5816,-4.5816,-2.5357,-2.5235,-2.5055,-2.5008,-2.5135,-2.5116,-2.4585,-2.4922,-2.5362,-2.5494,-2.6885,-2.8307,-2.8775,-2.9186,-2.9415,-2.8993,-2.8485,-2.8045,-2.7893,-2.8775,-2.9783,-3.0603,-3.1515,-3.2137,-3.2246,-3.265,-3.2977,-3.3159,-3.2452,-3.1787,-3.1546,-3.1977,-3.1747,-3.084,-3.1862,-3.2311,-3.2052,-3.3212,-3.3674,-3.3427,-3.4692,-3.5256,-3.5256,-3.5938,-3.6266,-3.6266,0.0,-3.6266,-3.6266,-3.6266,-3.6266,-3.6266,-3.6266,-3.6266,-3.6266,-3.6375,-3.6592,-3.67,-3.6808,-3.6916,-3.6939,-3.7036,-3.7143,-3.737,-3.7679,-3.7892,-3.8034,-3.8274,-3.9261,-4.0282,-4.0514,-4.1533,-4.24,-4.24,-4.2086,-4.1757,-4.1757,-4.1414,-4.1184,-4.1184,-4.1184,-4.1184,-4.1184,-4.1184,-4.1256,-4.1497,-4.1533,-4.1617,-4.1846,-4.1473,-4.1268,-4.1509,-4.2184,-4.2999,-4.3895,-4.5327,-4.6374,-4.7143,-4.7466,-4.76,-4.76,-4.7277,-4.7094,-4.7094,-4.6827,-4.6687,-4.6687,-4.642,-4.6293,-4.6293,-4.6293,-4.6293,-2.5367,-2.5145,-2.4984,-2.5077,-2.5235,-2.5204,-2.4646,-2.5586,-2.6466,-2.6207,-2.7998,-2.9714,-2.9907,-3.0203,-3.0286,-3.003,-2.9539,-2.92,-2.883,-2.9902,-3.095,-3.1789,-3.2748,-3.3462,-3.3917,-3.4424,-3.4592,-3.424,-3.2468,-3.1782,-3.2416,-3.2373,-3.2153,-3.1747,-3.2768,-3.3222,-3.3067,-3.4235,-3.4703,-3.4703,-3.5886,-3.6369,-3.6369,-3.6369,-3.6369,-3.6369,-3.63,-3.6266,-3.6266,-3.6266,-3.6266,-3.6266,-3.6266,-3.6266,-3.6375,-3.6592,-3.67,-3.6808,-3.7024,-3.7358,-3.7702,-3.7596,-3.7596,-3.7691,-3.788,-3.7986,-3.8094,-3.8659,-3.9395,-4.0123,-4.067,-4.1205,-4.172,-4.172,-4.1504,-4.1299,-4.1299,-4.1184,-4.1184,-4.1184,-4.1184,-4.1184,-4.1184,-4.1184,-4.1365,-4.1894,-4.1978,-4.2158,-4.2687,-4.2011,-4.1692,-4.2151,-4.3673,-4.4839,-4.5446,-4.7001,-4.7903,-4.812,-4.812,-4.812,-4.812,-4.812,-4.812,-4.812,-4.76,-4.7333,-4.7333,-4.6799,-4.6532,-4.6532,-4.6532,-4.6532,-2.4721,-2.4827,-2.5067,-2.5003,-2.5343,-2.5657,-2.5007,-2.5693,-2.6557,-2.6811,-2.8953,-3.0789,-3.0975,-3.17,-3.2139,-3.157,-3.0689,-3.0568,-3.186,-3.1688,-3.2038,-3.3517,-3.4116,-3.4265,-3.4128,-3.4752,-3.55,-3.5981,-3.5057,-3.417,-3.3717,-3.3559,-3.3591,-3.392,-3.4134,-3.4692,-3.5697,-3.5927,-3.5938,-3.5938,-3.658,-3.6909,-3.6909,-3.6909,-3.6909,-3.6886,-3.6449,0.0,-3.6266,-3.6266,-3.6266,-3.6266,-3.6266,-3.6266,-3.6375,-3.6592,-3.6808,-3.7024,-3.737,-3.7691,-3.7892,-3.7702,-3.7797,-3.7986,-3.7986,-3.7986,-3.8094,-3.8659,-3.9395,-4.0123,-4.067,-4.1443,-4.1984,-4.1984,-4.1732,-4.1492,-4.1492,-4.1402,-4.1184,-4.1184,-4.1184,-4.1184,-4.1184,-4.1184,-4.1365,-4.1894,-4.1978,-4.2158,-4.2687,-4.3118,-4.3323,-4.3422,-4.4117,-4.5006,-4.6087,-4.6533,-4.7143,-4.8018,-4.812,-4.812,-4.812,-4.812,-4.812,-4.812,-4.8021,-4.7965,-4.7965,-4.7867,-4.7811,-4.7811,-4.7811,-4.7811,-2.4989,-2.4936,-2.4827,-2.5145,-2.5443,-2.5583,-2.5557,-2.6466,-2.7557,-2.8305,-3.0235,-3.1748,-3.1833,-3.2582,-3.3045,-3.2387,-3.1858,-3.1875,-3.2512,-3.2715,-3.3202,-3.4427,-3.4749,-3.5065,-3.5497,-3.607,-3.6578,-3.6793,-3.6346,-3.5729,-3.4873,-3.4345,-3.4575,-3.5378,-3.5488,-3.5708,-3.6266,-3.6266,-3.6404,-3.6679,-3.692,-3.7173,-3.7425,-3.7425,-3.7276,-3.7023,-3.6771,-3.6518,-3.6266,-3.6266,-3.6266,-3.6375,-3.6592,-3.6592,-3.6592,-3.712,-3.7358,-3.737,-3.7679,-3.7892,-3.7986,-3.7892,-3.7892,-3.7986,-3.7986,-3.7986,-3.8154,-3.8996,-3.9515,-3.9987,-4.0797,-4.1334,-4.1643,-4.1643,-4.1516,-4.139,-4.139,-4.1287,-4.1184,-4.1184,-4.1184,-4.1184,-4.1184,-4.1184,-4.1365,-4.1894,-4.2206,-4.2567,-4.3084,-4.4274,-4.4725,-4.4179,-4.4947,-4.5848,-4.6702,-4.7101,-4.7466,-4.8018,-4.812,-4.812,-4.812,-4.812,-4.812,-4.812,-4.812,-4.812,-4.812,-4.812,-4.812,-4.812,-4.812,-4.812,-2.5102,-2.4871,-2.4603,-2.513,-2.5277,-2.543,-2.6004,-2.7125,-2.8434,-2.959,-3.1474,-3.2895,-3.2726,-3.3452,-3.3898,-3.3335,-3.3258,-3.3253,-3.3171,-3.3656,-3.4311,-3.5267,-3.5445,-3.5904,-3.7038,-3.7419,-3.7627,-3.7634,-3.7354,-3.6711,-3.5696,-3.5122,-3.5367,-3.6266,-3.6266,-3.6266,-3.6266,-3.6266,-3.653,-3.7035,-3.715,-3.746,-3.7953,-3.7839,-3.7575,-3.7184,-3.6966,-3.6645,-3.6266,-3.6266,-3.6375,-3.6483,-3.6916,-3.6916,-3.6928,-3.7667,-3.7797,-3.7596,-3.788,-3.7986,-3.7986,-3.7986,-3.7986,-3.7986,-3.7986,-3.7986,-3.8202,-3.9296,-3.9609,-3.985,-4.0908,-4.1184,-4.1184,-4.1184,-4.1184,-4.1184,-4.1184,-4.1184,-4.1184,-4.1184,-4.1184,-4.1184,-4.1184,-4.1184,-4.1365,-4.1894,-4.2327,-4.2772,-4.3289,-4.4938,-4.5723,-4.484,-4.5925,-4.6892,-4.737,-4.786,-4.812,-4.812,-4.812,-4.812,-4.812,-4.812,-4.812,-4.812,-4.812,-4.812,-4.812,-4.812,-4.812,-4.812,-4.812,-4.812,-2.4295,-2.4369,-2.4538,-2.4575,-2.496,-2.543,-2.6004,-2.7389,-2.8866,-2.967,-3.2122,-3.4082,-3.3557,-3.4785,-3.567,-3.5337,-3.4939,-3.4889,-3.553,-3.5524,-3.5713,-3.6406,-3.6592,-3.6911,-3.7959,-3.8164,-3.8373,-3.8769,-3.8194,-3.7109,-3.5845,-3.5994,-3.6157,-3.6266,-3.6266,-3.6266,-3.6266,-3.6266,-3.653,-3.7046,-3.7494,-3.7999,-3.8493,-3.8011,-3.7758,-3.7666,-3.6748,-3.6312,0.0,-3.6266,-3.6592,-3.7024,-3.6808,-3.7036,-3.7489,-3.7596,-3.7596,-3.7596,-3.788,-3.7986,-3.7986,-3.7986,-3.7986,-3.7986,-3.7986,-3.7986,-3.8202,-3.9296,-3.9609,-3.985,-4.0908,-4.1184,-4.1184,-4.1184,-4.1184,-4.1184,-4.1184,-4.1184,-4.1184,-4.1184,-4.1184,-4.1184,-4.1184,-4.1184,-4.1365,-4.1894,-4.2014,-4.223,-4.276,-4.437,-4.5461,-4.535,-4.6873,-4.7931,-4.7987,-4.8046,-4.812,-4.812,-4.812,-4.812,-4.812,-4.812,-4.812,-4.812,-4.812,-4.812,-4.812,-4.812,-4.812,-4.812,-4.812,-4.812,-2.4515,-2.4341,-2.4538,-2.5314,-2.5693,-2.635,-2.7746,-2.8866,-2.9977,-3.108,-3.2763,-3.3863,-3.382,-3.4959,-3.5843,-3.5648,-3.5454,-3.5369,-3.5696,-3.5622,-3.5885,-3.6579,-3.6514,-3.7009,-3.8377,-3.8132,-3.8354,-3.9174,-3.8355,-3.7554,-3.7075,-3.6595,-3.6266,-3.6266,-3.6266,-3.6266,-3.6266,-3.6266,-3.653,-3.7046,-3.754,-3.7896,-3.8103,-3.8217,-3.793,-3.7311,-3.6909,-3.6553,0.0,-3.6483,-3.67,-3.6916,-3.7334,-3.7572,-3.7596,-3.801,-3.7998,-3.7892,-3.7986,-3.7986,-3.7986,-3.7986,-3.7986,-3.7986,-3.7986,-3.7986,-3.8202,-3.9296,-3.9609,-3.985,-4.0908,-4.1184,-4.1184,-4.1184,-4.1184,-4.1184,-4.1184,-4.1184,-4.1184,-4.1184,-4.1184,-4.1184,-4.1184,-4.1184,-4.1256,-4.1473,-4.1761,-4.205,-4.2254,-4.4093,-4.5383,-4.5383,-4.7056,-4.812,-4.812,-4.812,-4.812,-4.812,-4.812,-4.812,-4.812,-4.812,-4.812,-4.812,-4.812,-4.812,-4.812,-4.812,-4.812,-4.812,-4.812,-4.812,-2.5112,-2.4726,-2.4697,-2.611,-2.6446,-2.6979,-2.8936,-2.9966,-3.089,-3.2113,-3.307,-3.3731,-3.3757,-3.4857,-3.5747,-3.5491,-3.5688,-3.58,-3.562,-3.5749,-3.5998,-3.6507,-3.6386,-3.6957,-3.8498,-3.8389,-3.8527,-3.9251,-3.8367,-3.7793,-3.7793,-3.6817,-3.6266,-3.6266,-3.6266,-3.6266,-3.6266,-3.6266,-3.653,-3.7035,-3.7391,-3.7643,-3.7793,-3.825,-3.795,-3.7245,-3.7095,-3.6939,0.0,-3.6712,-3.6808,-3.7131,-3.7667,-3.7892,-3.7904,-3.821,-3.8198,-3.7986,-3.7986,-3.7986,-3.7986,-3.7986,-3.7986,-3.7986,-3.7986,-3.8094,-3.8419,-3.9345,-3.9838,-4.0246,-4.0992,-4.1184,-4.1184,-4.1184,-4.1184,-4.1184,-4.1184,-4.1184,-4.1184,-4.1184,-4.1184,-4.1184,-4.1184,-4.1184,-4.1184,-4.1184,-4.1819,-4.2178,-4.1854,-4.4039,-4.5559,-4.5232,-4.696,-4.812,-4.812,-4.812,-4.812,-4.812,-4.812,-4.812,-4.812,-4.812,-4.812,-4.812,-4.812,-4.812,-4.812,-4.812,-4.812,-4.812,-4.812,-4.812,-2.5959,-2.5489,-2.5161,-2.6825,-2.6989,-2.7253,-2.9028,-3.0316,-3.1412,-3.2201,-3.317,-3.3809,-3.3543,-3.462,-3.5449,-3.5251,-3.59,-3.6181,-3.5704,-3.6024,-3.6272,-3.6297,-3.6291,-3.6886,-3.8436,-3.901,-3.9297,-3.9308,-3.8367,-3.7793,-3.7793,-3.6817,-3.6266,-3.6266,-3.6266,-3.6266,-3.6266,-3.6266,-3.653,-3.7035,-3.7046,-3.7311,-3.777,-3.7822,-3.7907,-3.7872,-3.7367,-3.7262,0.0,-3.6928,-3.7239,-3.7986,-3.7691,-3.7904,-3.8409,-3.8092,-3.7986,-3.7986,-3.7986,-3.7986,-3.7986,-3.7986,-3.7986,-3.7986,-3.7986,-3.8371,-3.8924,-3.9453,-4.0367,-4.1172,-4.1184,-4.1184,-4.1184,-4.1184,-4.1184,-4.1184,-4.1184,-4.1184,-4.1184,-4.1184,-4.1184,-4.1184,-4.1184,-4.1184,-4.1184,-4.1184,-4.215,-4.2463,-4.1402,-4.4222,-4.5939,-4.4752,-4.6701,-4.812,-4.812,-4.812,-4.812,-4.812,-4.812,-4.812,-4.812,-4.812,-4.812,-4.812,-4.812,-4.812,-4.812,-4.812,-4.812,-4.812,-4.812,-4.812,-2.7121,-2.6879,-2.7045,-2.88,-2.9293,-2.9659,-3.1169,-3.1889,-3.2351,-3.281,-3.3133,-3.3458,-3.3734,-3.3995,-3.4392,-3.5232,-3.5494,-3.5731,-3.6118,-3.6949,-3.7321,-3.6868,-3.7449,-3.7907,-3.8022,-3.8803,-3.9308,-3.9308,-3.8367,-3.7793,-3.7793,-3.7148,-3.67,-3.6266,-3.6266,-3.6266,-3.6266,-3.6266,-3.6564,-3.7053,-3.7402,-3.7692,-3.7951,-3.825,-3.8155,-3.7714,-3.756,-3.737,-3.7251,-3.7262,-3.7477,-3.7691,-3.7785,-3.7998,-3.8092,-3.7986,-3.7986,-3.7986,-3.7986,-3.7986,-3.7986,-3.7986,-3.7986,-3.7986,-3.7986,-3.8371,-3.9008,-3.9898,-4.0643,-4.1184,-4.1184,-4.1184,-4.1184,-4.1184,-4.1184,-4.1184,-4.1184,-4.1184,-4.1184,-4.1184,-4.1184,-4.1184,-4.1184,-4.1822,-4.2363,-4.2363,-4.2675,-4.2997,-4.3454,-4.4535,-4.5395,-4.5834,-4.7143,-4.812,-4.812,-4.812,-4.812,-4.812,-4.812,-4.812,-4.812,-4.812,-4.812,-4.812,-4.812,-4.812,-4.812,-4.812,-4.812,-4.812,-4.812,-4.812,-2.7895,-2.7796,-2.813,-2.9837,-3.0446,-3.0944,-3.2113,-3.2649,-3.2896,-3.3081,-3.3081,-3.3181,-3.3433,-3.3482,-3.3829,-3.4907,-3.5127,-3.5513,-3.6558,-3.7432,-3.8057,-3.8022,-3.8777,-3.9113,-3.8774,-3.9499,-3.9989,-3.9989,-3.9043,-3.8447,-3.8447,-3.7805,-3.7239,-3.6916,-3.6916,-3.6916,-3.6916,-3.6916,-3.7131,-3.7453,-3.7785,-3.7977,-3.7986,-3.8441,-3.831,-3.7904,-3.7797,-3.7679,0.0,-3.7584,-3.7702,-3.7797,-3.788,-3.7986,-3.7986,-3.7986,-3.7986,-3.7986,-3.7986,-3.7986,-3.7986,-3.7986,-3.7986,-3.8058,-3.8467,-3.8839,-3.9345,-4.0391,-4.0932,-4.1184,-4.1184,-4.1184,-4.1184,-4.1184,-4.1184,-4.1184,-4.1184,-4.1184,-4.1184,-4.1184,-4.1184,-4.1287,-4.172,-4.2463,-4.2997,-4.3428,-4.3978,-4.4305,-4.4522,-4.5395,-4.6045,-4.6374,-4.7466,-4.812,-4.812,-4.812,-4.812,-4.812,-4.812,-4.812,-4.812,-4.812,-4.812,-4.812,-4.812,-4.812,-4.812,-4.812,-4.812,-4.812,-4.812,-4.8348,0.0,-2.8296,-2.8624,-3.0255,-3.0766,-3.1199,-3.2189,-3.2822,0.0,-3.3081,-3.3081,-3.2982,-3.2797,-3.3133,-3.3655,-3.4226,-3.4761,-3.5575,-3.6973,-3.7655,-3.8472,-3.949,-4.003,-4.0331,-4.0294,-4.0812,-4.1021,-4.1088,-4.0138,-3.9537,-3.9501,-3.8646,-3.8092,-3.8092,-3.8092,-3.8092,-3.7986,-3.7986,-3.7986,-3.8092,-3.7986,-3.7986,-3.8092,-3.8303,-3.8421,0.0,-3.8092,-3.8198,-3.8303,-3.7797,-3.7797,-3.7986,-3.7986,-3.7986,-3.7986,-3.7986,-3.7986,-3.7986,-3.7986,-3.7986,-3.7986,-3.7986,-3.7986,-3.8178,-3.9272,-3.9609,-3.9826,-4.0884,-4.1184,-4.1184,-4.1184,-4.1184,-4.1184,-4.1184,-4.1184,-4.1184,-4.1184,-4.1184,-4.1184,-4.1184,-4.1299,-4.1606,-4.2675,-4.2997,-4.3538,-4.4522,-4.5714,-4.6045,-4.4954,-4.6701,-4.7582,-4.6596,-4.7466,-4.812,-4.812,-4.812,-4.812,-4.812,-4.812,-4.812,-4.812,-4.812,-4.812,-4.812,-4.812,-4.8148,-4.819,-4.819,-4.8306,-4.8348,-4.8348,-4.8934,-2.879,0.0,-3.0373,-3.1296,-3.2031,-3.2612,0.0,-3.2995,-3.3081,-3.3081,-3.3081,-3.3068,-3.2982,-3.2909,-3.3083,-3.3643,-3.4202,-3.4935,-3.6098,-3.7641,-3.8888,-3.9527,-3.9806,-3.9736,-3.9119,-4.014,-4.0751,-4.0458,-3.9934,-3.9381,-3.8984,-3.8667,-3.8631,-3.8631,-3.905,-3.8841,-3.7986,-3.7785,-3.801,-3.8631,-3.8198,-3.8303,-3.8945,-3.8841,-3.8619,-3.8409,-3.8303,-3.8198,-3.8092,-3.7986,-3.7986,-3.7986,-3.7986,-3.7986,-3.7986,-3.7986,-3.7986,-3.7986,-3.7986,-3.7986,-3.7986,-3.7986,-3.7986,-3.8178,-3.9272,-3.9609,-3.9826,-4.0884,-4.1184,-4.1184,-4.1184,-4.1184,-4.1184,-4.1184,-4.1184,-4.1184,-4.1184,-4.1184,-4.1184,-4.1184,-4.1935,-4.2575,-4.2886,-4.4414,-4.5714,-4.5939,-4.6269,-4.6596,-4.7246,-4.7026,-4.7026,-4.7685,-4.7903,-4.812,-4.812,-4.812,-4.812,-4.812,-4.812,-4.812,-4.812,-4.812,-4.812,-4.812,-4.812,-4.8548,-4.9522,-4.9522,-4.9968,-5.0832,-5.0832,-5.0645,-2.904,-2.9572,-3.0413,-3.1215,-3.194,-3.2682,-3.3018,-3.3081,-3.3081,-3.3081,-3.3081,-3.3081,-3.3081,-3.3108,-3.327,-3.3906,-3.4678,-3.5762,-3.7455,-3.8512,-3.9438,-4.066,-4.0733,-4.0668,-4.0631,-4.114,-4.1375,-4.1188,-4.0648,-4.0109,-3.957,-3.9346,-3.9166,-3.9166,-3.9478,-3.9374,-3.8841,-3.8526,-3.8643,-3.905,-3.8619,-3.8619,-3.905,-3.8736,-3.8526,-3.8409,-3.8303,-3.8092,-3.7986,-3.7986,-3.7986,-3.7986,-3.7986,-3.7986,-3.7986,-3.7986,-3.7986,-3.7986,-3.7986,-3.7986,-3.7986,-3.7986,-3.7986,-3.8178,-3.9272,-3.9609,-3.9826,-4.0884,-4.1184,-4.1184,-4.1184,-4.1184,-4.1184,-4.1184,-4.1184,-4.1184,-4.1184,-4.1184,-4.1184,-4.1184,-4.2137,-4.3108,-4.3538,-4.5168,-4.6596,-4.7143,-4.7143,-4.7363,-4.8018,-4.7582,-4.7466,-4.8018,-4.812,-4.812,-4.812,-4.812,-4.812,-4.812,-4.812,-4.812,-4.812,-4.812,-4.812,-4.812,-4.812,-4.872,-4.9939,-4.9939,-5.0457,-5.1556,-5.128,-5.1306,-2.9496,-2.9512,-2.9866,-3.0495,-3.1252,-3.2112,-3.2757,-3.3018,-3.3081,-3.3081,-3.3081,-3.3106,-3.3181,-3.3333,-3.3707,-3.4535,-3.5594,-3.7057,-3.9521,-3.9753,-4.0364,-4.1873,-4.189,-4.1954,-4.2475,-4.2463,-4.214,-4.1944,-4.1467,-4.0965,-4.0425,-3.9948,-3.9697,-3.9697,-3.9697,-3.9697,-3.9697,-3.9478,-3.9258,-3.9258,-3.8945,-3.8736,-3.8736,-3.8409,-3.8303,-3.8303,0.0,0.0,-3.7986,-3.7986,-3.7986,-3.7986,-3.7986,-3.7986,-3.7986,-3.7986,-3.7986,-3.7986,-3.7986,-3.7986,-3.7986,-3.7986,-3.8046,-3.8298,-3.9308,-3.9669,-3.9934,-4.0908,-4.1184,-4.1184,-4.1184,-4.1184,-4.1184,-4.1184,-4.1184,-4.1299,-4.139,-4.1516,-4.1504,-4.1732,-4.2687,-4.3759,-4.4738,-4.5834,-4.7026,-4.7903,-4.812,-4.812,-4.812,-4.812,-4.812,-4.812,-4.812,-4.812,-4.812,-4.812,-4.812,-4.812,-4.812,-4.812,-4.812,-4.812,-4.8176,-4.8362,-4.8362,-4.9005,-5.0414,-5.0414,-5.0991,-5.2019,-5.1566,-5.1692,-3.0317,-3.0274,-3.0238,-2.9854,-3.0885,-3.1928,-3.21,-3.2644,-3.3081,-3.3081,-3.3081,-3.3219,-3.3684,-3.3458,-3.3446,-3.4304,-3.616,-3.8091,-4.0149,-4.1191,-4.1651,-4.1447,-4.1792,-4.1643,-4.0587,-4.1139,-4.1212,-4.052,-4.0583,-4.04,-3.9848,-3.9735,-3.9697,-3.9697,-3.9697,-3.9697,-3.9697,-3.9478,-3.9258,-3.927,-3.8724,-3.8409,-3.8409,-3.8198,-3.8092,-3.8092,0.0,-3.7986,-3.7986,-3.7986,-3.7986,-3.7986,-3.7986,-3.7986,-3.7986,-3.7986,-3.7986,-3.7986,-3.7986,-3.7986,-3.7986,-3.7986,-3.8298,-3.8803,-3.9417,-3.9922,-4.0403,-4.1016,-4.1184,-4.1184,-4.1184,-4.1184,-4.1184,-4.1184,-4.1184,-4.1504,-4.2463,-4.2675,-4.2886,-4.3881,-4.5074,-4.5939,-4.6045,-4.704,-4.7903,-4.812,-4.812,-4.812,-4.812,-4.812,-4.812,-4.812,-4.812,-4.812,-4.812,-4.812,-4.812,-4.812,-4.812,-4.812,-4.812,-4.812,-4.8562,-4.9579,-4.9594,-5.0659,-5.2834,-5.2834,-5.321,-5.3858,-5.4321,-5.368,-3.1053,-3.094,-3.0753,-3.0219,-3.1116,-3.2228,-3.2711,-3.3383,-3.3884,-3.3583,-3.352,-3.3596,-3.3847,-3.4173,-3.4977,-3.6601,-3.7531,-3.8652,-4.0325,-4.0846,-4.1264,-4.1741,-4.1472,-4.1152,-4.1028,-4.0881,-4.0634,-4.014,-4.0184,-4.0157,-3.9722,-3.9581,-3.9581,-3.9697,-3.9697,-3.9697,-3.9697,-3.9478,-3.9258,-3.905,-3.8409,-3.8198,-3.8198,-3.8092,-3.7986,-3.7986,0.0,-3.7986,-3.7986,-3.7986,-3.7986,-3.7986,-3.7986,-3.7986,-3.7986,-3.7986,-3.7986,-3.7986,-3.7986,-3.7986,-3.7986,-3.7986,-3.8359,-3.8924,-3.9453,-3.997,-4.0499,-4.104,-4.1184,-4.1184,-4.1184,-4.1184,-4.1215,-4.1568,-4.1606,-4.1843,-4.271,-4.2862,-4.3059,-4.3893,-4.5036,-4.6007,-4.6319,-4.7363,-4.8007,-4.7684,-4.7909,-4.8007,-4.7684,-4.7923,-4.812,-4.812,-4.812,-4.812,-4.812,-4.812,-4.812,-4.812,-4.812,-4.8362,-4.9005,-4.9106,-4.9594,-5.0832,-5.0832,-5.17,-5.3447,-5.2992,-5.3322,-5.4206,-5.3773,-5.3084,-3.1793,-3.1757,-3.1497,-3.0722,-3.1088,-3.1994,-3.297,-3.3769,-3.4209,-3.4135,-3.4085,-3.4098,-3.4009,-3.4898,-3.62,-3.8002,-3.8617,-3.9141,-4.0199,-4.0327,-4.0802,-4.1856,-4.1159,-4.0804,-4.1198,-4.0646,-4.0165,-3.9823,-3.9891,-3.981,-3.9722,-3.9478,-3.9478,-3.9685,-3.9697,-3.9697,-3.9697,-3.9478,-3.9154,-3.8841,-3.8303,-3.8092,-3.7986,-3.7986,-3.7986,-3.7986,-3.7986,-3.7986,-3.7986,-3.7986,-3.7986,-3.7986,-3.7986,-3.7986,-3.7986,-3.7986,-3.7986,-3.7986,-3.7986,-3.7986,-3.7998,-3.813,-3.8551,-3.9104,-3.9633,-4.0162,-4.0667,-4.1076,-4.1184,-4.1263,-4.1347,-4.144,-4.1669,-4.2091,-4.2207,-4.2404,-4.3023,-4.3243,-4.3374,-4.4135,-4.507,-4.5846,-4.6312,-4.7175,-4.7754,-4.7277,-4.7726,-4.7951,-4.7488,-4.7825,-4.812,-4.812,-4.812,-4.812,-4.812,-4.8362,-4.8534,-4.8534,-4.8534,-4.8948,-4.9809,-5.0169,-5.0847,-5.1991,-5.1991,-5.2616,-5.3784,-5.3133,-5.3213,-5.3937,-5.2905,-5.2261,-3.2609,-3.2814,-3.2643,-3.0902,-3.0152,-3.0248,-3.2056,-3.2736,-3.3233,-3.4372,-3.4663,-3.4585,-3.4417,-3.5288,-3.6061,-3.6508,-3.8278,-3.9659,-3.9735,-4.0639,-4.1197,-4.1392,-4.1031,-4.0604,-3.9956,-3.975,-3.948,-3.8939,-3.9216,-3.9411,-3.9697,-3.9685,-3.9685,-3.9697,-3.9697,-3.9697,-3.9697,-3.9478,-3.9154,-3.8841,-3.8526,-3.8198,-3.7986,-3.7986,-3.7986,-3.7986,-3.7986,-3.7986,-3.7986,-3.7986,-3.7986,-3.7986,-3.7986,-3.7986,-3.7986,-3.7986,-3.7986,-3.7986,-3.7986,-3.7986,-3.807,-3.8587,-3.9116,-3.9645,-4.0174,-4.0715,-4.1136,-4.1172,-4.1184,-4.1281,-4.1842,-4.2284,-4.2735,-4.2683,-4.2788,-4.3075,-4.4165,-4.4354,-4.4697,-4.5915,-4.6154,-4.6266,-4.6308,-4.6799,-4.7263,-4.7221,-4.7726,-4.8106,-4.8064,-4.8092,-4.812,-4.812,-4.812,-4.812,-4.812,-4.9135,-4.9766,-4.9766,-4.9766,-4.9795,-4.9939,-5.089,-5.2005,-5.3257,-5.3272,-5.39,-5.5119,-5.4361,-5.3832,-5.3249,-5.3159,-5.2456,-3.1818,-3.215,-3.2253,-3.0823,-2.9985,-3.0034,-3.24,-3.3392,-3.3943,-3.4547,-3.4911,-3.5077,-3.5332,-3.6755,-3.7816,-3.7692,-3.9093,-4.0095,-3.999,-4.0746,-4.1342,-4.1342,-4.0814,-4.0301,-4.0009,-3.9662,-3.9377,-3.9179,-3.927,-3.9374,-3.9697,-3.9581,-3.9478,-3.9685,-3.9697,-3.9697,-3.9697,-3.9478,-3.9154,-3.8841,-3.8514,-3.8303,-3.7986,-3.7986,-3.7986,-3.7986,-3.7986,-3.7986,-3.7986,-3.7986,-3.7986,-3.7986,-3.7986,-3.7986,-3.7986,-3.7986,-3.7986,-3.7986,-3.7986,-3.7986,-3.807,-3.8635,-3.9176,-3.9705,-4.0234,-4.0763,-4.1184,-4.1184,-4.1476,-4.1669,-4.1492,-4.1865,-4.2422,-4.2709,-4.3056,-4.352,-4.4263,-4.4484,-4.4705,-4.5509,-4.6012,-4.642,-4.6799,-4.7375,-4.7642,-4.7277,-4.7726,-4.7979,-4.76,-4.7895,-4.812,-4.812,-4.812,-4.8376,-4.9149,-4.9594,-5.0198,-5.089,-5.0919,-5.128,-5.2092,-5.2441,-5.3095,-5.3878,-5.3878,-5.3903,-5.3937,-5.3279,-5.283,-5.2561,-5.2157,-5.1693,-3.1819,-3.2036,-3.2064,-3.1355,-3.0498,-3.04,-3.2658,-3.3353,-3.3816,-3.4882,-3.5276,-3.5561,-3.6484,-3.7492,-3.8241,-3.7904,-3.9041,-3.9819,-3.9424,-4.014,-4.0814,-4.0814,-4.0277,-3.9922,-3.9829,-3.9481,-3.9258,-3.9258,-3.9258,-3.9374,-3.9697,-3.9478,-3.9478,-3.9685,-3.9697,-3.9697,-3.9697,-3.9478,-3.927,-3.8945,-3.8631,-3.8303,-3.7986,-3.7986,-3.7986,-3.7986,-3.7986,-3.7986,-3.7986,-3.7986,-3.7986,-3.7986,-3.7986,-3.7986,-3.7986,-3.7986,-3.7986,-3.7986,-3.7986,-3.7986,-3.8106,-3.8827,-3.9308,-3.9729,-4.0439,-4.0896,-4.1184,-4.1184,-4.1543,-4.1951,-4.158,-4.1998,-4.2669,-4.3141,-4.3616,-4.3905,-4.4307,-4.4565,-4.4832,-4.524,-4.5858,-4.642,-4.6841,-4.7431,-4.7698,-4.7277,-4.7726,-4.7979,-4.7558,-4.7867,-4.8306,-4.859,-4.8706,-4.9149,-5.0371,-5.0818,-5.1309,-5.215,-5.2281,-5.2599,-5.3036,-5.3444,-5.3674,-5.3892,-5.3877,-5.3653,-5.3174,-5.2516,-5.2202,-5.2187,-5.1528,-5.1214,-3.2877,-3.2828,-3.2362,-3.2529,-3.1705,-3.1271,-3.2834,-3.2413,-3.2413,-3.5362,-3.58,-3.6109,-3.7703,-3.738,-3.692,-3.6798,-3.8029,-3.8567,-3.768,-3.8778,-3.9697,-3.9697,-3.9697,-3.9594,-3.9374,-3.9258,-3.9258,-3.9258,-3.9258,-3.9374,-3.9697,-3.9697,-3.9697,-3.9697,-3.9697,-3.9697,-3.9697,-3.9697,-3.9581,-3.927,-3.8945,-3.8514,-3.7986,-3.7986,-3.7986,-3.7986,-3.7986,-3.7986,-3.7986,-3.7986,-3.7986,-3.7986,-3.7986,-3.7986,-3.7986,-3.7986,-3.7986,-3.7986,-3.7986,-3.7986,-3.8166,-3.9248,-3.9609,-3.9801,-4.086,-4.1184,-4.1184,-4.1184,-4.1543,-4.1973,-4.196,-4.2814,-4.3748,-4.4269,-4.4411,-4.4411,-4.4411,-4.4888,-4.5324,-4.5324,-4.5858,-4.6307,-4.6307,-4.6813,-4.7221,-4.7221,-4.774,-4.812,-4.812,-4.8134,-4.8562,-4.9766,-4.9939,-5.0399,-5.1512,-5.266,-5.3432,-5.3432,-5.3878,-5.3694,-5.2516,-5.3536,-5.3877,-5.3174,-5.3174,-5.3174,-5.3159,-5.2501,-5.2187,-5.2172,-5.1528,-5.1214,-3.0881,-3.1904,-3.2773,-3.1589,-3.1593,-3.2226,-3.3282,-3.3106,-3.3371,-3.5803,-3.6368,-3.6748,-3.7568,-3.8004,-3.8042,-3.7245,-3.8091,-3.8717,-3.8036,-3.8938,-3.9697,-3.9697,-3.9697,-3.9697,-3.9581,-3.9581,-3.9581,-3.9581,-3.9581,-3.9581,-3.9697,-3.9697,-3.9581,-3.9374,-3.9581,-3.9594,-3.9374,-3.9594,-3.9478,-3.8945,-3.8841,-3.8631,-3.8303,-3.8092,-3.7986,-3.7986,-3.7986,-3.7986,-3.7986,-3.7986,-3.7986,-3.7986,-3.7986,-3.7986,-3.7986,-3.7986,-3.7986,-3.7986,-3.7986,-3.7986,-3.8166,-3.9248,-3.9609,-3.9801,-4.086,-4.1184,-4.1184,-4.1184,-4.1281,-4.1631,-4.234,-4.2827,-4.3141,-4.3664,-4.4123,-4.4411,-4.4411,-4.4888,-4.5324,-4.5324,-4.6195,-4.694,-4.694,-4.7445,-4.7853,-4.7853,-4.8007,-4.812,-4.812,-4.879,-4.9522,-4.9809,-5.063,-5.1367,-5.2059,-5.245,-5.2867,-5.3262,-5.3375,-5.351,-5.368,-5.354,-5.3174,-5.2501,-5.2501,-5.2261,-5.1798,-5.1603,-5.1513,-5.1498,-5.1304,-5.1214,-3.0833,-3.1543,-3.2169,-3.1894,-3.2109,-3.2684,-3.3863,-3.4341,-3.5021,-3.6331,-3.7047,-3.7643,-3.8079,-3.8342,-3.8241,-3.7184,-3.7854,-3.8429,-3.7925,-3.8901,-3.9697,-3.9697,-3.9697,-3.9697,-3.9697,-3.9697,-3.9697,-3.9697,-3.9697,-3.9697,-3.9697,-3.9697,-3.9594,-3.9478,-3.9478,-3.9478,-3.9478,-3.9374,-3.927,-3.905,-3.8736,-3.8636,-3.8725,-3.8188,-3.7986,-3.7986,-3.7986,-3.7986,-3.7986,-3.7986,-3.7986,-3.7986,-3.7986,-3.7986,-3.7986,-3.7986,-3.7986,-3.7986,-3.7986,-3.813,-3.8455,-3.932,-3.9741,-4.0078,-4.092,-4.1184,-4.1184,-4.1184,-4.1528,-4.1998,-4.259,-4.3105,-4.3485,-4.3834,-4.4177,-4.4411,-4.4411,-4.5099,-4.5717,-4.5717,-4.6715,-4.7572,-4.7572,-4.7881,-4.812,-4.812,-4.8534,-4.879,-4.879,-4.9823,-5.0803,-5.1251,-5.1699,-5.2276,-5.3055,-5.2833,-5.2881,-5.3174,-5.2935,-5.298,-5.3399,-5.301,-5.2486,-5.1828,-5.1813,-5.1618,-5.1214,-5.1214,-5.1214,-5.1214,-5.1224,-5.118,-3.1929,-3.1509,-3.1023,-3.2887,-3.2909,-3.3005,-3.4527,-3.5899,-3.686,-3.6848,-3.7655,-3.8502,-3.8919,-3.8391,-3.769,-3.7032,-3.748,-3.7903,-3.7593,-3.8766,-3.9697,-3.9697,-3.9697,-3.9697,-3.9697,-3.9697,-3.9697,-3.9697,-3.9697,-3.9697,-3.9697,-3.9697,-3.9697,-3.9581,-3.9374,-3.9374,-3.9581,-3.9062,-3.8945,-3.9258,-3.8631,-3.8664,-3.9114,-3.8357,-3.8082,-3.813,-3.813,-3.813,-3.813,-3.8082,-3.8058,-3.8046,-3.7998,-3.7986,-3.7986,-3.7986,-3.7986,-3.7986,-3.8046,-3.8395,-3.8912,-3.9489,-4.0006,-4.0499,-4.1028,-4.1184,-4.1184,-4.1184,-4.1878,-4.2656,-4.2749,-4.3485,-4.4255,-4.4345,-4.4411,-4.4411,-4.4411,-4.5408,-4.6293,-4.6293,-4.7277,-4.812,-4.812,-4.812,-4.8148,-4.8306,-4.9177,-4.9939,-4.9939,-5.0977,-5.2077,-5.311,-5.2797,-5.2907,-5.3982,-5.3443,-5.3069,-5.301,-5.2441,-5.2112,-5.2112,-5.2112,-5.1828,-5.1229,-5.1214,-5.1214,-5.1214,-5.1214,-5.1214,-5.1199,-5.1152,-5.1193,-3.087,-3.1604,-3.2313,-3.2566,-3.3308,-3.4247,-3.5178,-3.6661,-3.7629,-3.7245,-3.7518,-3.8153,-3.9346,-3.8341,-3.7365,-3.7468,-3.7729,-3.7903,-3.7593,-3.8766,-3.9697,-3.9697,-3.9697,-3.9697,-3.9697,-3.9697,-3.9697,-3.9697,-3.9697,-3.9697,-3.9697,-3.9697,-3.9478,-3.9062,-3.9154,-3.905,-3.8724,-3.8736,-3.8736,-3.8619,-3.8409,-3.8364,-3.8273,-3.8491,-3.8864,-3.926,-3.926,-3.926,-3.9224,-3.8803,-3.8635,-3.8599,-3.8154,-3.7986,-3.7986,-3.7986,-3.7986,-3.8046,-3.8479,-3.8719,-3.8972,-3.9922,-4.0306,-4.0499,-4.1028,-4.1184,-4.1184,-4.1184,-4.1347,-4.1719,-4.2535,-4.2955,-4.3359,-4.4244,-4.4411,-4.4411,-4.4411,-4.5408,-4.6293,-4.6293,-4.7277,-4.812,-4.812,-4.812,-4.8376,-4.9364,-4.9752,-5.0026,-5.0427,-5.1479,-5.2141,-5.1871,-5.256,-5.2927,-5.2665,-5.2501,-5.2187,-5.1678,-5.1513,-5.1439,-5.1439,-5.1439,-5.1364,-5.1214,-5.1214,-5.1214,-5.1214,-5.1214,-5.1214,-5.1199,-5.1152,-5.1193,-3.0895,-3.1499,-3.2205,-3.2785,-3.3729,-3.4582,-3.5267,-3.6725,-3.7903,-3.7419,-3.804,-3.8616,-3.8868,-3.8165,-3.75,-3.7055,-3.734,-3.7701,-3.7767,-3.8642,-3.9396,-3.9659,-3.9697,-3.9697,-3.9697,-3.9697,-3.9697,-3.9697,-3.9581,-3.9581,-3.9697,-3.9478,-3.9166,-3.905,-3.8945,-3.8736,-3.8619,-3.8514,-3.8409,-3.8409,-3.8303,-3.8224,-3.8383,-3.8407,-3.8563,-3.8827,-3.8827,-3.8827,-3.8803,-3.8527,-3.8419,-3.8395,-3.8094,-3.7986,-3.7986,-3.7986,-3.7986,-3.807,-3.8623,-3.8984,-3.9333,-4.0138,-4.0571,-4.0824,-4.11,-4.1184,-4.1184,-4.1184,-4.1424,-4.1781,-4.2628,-4.3032,-4.3419,-4.423,-4.4411,-4.4411,-4.4411,-4.5408,-4.6293,-4.6293,-4.7277,-4.812,-4.812,-4.8322,-4.8723,-4.9338,-5.0125,-5.0726,-5.1022,-5.2073,-5.2649,-5.2307,-5.2502,-5.2576,-5.2232,-5.1917,-5.1588,-5.1244,-5.1214,-5.1214,-5.1214,-5.1214,-5.1214,-5.1214,-5.1214,-5.1214,-5.1214,-5.1214,-5.1236,-5.1167,-5.1203,-5.1234,-3.1323,-3.1573,-3.1763,-3.3198,-3.3998,-3.4477,-3.5076,-3.6553,-3.7692,-3.7406,-3.8527,-3.927,-3.8329,-3.799,-3.7563,-3.6646,-3.6885,-3.7337,-3.7801,-3.8442,-3.9044,-3.9496,-3.9634,-3.9697,-3.9697,-3.9697,-3.9685,-3.9581,-3.9478,-3.9374,-3.9594,-3.905,-3.8945,-3.9154,-3.8631,-3.8514,-3.8631,-3.8198,-3.8092,-3.8303,-3.8092,-3.8226,-3.8659,-3.819,-3.8082,-3.8262,-3.8262,-3.8262,-3.825,-3.8166,-3.813,-3.8118,-3.8022,-3.7986,-3.7986,-3.7986,-3.7986,-3.807,-3.8731,-3.9248,-3.9705,-4.0331,-4.0824,-4.1184,-4.1184,-4.1184,-4.1184,-4.1184,-4.1504,-4.196,-4.2682,-4.3079,-4.366,-4.4283,-4.4411,-4.4411,-4.4411,-4.5324,-4.6167,-4.6279,-4.7376,-4.8221,-4.8322,-4.871,-4.9122,-4.9336,-5.0475,-5.14,-5.1512,-5.2375,-5.2965,-5.286,-5.2351,-5.2037,-5.2037,-5.1424,-5.105,-5.105,-5.0945,-5.093,-5.105,-5.105,-5.1109,-5.1214,-5.1214,-5.1214,-5.1214,-5.1281,-5.1197,-5.1178,-5.1251,-5.1218,-3.1629,-3.185,-3.2237,-3.3374,-3.379,-3.4256,-3.4968,-3.6063,-3.7022,-3.722,-3.8228,-3.8931,-3.8781,-3.7952,-3.7249,-3.7098,-3.7136,-3.7211,-3.7287,-3.8203,-3.8894,-3.8969,-3.9408,-3.9697,-3.9697,-3.9697,-3.9581,-3.9374,-3.9362,-3.9154,-3.8945,-3.8841,-3.8736,-3.8514,-3.8409,-3.8303,-3.8092,-3.8092,-3.7986,-3.8092,-3.7986,-3.8022,-3.8082,-3.801,-3.8503,-3.9393,-3.9393,-3.9393,-3.9357,-3.8888,-3.8707,-3.8659,-3.8166,-3.7986,-3.7986,-3.7986,-3.7986,-3.813,-3.9152,-3.9549,-3.9777,-4.0763,-4.1124,-4.1184,-4.1184,-4.1184,-4.1184,-4.1184,-4.1239,-4.1492,-4.2587,-4.2866,-4.3154,-4.4177,-4.4411,-4.4411,-4.4411,-4.4959,-4.5619,-4.6181,-4.7659,-4.8895,-4.9389,-4.9585,-4.9955,-5.0901,-5.1258,-5.1609,-5.1995,-5.2276,-5.2112,-5.1543,-5.1409,-5.1349,-5.1349,-5.075,-5.0361,-5.0361,-4.9838,-4.9778,-5.0346,-5.0361,-5.0646,-5.1214,-5.1214,-5.1214,-5.1214,-5.1409,-5.1343,-5.1162,-5.1407,-5.1343,-3.2071,-3.2102,-3.2249,-3.2852,-3.3411,-3.3905,-3.4591,-3.5793,-3.6935,-3.7394,-3.8266,-3.8781,-3.8442,-3.7977,-3.7437,-3.6822,-3.6722,-3.6835,-3.7149,-3.7877,-3.8492,-3.8604,-3.9141,-3.9374,-3.9166,-3.9166,-3.9166,-3.905,-3.8841,-3.8841,-3.8841,-3.8514,-3.8421,-3.8409,-3.8303,-3.8092,-3.7986,-3.7986,-3.7986,-3.7986,-3.7986,-3.7986,-3.7986,-3.7986,-3.825,-3.8695,-3.8695,-3.8695,-3.8683,-3.8443,-3.8346,-3.8322,-3.8082,-3.7986,-3.7986,-3.7986,-3.7986,-3.813,-3.9224,-3.9405,-3.9345,-4.0391,-4.0739,-4.0739,-4.0739,-4.0944,-4.1184,-4.1184,-4.1184,-4.1476,-4.2494,-4.2827,-4.3056,-4.4095,-4.4411,-4.4411,-4.4411,-4.4888,-4.5814,-4.7418,-4.8894,-5.0008,-5.0206,-5.05,-5.0681,-5.0913,-5.1076,-5.1348,-5.1648,-5.1648,-5.1543,-5.1244,-5.1214,-5.1065,-5.0705,-5.0406,-5.0092,-4.9718,-4.9434,-4.9389,-4.9673,-4.9703,-4.9823,-5.0122,-5.0481,-5.0923,-5.1334,-5.1095,-5.1165,-5.1533,-5.1662,-5.1653,-3.2585,-3.2499,-3.2384,-3.2582,-3.3125,-3.3778,-3.4181,-3.5426,-3.6541,-3.7097,-3.7854,-3.8316,-3.7892,-3.8029,-3.7914,-3.6743,-3.6563,-3.6614,-3.6943,-3.7342,-3.7705,-3.8051,-3.8609,-3.8901,-3.8828,-3.8841,-3.8736,-3.8736,-3.8526,-3.8421,-3.8631,-3.8198,-3.8092,-3.8303,-3.8092,-3.7986,-3.7986,-3.7986,-3.7986,-3.7986,-3.7986,-3.7986,-3.7986,-3.7986,-3.7986,-3.7986,-3.7986,-3.7986,-3.7986,-3.7986,-3.7986,-3.7986,-3.7986,-3.7986,-3.7986,-3.7986,-3.807,-3.831,-3.9128,-3.9236,-3.9152,-3.9934,-4.0282,-4.0391,-4.0391,-4.0763,-4.1184,-4.1184,-4.1184,-4.14,-4.258,-4.2734,-4.2996,-4.4429,-4.4671,-4.4615,-4.4758,-4.5303,-4.6342,-4.8387,-4.9683,-5.0427,-5.0525,-5.0817,-5.1017,-5.0721,-5.0947,-5.1214,-5.1214,-5.1065,-5.0975,-5.0975,-5.0825,-5.0526,-5.0032,-4.9838,-4.9538,-4.9045,-4.8865,-4.8835,-4.9015,-4.9015,-4.9254,-4.9598,-4.9914,-5.0395,-5.1241,-5.1064,-5.1206,-5.1768,-5.1823,-5.188,-3.2962,-3.2853,-3.2824,-3.2836,-3.3395,-3.3995,-3.3978,-3.4667,-3.5418,-3.6075,-3.6799,-3.7355,-3.7231,-3.8166,-3.8529,-3.7343,-3.6998,-3.6651,-3.6505,-3.6444,-3.6665,-3.7206,-3.7771,-3.8312,-3.8792,-3.8841,-3.8736,-3.8409,-3.8409,-3.8303,-3.8092,-3.7986,-3.7986,-3.7974,-3.7986,-3.7986,-3.7986,-3.7986,-3.7986,-3.7986,-3.7986,-3.7986,-3.7986,-3.7986,-3.7986,-3.7986,-3.7986,-3.7986,-3.7986,-3.7986,-3.7986,-3.7986,-3.7986,-3.7986,-3.7986,-3.7986,-3.831,-3.8779,-3.8839,-3.9176,-3.9573,-3.9633,-3.9982,-4.0391,-4.0391,-4.0763,-4.1184,-4.1184,-4.1184,-4.1497,-4.2645,-4.248,-4.2613,-4.5166,-4.5313,-4.5106,-4.5841,-4.6495,-4.7252,-4.8278,-4.9115,-4.9681,-5.0147,-5.0254,-5.0448,-5.1031,-5.1214,-5.1214,-5.1214,-5.0676,-5.0287,-5.0287,-4.9733,-4.9359,-4.9314,-4.8745,-4.8371,-4.8341,-4.7758,-4.7683,-4.8312,-4.8341,-4.9038,-5.0386,-4.9803,-4.9904,-5.0534,-5.1517,-5.1956,-5.183,-5.199,-5.1973,-3.2935,-3.286,-3.28,-3.2529,-3.3161,-3.3783,-3.3822,-3.4511,-3.5381,-3.6125,-3.6481,-3.6923,-3.7409,-3.8098,-3.8252,-3.7317,-3.7158,-3.7023,-3.6948,-3.6936,-3.691,-3.6905,-3.7404,-3.7807,-3.7782,-3.8097,-3.8303,-3.8198,-3.8092,-3.8092,-3.7986,-3.7986,-3.7986,-3.7986,-3.7986,-3.7986,-3.7986,-3.7986,-3.7986,-3.7986,-3.7986,-3.7986,-3.7986,-3.7986,-3.7986,-3.7986,-3.7986,-3.7986,-3.7986,-3.7986,-3.7986,-3.7986,-3.7986,-3.7986,-3.8022,-3.8383,-3.8419,-3.8383,-3.908,-3.8996,-3.8623,-3.8984,-3.9224,-3.9381,-3.9381,-3.9753,-4.0347,-4.101,-4.1208,-4.1607,-4.3123,-4.3506,-4.3975,-4.5416,-4.5659,-4.5795,-4.6843,-4.7566,-4.8097,-4.8466,-4.9304,-4.9965,-5.015,-5.0242,-5.0167,-4.9987,-4.9972,-4.9972,-4.9972,-4.9763,-4.9613,-4.9613,-4.9404,-4.9105,-4.8671,-4.8416,-4.8102,-4.7683,-4.7429,-4.7414,-4.7653,-4.8213,-4.8714,-4.9281,-5.0086,-5.0866,-5.1566,-5.1524,-5.1733,-5.2196,-5.2274,-5.223,-3.3069,-3.3019,-3.2847,-3.2422,-3.2924,-3.3518,-3.3545,-3.4193,-3.4988,-3.5439,-3.5903,-3.6272,-3.6682,-3.7547,-3.7956,-3.7592,-3.7409,-3.7299,-3.7185,-3.7026,-3.6877,-3.6957,-3.7297,-3.7472,-3.7445,-3.7781,-3.7986,-3.7986,-3.7986,0.0,-3.7986,-3.7986,-3.7986,-3.7986,-3.7986,-3.7986,-3.7986,-3.7986,-3.7986,-3.7986,-3.7986,-3.7986,-3.7986,-3.7986,-3.7986,-3.7986,-3.7986,-3.7986,-3.7986,-3.7986,-3.7986,-3.7986,-3.7986,-3.7986,-3.8046,-3.8611,-3.8575,-3.8359,-3.9092,-3.8864,-3.8298,-3.8479,-3.8888,-3.9394,-3.9394,-4.0001,-4.0868,-4.1657,-4.1855,-4.2188,-4.3476,-4.449,-4.5283,-4.583,-4.6461,-4.7002,-4.7598,-4.7967,-4.8248,-4.8445,-4.9088,-4.9583,-4.9583,-4.9583,-4.9508,-4.9299,-4.9269,-4.9269,-4.9269,-4.9075,-4.894,-4.894,-4.8745,-4.8431,-4.7997,-4.7952,-4.7773,-4.7339,-4.7309,-4.7467,-4.7694,-4.8256,-4.8887,-4.9439,-5.0554,-5.1437,-5.2225,-5.1736,-5.1818,-5.2373,-5.2373,-5.2373,0.0,0.0,0.0,-3.2685,-3.2948,-3.3256,-3.2991,-3.3479,-3.401,-3.401,-3.4846,-3.5475,-3.5223,-3.65,-3.7624,-3.7971,-3.775,-3.7539,-3.7216,-3.6759,-3.6615,-3.7132,-3.7192,-3.7397,-3.7914,-3.7974,-3.7986,-3.7986,-3.7986,-3.7986,-3.7986,-3.7986,-3.7986,-3.7986,-3.7986,-3.7986,-3.7986,-3.7986,-3.7986,-3.7986,-3.7986,-3.7986,-3.7986,-3.7986,-3.7986,-3.7986,-3.7986,-3.7986,-3.7986,-3.7986,-3.7986,-3.7986,-3.7986,-3.7986,-3.8046,-3.8611,-3.8815,-3.8815,-3.8839,-3.8839,-3.8755,-3.8309,-3.915,-4.056,-4.056,-4.1631,-4.2936,-4.2949,-4.2949,-4.3172,-4.3797,-4.5259,-4.66,-4.6403,-4.7651,-4.8669,-4.8015,-4.7703,-4.7718,-4.8163,-4.8252,-4.8252,-4.8252,-4.8252,-4.8476,-4.9105,-4.9209,-4.9209,-4.9209,-4.8656,-4.8252,-4.8252,-4.7683,-4.7309,-4.7309,-4.7309,-4.7309,-4.7309,-4.7309,-4.7694,-4.8573,-4.8656,-4.9439,-5.1043,-5.1118,-5.1582,-5.2373,-5.2373,-5.2373,-5.2373,-5.2373,-5.2373,-3.3157,0.0,0.0,0.0,0.0,0.0,-3.3259,-3.3568,-3.401,-3.401,-3.4244,-3.4593,-3.5077,-3.5588,-3.6206,-3.7204,-3.7718,-3.7875,-3.7769,-3.7312,-3.7024,-3.718,-3.7192,-3.7252,-3.7397,-3.7968,-3.8198,0.0,-3.8198,-3.8198,-3.7986,-3.7986,-3.7986,-3.7986,-3.7986,-3.7986,-3.7986,-3.7986,-3.7986,-3.7986,-3.7986,-3.7986,-3.7986,-3.7986,-3.7986,-3.7986,-3.7986,-3.7986,-3.7986,-3.7986,-3.7986,-3.7986,-3.7986,-3.7986,-3.8046,-3.8611,-3.9128,-3.9487,-3.9878,-4.035,-4.0649,-4.0488,-4.0757,-4.1101,-4.1101,-4.1434,-4.1978,-4.2805,-4.3028,-4.3442,-4.5064,-4.5827,-4.6333,-4.6865,-4.7377,-4.7715,-4.7521,-4.7389,-4.7404,-4.7578,-4.7578,-4.7578,-4.7578,-4.7578,-4.7638,-4.7818,-4.7848,-4.7848,-4.7848,-4.7683,-4.7578,-4.7578,-4.7414,-4.7309,-4.7309,-4.7309,-4.7309,-4.7309,-4.7849,-4.8339,-4.8558,-4.9757,-5.0631,-5.1118,-5.1745,-5.2142,-5.2373,-5.2373,-5.2373,-5.2373,-5.2373,-5.2373,-3.3335,-3.3344,-3.2983,-3.2957,0.0,0.0,-3.3135,-3.3395,-3.3603,-3.3603,-3.3687,-3.3942,-3.4384,-3.4768,-3.526,-3.6227,-3.6855,-3.7332,-3.789,-3.7709,-3.7517,-3.7517,-3.7517,-3.7517,-3.7517,-3.8016,-3.8198,-3.8198,-3.8303,-3.84,-3.8512,-3.8318,-3.82,-3.8322,-3.8106,-3.7986,-3.7986,-3.7986,-3.7986,-3.7986,-3.7986,-3.7986,-3.7986,-3.7986,-3.7986,-3.7986,-3.7986,-3.7986,-3.7986,-3.7986,-3.7986,-3.7986,-3.7986,-3.813,-3.8395,-3.9261,-3.9768,-4.0165,-4.0926,-4.1301,-4.1436,-4.1436,-4.1695,-4.21,-4.21,-4.2373,-4.2938,-4.3596,-4.3935,-4.4321,-4.5704,-4.6149,-4.6483,-4.7169,-4.7309,-4.7309,-4.7309,-4.7309,-4.7309,-4.7309,-4.7309,-4.7309,-4.7309,-4.7309,-4.7309,-4.7309,-4.7309,-4.7309,-4.7309,-4.7309,-4.7309,-4.7309,-4.7309,-4.7309,-4.7309,-4.7309,-4.7309,-4.7309,-4.8103,-4.8723,-4.9116,-5.04,-5.1268,-5.1672,-5.2142,-5.2373,-5.2373,-5.2373,-5.2373,-5.2373,-5.2373,-5.2373,-3.363,-3.3314,-3.2619,-3.283,-3.2833,0.0,-3.2804,-3.2959,-3.3081,-3.3081,-3.3283,-3.3456,-3.3518,-3.404,-3.4703,-3.5125,-3.5588,-3.6387,-3.7673,-3.789,-3.7914,-3.7974,-3.7986,-3.7986,-3.7986,-3.7986,-3.8092,-3.8303,-3.8409,-3.8615,-3.9089,-3.8725,-3.8618,-3.8803,-3.8395,-3.813,-3.807,-3.807,-3.8046,-3.7986,-3.7986,-3.7986,-3.7986,-3.7986,-3.7986,-3.7986,-3.8092,-3.8092,-3.8092,-3.8198,-3.8092,-3.7986,-3.8092,-3.8429,-3.908,-4.0072,-4.0644,-4.0926,-4.1982,-4.2086,-4.1733,-4.1733,-4.2493,-4.3321,-4.3321,-4.3886,-4.4709,-4.4752,-4.5141,-4.5553,-4.6014,-4.6424,-4.6803,-4.7182,-4.7309,-4.7309,-4.7309,-4.7309,-4.7309,-4.7309,-4.7309,-4.7309,-4.7309,-4.7309,-4.7309,-4.7309,-4.7309,-4.7309,-4.7309,-4.7309,-4.7309,-4.7309,-4.7309,-4.7309,-4.7309,-4.7309,-4.7294,-4.7467,-4.8256,-4.9116,-4.99,-5.0783,-5.1598,-5.2373,-5.2373,-5.2373,-5.2373,-5.2373,-5.2373,-5.2373,-5.2373,-5.2373,-3.2658,-3.2659,-3.2538,-3.2503,-3.2625,0.0,-3.2707,-3.2907,-3.3081,-3.3081,-3.3156,-3.3283,-3.3456,-3.3615,-3.3983,-3.4679,-3.5112,-3.5842,-3.712,-3.7348,-3.7505,-3.7938,-3.7986,-3.7986,-3.7986,-3.8198,-3.8303,-3.8092,-3.8303,-3.8563,-3.8883,-3.8977,-3.9102,-3.9103,-3.9225,-3.908,-3.8659,-3.8659,-3.8431,-3.7986,-3.7986,-3.7986,-3.7986,-3.7986,-3.7986,-3.7974,-3.8421,-3.8631,-3.8631,-3.9166,-3.8841,-3.8092,-3.8514,-3.8949,-3.9652,-4.0283,-4.1417,-4.2633,-4.2869,-4.345,-4.4071,-4.4071,-4.4258,-4.4349,-4.4349,-4.4522,-4.4738,-4.5193,-4.5512,-4.5986,-4.6446,-4.659,-4.6803,-4.7182,-4.7309,-4.7309,-4.7309,-4.7309,-4.7309,-4.7309,-4.7309,-4.7309,-4.7309,-4.7309,-4.7309,-4.7309,-4.7309,-4.7309,-4.7309,-4.7309,-4.7309,-4.7309,-4.7309,-4.7309,-4.7309,-4.7309,-4.7624,-4.8324,-4.9101,-4.9978,-5.0783,-5.1672,-5.223,-5.2373,-5.2373,-5.2373,-5.2373,-5.2373,-5.2373,-5.2373,-5.2373,-5.2373,-3.2931,-3.2867,-3.2612,-3.2735,-3.2811,0.0,0.0,-3.2982,-3.3081,-3.3081,-3.3081,-3.3156,-3.3258,-3.3308,-3.3482,-3.4033,-3.4207,-3.4764,-3.5819,-3.6621,-3.7288,-3.7553,-3.7829,-3.7986,-3.7986,-3.8092,-3.8198,-3.8198,-3.8409,-3.8741,-3.9234,-3.9035,-3.9145,-3.9426,-3.937,-3.9286,-3.902,-3.8924,-3.8671,-3.8395,-3.8118,-3.7986,-3.7986,-3.7986,-3.8198,-3.8409,-3.8631,-3.8945,-3.927,-3.9594,-3.9374,-3.8841,-3.9154,-3.9755,-4.057,-4.1102,-4.2251,-4.356,-4.3764,-4.4271,-4.4722,-4.4722,-4.4722,-4.4722,-4.4722,-4.4835,-4.5062,-4.538,-4.5829,-4.6395,-4.6668,-4.6821,-4.7067,-4.7282,-4.7309,-4.7309,-4.7309,-4.7309,-4.7309,-4.7309,-4.7309,-4.7309,-4.7309,-4.7309,-4.7309,-4.7309,-4.7309,-4.7309,-4.7309,-4.7309,-4.7309,-4.7309,-4.7309,-4.7309,-4.7309,-4.7709,-4.8172,-4.8573,-4.9757,-5.0631,-5.1118,-5.1908,-5.2373,-5.2373,-5.2373,-5.2373,-5.2373,-5.2587,-5.2587,-5.2373,-5.2373,-5.2516,-3.3265,-3.3056,-3.2723,-3.2909,-3.2995,-3.2982,0.0,0.0,0.0,-3.3081,-3.3081,-3.3081,-3.3081,-3.3081,-3.307,-3.3021,-3.3332,-3.3665,-3.423,-3.5904,-3.6909,-3.6826,-3.7288,-3.7637,-3.7529,-3.7613,-3.7875,-3.8396,-3.8533,-3.881,-3.9468,-3.9185,-3.9197,-3.964,-3.9524,-3.932,-3.9211,-3.902,-3.8863,-3.8647,-3.8309,-3.8092,-3.8198,-3.8198,-3.8409,-3.8945,-3.905,-3.9374,-3.9903,-4.0006,-3.9993,-3.9993,-3.989,-4.0559,-4.1506,-4.217,-4.3128,-4.4107,-4.4518,-4.4722,-4.4722,-4.4722,-4.4752,-4.4849,-4.4944,-4.5317,-4.5646,-4.5646,-4.6217,-4.6789,-4.6789,-4.7052,-4.7309,-4.7309,-4.7309,-4.7309,-4.7309,-4.7309,-4.7309,-4.7309,-4.7309,-4.7309,-4.7309,-4.7309,-4.7309,-4.7309,-4.7309,-4.7309,-4.7309,-4.7309,-4.7309,-4.7309,-4.7309,-4.7396,-4.7538,-4.8172,-4.8723,-4.9035,-5.0322,-5.1194,-5.1343,-5.2069,-5.2373,-5.2373,-5.2445,-5.2516,-5.2516,-5.2834,-5.2834,-5.2516,-5.257,-5.2711,-3.247,-3.23,-3.2475,-3.2475,-3.2636,-3.2723,-3.2723,0.0,-3.3081,-3.3081,0.0,-3.3081,-3.3081,0.0,0.0,-3.1601,-3.2587,-3.3396,-3.3173,-3.4882,-3.5937,-3.5527,-3.6078,-3.6398,-3.593,-3.6314,-3.7079,-3.8348,-3.7971,-3.8142,-3.9332,-3.9438,-3.9685,-4.0078,-4.0215,-3.9915,-3.9211,-3.9438,-3.898,-3.807,-3.8234,-3.8514,-3.8736,-3.8736,-3.905,-3.9581,-4.0096,-4.03,-4.0402,-4.0909,-4.111,-4.111,-4.0605,-4.108,-4.217,-4.2709,-4.3636,-4.4626,-4.4735,-4.4722,-4.4722,-4.4722,-4.4997,-4.5389,-4.5727,-4.6217,-4.6519,-4.6519,-4.6854,-4.7225,-4.7225,-4.7267,-4.7309,-4.7309,-4.7309,-4.7309,-4.7309,-4.7309,-4.7309,-4.7309,-4.7309,-4.7309,-4.7309,-4.7309,-4.7309,-4.7309,-4.7309,-4.7309,-4.7309,-4.7309,-4.7309,-4.7309,-4.7309,-4.7624,-4.8423,-4.8573,-4.9197,-5.0707,-5.0951,-5.1434,-5.2214,-5.2373,-5.2373,-5.2373,-5.2711,-5.2834,-5.2834,-5.3213,-5.3145,-5.2834,-5.3145,-5.3213,-3.2672,-3.2872,-3.3221,-3.2897,-3.3146,-3.3283,-3.2971,-3.2982,-3.3081,-3.3081,0.0,0.0,0.0,0.0,0.0,0.0,-3.2784,-3.3244,-3.3022,-3.4356,-3.5558,-3.6154,-3.6413,0.0,-3.5704,-3.6374,-3.7048,-3.7702,-3.7811,-3.8073,-3.8724,-3.9062,-3.9532,-4.0265,-4.0694,-4.1018,-4.1214,-4.0794,-4.0413,-3.9952,-3.9451,-3.9166,-3.9374,-3.9374,-3.9581,-4.0198,-4.0402,-4.0707,-4.101,-4.1211,-4.1311,-4.1311,-4.101,-4.171,-4.2709,-4.2919,-4.3742,-4.4722,-4.4722,-4.4722,-4.4778,-4.5063,-4.5294,-4.5486,-4.5845,-4.6306,-4.6688,-4.6688,-4.6977,-4.7399,-4.7773,-4.7593,-4.7504,-4.8267,-4.8147,-4.7982,-4.8356,-4.8446,-4.8446,-4.8446,-4.8446,-4.8327,-4.7938,-4.7563,-4.7309,-4.7309,-4.7309,-4.7309,-4.7309,-4.7309,-4.7309,-4.7309,-4.7779,-4.8172,-4.8573,-4.9519,-5.0322,-5.1043,-5.1582,-5.198,-5.2373,-5.2428,-5.2499,-5.2499,-5.2781,-5.2903,-5.2903,-5.323,-5.3349,-5.3162,-5.3332,-5.3399,-3.3221,-3.3408,-3.3771,-3.3219,0.0,0.0,0.0,0.0,0.0,-3.3081,-3.3081,0.0,0.0,0.0,-3.298,-3.2582,0.0,-3.3054,-3.2895,-3.4108,-3.5273,-3.5996,-3.6084,-3.6092,0.0,-3.6356,-3.6901,-3.7543,-3.774,-3.7988,-3.8607,-3.8945,-3.9598,-4.045,-4.1077,-4.1663,-4.2328,-4.1828,-4.143,-4.1053,-4.0379,-4.0042,-3.9903,-3.9903,-4.0198,-4.0707,-4.0707,-4.0909,-4.1311,-4.1311,-4.1498,-4.1683,-4.1683,-4.2584,-4.3797,-4.3218,-4.4151,-4.5542,-4.5248,-4.5236,-4.538,-4.5641,-4.5796,-4.5871,-4.6214,-4.6576,-4.6883,-4.6883,-4.7111,-4.7459,-4.8117,-4.7803,-4.7638,-4.8955,-4.876,-4.8461,-4.9119,-4.9119,-4.9,-4.9,-4.885,-4.8581,-4.8102,-4.7773,-4.7519,-4.7339,-4.7309,-4.7309,-4.7309,-4.7538,-4.7624,-4.7624,-4.8407,-4.905,-4.9278,-5.04,-5.1194,-5.1492,-5.2125,-5.2516,-5.2516,-5.264,-5.2694,-5.2694,-5.2903,-5.3041,-5.3041,-5.3366,-5.3567,-5.3634,-5.3617,-5.3683,0.0,0.0,0.0,-3.3219,0.0,0.0,0.0,0.0,-3.3081,0.0,0.0,-3.3081,-3.3081,-3.3081,-3.2644,-3.139,-3.2281,0.0,0.0,-3.4273,-3.5101,-3.3946,-3.4619,-3.557,-3.6599,-3.5935,-3.627,-3.8354,-3.7717,-3.7811,-3.9208,-3.9775,-4.0221,-4.045,-4.1129,-4.1527,-4.1851,-4.2076,-4.1571,-4.0501,-4.0778,-4.0707,-4.0504,-4.0504,-4.0808,-4.1311,-4.1311,-4.1311,-4.1311,-4.1311,-4.1868,-4.2792,-4.2792,-4.4097,-4.5748,-4.3694,-4.5034,-4.7777,-4.6673,-4.6586,-4.6883,-4.6749,-4.6654,-4.6722,-4.711,-4.7267,-4.7252,-4.7252,-4.7324,-4.7459,-4.8117,-4.7803,-4.7638,-4.8955,-4.876,-4.8461,-4.9119,-4.876,-4.8312,-4.8312,-4.7803,-4.7369,-4.7339,-4.7848,-4.8042,-4.7399,-4.7309,-4.7309,-4.7309,-4.8019,-4.8573,-4.8573,-4.9262,-5.0135,-5.0951,-5.1043,-5.1492,-5.2483,-5.2553,-5.2694,-5.2903,-5.2903,-5.2903,-5.2903,-5.323,-5.3366,-5.3366,-5.3783,-5.4045,-5.4158,-5.4158,-5.411,0.0,0.0,-3.4763,-3.3847,0.0,0.0,0.0,0.0,0.0,0.0,0.0,-3.3081,-3.3081,-3.3081,-3.2955,-3.2494,-3.283,-3.3271,0.0,-3.4807,-3.5701,-3.587,-3.6116,-3.6186,-3.6049,-3.6612,-3.7368,-3.8381,-3.8741,-3.9078,-3.9569,-4.0554,-4.1271,-4.1639,-4.267,-4.3349,-4.3704,-4.3449,-4.2969,-4.2189,-4.1931,-4.1452,-4.101,-4.101,-4.1484,-4.2333,-4.2333,-4.2709,-4.3286,-4.3286,-4.3464,-4.3829,-4.3829,-4.5166,-4.7033,-4.5565,-4.6315,-4.7979,-4.7573,-4.727,-4.701,-4.7261,-4.7007,-4.6756,-4.7139,-4.7309,-4.7309,-4.7309,-4.7623,-4.7997,-4.8222,-4.8446,-4.882,-4.9703,-4.9733,-4.9763,-5.0421,-5.0047,-4.9703,-5.0137,-4.9703,-4.9239,-4.9239,-4.9434,-4.9209,-4.8117,-4.7952,-4.8113,-4.8657,-4.8982,-4.9217,-4.939,-5.0151,-5.0783,-5.1027,-5.1729,-5.2324,-5.2764,-5.2764,-5.2834,-5.2903,-5.3041,-5.311,-5.311,-5.345,-5.3567,-5.3567,-5.3849,-5.4045,-5.4045,-5.4175,-5.4175,-3.5429,-3.5579,0.0,-3.4462,-3.4462,0.0,-3.3583,0.0,-3.337,0.0,0.0,0.0,-3.3583,-3.3345,-3.3144,-3.3332,-3.3206,-3.342,0.0,-3.5018,-3.5635,-3.6515,-3.6493,-3.6405,-3.6388,-3.6897,-3.778,-3.8978,-3.9401,-3.9637,-3.9968,-4.1232,-4.2153,-4.2437,-4.3548,-4.4443,-4.493,-4.4465,-4.3885,-4.331,-4.2735,-4.2364,-4.2186,-4.1974,-4.2333,-4.3355,-4.3355,-4.3735,-4.4312,-4.4312,-4.4499,-4.4854,-4.4854,-4.6157,-4.779,-4.6551,-4.7123,-4.8567,-4.8735,-4.8344,-4.7808,-4.7843,-4.7413,-4.6931,-4.724,-4.7309,-4.7354,-4.7593,-4.7803,-4.8042,-4.8521,-4.8596,-4.879,-4.9688,-4.9718,-4.9793,-5.0676,-5.0361,-5.0092,-5.075,-5.0331,-4.9898,-4.9898,-4.9898,-4.9598,-4.876,-4.8641,-4.8874,-4.9435,-4.9795,-5.0028,-5.0214,-5.1313,-5.2089,-5.2253,-5.2848,-5.3188,-5.3195,-5.3162,-5.3247,-5.3315,-5.3382,-5.3568,-5.3771,-5.377,-5.3902,-5.4091,-5.4034,-5.4045,-5.4045,-5.4175,-5.4239]}]]